Wetterdaten: Donnerstag, 19.05.2016
Datum Zeit Temp. A. Feuchte A. Luftdruck Regen Wind Richtung Richtung Sonnenschein ET UV Solar Taupunkt Windchill Windben Empfang
19.05.2016 00:00 10,4 C 84 % 1008,8 hPa 0,0 l/m 0,0 km/h (0 Bft) SO 142 0 min 0,000 mm 0,0 UV-I 0 W/m 7,8 C 10,4 C 0,0 km/h (0 Bft) 100,00 %
19.05.2016 00:02 10,3 C 83 % 1008,8 hPa 0,0 l/m 0,0 km/h (0 Bft) SO 142 0 min 0,000 mm 0,0 UV-I 0 W/m 7,5 C 10,3 C 1,6 km/h (1 Bft) 100,00 %
19.05.2016 00:03 10,3 C 83 % 1008,8 hPa 0,0 l/m 2,1 km/h (1 Bft) SO 142 0 min 0,000 mm 0,0 UV-I 0 W/m 7,5 C 10,3 C 3,2 km/h (1 Bft) 100,00 %
19.05.2016 00:04 10,3 C 83 % 1008,8 hPa 0,0 l/m 2,5 km/h (1 Bft) SO 142 0 min 0,000 mm 0,0 UV-I 0 W/m 7,5 C 10,3 C 3,2 km/h (1 Bft) 100,00 %
19.05.2016 00:05 10,3 C 83 % 1008,8 hPa 0,0 l/m 2,7 km/h (1 Bft) SO 142 0 min 0,000 mm 0,0 UV-I 0 W/m 7,5 C 10,3 C 3,2 km/h (1 Bft) 96,15 %
19.05.2016 00:06 10,3 C 83 % 1008,7 hPa 0,0 l/m 3,4 km/h (1 Bft) SO 141 0 min 0,000 mm 0,0 UV-I 0 W/m 7,5 C 10,3 C 4,8 km/h (1 Bft) 96,30 %
19.05.2016 00:07 10,2 C 82 % 1008,7 hPa 0,0 l/m 3,4 km/h (1 Bft) SO 137 0 min 0,000 mm 0,0 UV-I 0 W/m 7,3 C 10,2 C 4,8 km/h (1 Bft) 100,00 %
19.05.2016 00:08 10,2 C 82 % 1008,8 hPa 0,0 l/m 4,0 km/h (1 Bft) O-NO 61 0 min 0,000 mm 0,0 UV-I 0 W/m 7,3 C 10,2 C 4,8 km/h (1 Bft) 100,00 %
19.05.2016 00:09 10,1 C 83 % 1008,7 hPa 0,0 l/m 2,7 km/h (1 Bft) O-NO 61 0 min 0,000 mm 0,0 UV-I 0 W/m 7,3 C 10,1 C 3,2 km/h (1 Bft) 96,15 %
19.05.2016 00:10 10,0 C 83 % 1008,8 hPa 0,0 l/m 2,2 km/h (1 Bft) O-NO 61 0 min 0,000 mm 0,0 UV-I 0 W/m 7,2 C 10,0 C 3,2 km/h (1 Bft) 100,00 %
19.05.2016 00:11 9,9 C 83 % 1008,7 hPa 0,0 l/m 2,0 km/h (1 Bft) O-NO 61 0 min 0,000 mm 0,0 UV-I 0 W/m 7,2 C 9,9 C 3,2 km/h (1 Bft) 100,00 %
19.05.2016 00:12 9,9 C 83 % 1008,7 hPa 0,0 l/m 2,7 km/h (1 Bft) O-NO 61 0 min 0,000 mm 0,0 UV-I 0 W/m 7,2 C 9,9 C 3,2 km/h (1 Bft) 100,00 %
19.05.2016 00:13 9,9 C 84 % 1008,7 hPa 0,0 l/m 1,4 km/h (1 Bft) O-NO 61 0 min 0,000 mm 0,0 UV-I 0 W/m 7,3 C 9,9 C 3,2 km/h (1 Bft) 95,83 %
19.05.2016 00:14 9,9 C 84 % 1008,7 hPa 0,0 l/m 1,1 km/h (1 Bft) O-NO 61 0 min 0,000 mm 0,0 UV-I 0 W/m 7,3 C 9,9 C 1,6 km/h (1 Bft) 100,00 %
19.05.2016 00:15 10,1 C 84 % 1008,7 hPa 0,0 l/m 1,5 km/h (1 Bft) O-NO 61 0 min 0,000 mm 0,0 UV-I 0 W/m 7,5 C 10,1 C 3,2 km/h (1 Bft) 100,00 %
19.05.2016 00:16 10,1 C 84 % 1008,6 hPa 0,0 l/m 1,9 km/h (1 Bft) O-NO 61 0 min 0,000 mm 0,0 UV-I 0 W/m 7,5 C 10,1 C 3,2 km/h (1 Bft) 91,67 %
19.05.2016 00:17 10,1 C 84 % 1008,6 hPa 0,0 l/m 3,0 km/h (1 Bft) O-NO 61 0 min 0,000 mm 0,0 UV-I 0 W/m 7,5 C 10,1 C 3,2 km/h (1 Bft) 100,00 %
19.05.2016 00:18 10,0 C 84 % 1008,6 hPa 0,0 l/m 3,0 km/h (1 Bft) O-NO 61 0 min 0,000 mm 0,0 UV-I 0 W/m 7,4 C 10,0 C 3,2 km/h (1 Bft) 95,83 %
19.05.2016 00:19 9,9 C 84 % 1008,6 hPa 0,0 l/m 3,8 km/h (1 Bft) O-NO 67 0 min 0,000 mm 0,0 UV-I 0 W/m 7,3 C 9,9 C 4,8 km/h (1 Bft) 100,00 %
19.05.2016 00:20 9,8 C 85 % 1008,6 hPa 0,0 l/m 4,5 km/h (1 Bft) O-NO 67 0 min 0,000 mm 0,0 UV-I 0 W/m 7,4 C 9,8 C 4,8 km/h (1 Bft) 100,00 %
19.05.2016 00:21 9,7 C 85 % 1008,6 hPa 0,0 l/m 4,4 km/h (1 Bft) O-NO 67 0 min 0,000 mm 0,0 UV-I 0 W/m 7,3 C 9,7 C 4,8 km/h (1 Bft) 95,83 %
19.05.2016 00:22 9,7 C 86 % 1008,6 hPa 0,0 l/m 4,1 km/h (1 Bft) O-NO 67 0 min 0,000 mm 0,0 UV-I 0 W/m 7,5 C 9,7 C 6,4 km/h (2 Bft) 100,00 %
19.05.2016 00:23 9,6 C 85 % 1008,6 hPa 0,0 l/m 2,1 km/h (1 Bft) O-NO 67 0 min 0,000 mm 0,0 UV-I 0 W/m 7,2 C 9,6 C 3,2 km/h (1 Bft) 100,00 %
19.05.2016 00:24 9,7 C 85 % 1008,6 hPa 0,0 l/m 0,3 km/h (0 Bft) O-NO 67 0 min 0,000 mm 0,0 UV-I 0 W/m 7,3 C 9,7 C 1,6 km/h (1 Bft) 100,00 %
19.05.2016 00:25 9,6 C 85 % 1008,5 hPa 0,0 l/m 1,1 km/h (1 Bft) O-NO 67 0 min 0,000 mm 0,0 UV-I 0 W/m 7,2 C 9,6 C 3,2 km/h (1 Bft) 95,83 %
19.05.2016 00:26 9,6 C 85 % 1008,5 hPa 0,0 l/m 1,0 km/h (0 Bft) O-NO 67 0 min 0,000 mm 0,0 UV-I 0 W/m 7,2 C 9,6 C 1,6 km/h (1 Bft) 100,00 %
19.05.2016 00:27 9,6 C 86 % 1008,5 hPa 0,0 l/m 0,2 km/h (0 Bft) O-NO 67 0 min 0,000 mm 0,0 UV-I 0 W/m 7,4 C 9,6 C 1,6 km/h (1 Bft) 96,30 %
19.05.2016 00:28 9,6 C 86 % 1008,5 hPa 0,0 l/m 0,0 km/h (0 Bft) O-NO 67 0 min 0,000 mm 0,0 UV-I 0 W/m 7,4 C 9,6 C 0,0 km/h (0 Bft) 92,31 %
19.05.2016 00:29 9,6 C 86 % 1008,5 hPa 0,0 l/m 0,3 km/h (0 Bft) O-NO 67 0 min 0,000 mm 0,0 UV-I 0 W/m 7,4 C 9,6 C 1,6 km/h (1 Bft) 95,83 %
19.05.2016 00:30 9,7 C 86 % 1008,5 hPa 0,0 l/m 3,2 km/h (1 Bft) O-NO 67 0 min 0,000 mm 0,0 UV-I 0 W/m 7,5 C 9,7 C 4,8 km/h (1 Bft) 100,00 %
19.05.2016 00:31 9,7 C 85 % 1008,6 hPa 0,0 l/m 5,0 km/h (1 Bft) O-NO 59 0 min 0,000 mm 0,0 UV-I 0 W/m 7,3 C 9,7 C 6,4 km/h (2 Bft) 95,83 %
19.05.2016 00:32 9,7 C 85 % 1008,6 hPa 0,0 l/m 5,3 km/h (1 Bft) O-NO 58 0 min 0,000 mm 0,0 UV-I 0 W/m 7,3 C 9,7 C 6,4 km/h (2 Bft) 100,00 %
19.05.2016 00:33 9,6 C 85 % 1008,5 hPa 0,0 l/m 4,1 km/h (1 Bft) O-NO 58 0 min 0,000 mm 0,0 UV-I 0 W/m 7,2 C 9,6 C 6,4 km/h (2 Bft) 91,30 %
19.05.2016 00:34 9,6 C 85 % 1008,5 hPa 0,0 l/m 3,8 km/h (1 Bft) O-NO 58 0 min 0,000 mm 0,0 UV-I 0 W/m 7,2 C 9,6 C 4,8 km/h (1 Bft) 96,15 %
19.05.2016 00:35 9,7 C 85 % 1008,5 hPa 0,0 l/m 2,5 km/h (1 Bft) O-NO 58 0 min 0,000 mm 0,0 UV-I 0 W/m 7,3 C 9,7 C 4,8 km/h (1 Bft) 100,00 %
19.05.2016 00:36 9,7 C 84 % 1008,5 hPa 0,0 l/m 2,2 km/h (1 Bft) O-NO 58 0 min 0,000 mm 0,0 UV-I 0 W/m 7,1 C 9,7 C 3,2 km/h (1 Bft) 95,83 %
19.05.2016 00:37 9,8 C 84 % 1008,5 hPa 0,0 l/m 1,5 km/h (1 Bft) O-NO 58 0 min 0,000 mm 0,0 UV-I 0 W/m 7,2 C 9,8 C 3,2 km/h (1 Bft) 100,00 %
19.05.2016 00:38 9,8 C 84 % 1008,5 hPa 0,0 l/m 1,8 km/h (1 Bft) O-NO 58 0 min 0,000 mm 0,0 UV-I 0 W/m 7,2 C 9,8 C 3,2 km/h (1 Bft) 93,33 %
19.05.2016 00:39 9,9 C 83 % 1008,5 hPa 0,0 l/m 1,8 km/h (1 Bft) O-NO 58 0 min 0,000 mm 0,0 UV-I 0 W/m 7,2 C 9,9 C 3,2 km/h (1 Bft) 100,00 %
19.05.2016 00:40 9,9 C 83 % 1008,5 hPa 0,0 l/m 2,3 km/h (1 Bft) O-NO 58 0 min 0,000 mm 0,0 UV-I 0 W/m 7,2 C 9,9 C 3,2 km/h (1 Bft) 96,30 %
19.05.2016 00:41 9,9 C 83 % 1008,5 hPa 0,0 l/m 2,1 km/h (1 Bft) O-NO 58 0 min 0,000 mm 0,0 UV-I 0 W/m 7,2 C 9,9 C 3,2 km/h (1 Bft) 90,91 %
19.05.2016 00:42 10,0 C 83 % 1008,5 hPa 0,0 l/m 1,1 km/h (1 Bft) O-NO 58 0 min 0,000 mm 0,0 UV-I 0 W/m 7,2 C 10,0 C 1,6 km/h (1 Bft) 96,30 %
19.05.2016 00:43 10,1 C 83 % 1008,5 hPa 0,0 l/m 1,7 km/h (1 Bft) O-NO 58 0 min 0,000 mm 0,0 UV-I 0 W/m 7,3 C 10,1 C 3,2 km/h (1 Bft) 100,00 %
19.05.2016 00:44 10,1 C 83 % 1008,4 hPa 0,0 l/m 0,7 km/h (0 Bft) O-NO 58 0 min 0,000 mm 0,0 UV-I 0 W/m 7,3 C 10,1 C 1,6 km/h (1 Bft) 96,30 %
19.05.2016 00:45 10,0 C 84 % 1008,4 hPa 0,0 l/m 0,0 km/h (0 Bft) O-NO 58 0 min 0,000 mm 0,0 UV-I 0 W/m 7,4 C 10,0 C 0,0 km/h (0 Bft) 96,15 %
19.05.2016 00:46 10,0 C 84 % 1008,4 hPa 0,0 l/m 0,0 km/h (0 Bft) O-NO 58 0 min 0,000 mm 0,0 UV-I 0 W/m 7,4 C 10,0 C 0,0 km/h (0 Bft) 100,00 %
19.05.2016 00:47 9,9 C 85 % 1008,4 hPa 0,0 l/m 1,1 km/h (1 Bft) O-NO 58 0 min 0,000 mm 0,0 UV-I 0 W/m 7,5 C 9,9 C 3,2 km/h (1 Bft) 91,30 %
19.05.2016 00:48 9,8 C 85 % 1008,4 hPa 0,0 l/m 2,1 km/h (1 Bft) O-NO 58 0 min 0,000 mm 0,0 UV-I 0 W/m 7,4 C 9,8 C 3,2 km/h (1 Bft) 100,00 %
19.05.2016 00:49 9,7 C 85 % 1008,3 hPa 0,0 l/m 1,7 km/h (1 Bft) O-NO 58 0 min 0,000 mm 0,0 UV-I 0 W/m 7,3 C 9,7 C 3,2 km/h (1 Bft) 95,65 %
19.05.2016 00:50 9,5 C 86 % 1008,3 hPa 0,0 l/m 1,3 km/h (1 Bft) O-NO 58 0 min 0,000 mm 0,0 UV-I 0 W/m 7,3 C 9,5 C 1,6 km/h (1 Bft) 96,30 %
19.05.2016 00:51 9,4 C 87 % 1008,3 hPa 0,0 l/m 0,0 km/h (0 Bft) O-NO 58 0 min 0,000 mm 0,0 UV-I 0 W/m 7,3 C 9,4 C 0,0 km/h (0 Bft) 91,30 %
19.05.2016 00:52 9,3 C 87 % 1008,3 hPa 0,0 l/m 0,0 km/h (0 Bft) O-NO 58 0 min 0,000 mm 0,0 UV-I 0 W/m 7,2 C 9,3 C 0,0 km/h (0 Bft) 95,83 %
19.05.2016 00:53 9,3 C 87 % 1008,3 hPa 0,0 l/m 0,0 km/h (0 Bft) O-NO 58 0 min 0,000 mm 0,0 UV-I 0 W/m 7,2 C 9,3 C 0,0 km/h (0 Bft) 100,00 %
19.05.2016 00:54 9,3 C 87 % 1008,3 hPa 0,0 l/m 0,0 km/h (0 Bft) O-NO 58 0 min 0,000 mm 0,0 UV-I 0 W/m 7,2 C 9,3 C 0,0 km/h (0 Bft) 93,33 %
19.05.2016 00:55 9,3 C 87 % 1008,3 hPa 0,0 l/m 0,0 km/h (0 Bft) O-NO 58 0 min 0,000 mm 0,0 UV-I 0 W/m 7,2 C 9,3 C 0,0 km/h (0 Bft) 100,00 %
19.05.2016 00:56 9,2 C 87 % 1008,3 hPa 0,0 l/m 0,0 km/h (0 Bft) O-NO 58 0 min 0,000 mm 0,0 UV-I 0 W/m 7,2 C 9,2 C 0,0 km/h (0 Bft) 95,65 %
19.05.2016 00:57 9,2 C 88 % 1008,3 hPa 0,0 l/m 0,0 km/h (0 Bft) O-NO 58 0 min 0,000 mm 0,0 UV-I 0 W/m 7,3 C 9,2 C 0,0 km/h (0 Bft) 100,00 %
19.05.2016 00:58 9,2 C 87 % 1008,3 hPa 0,0 l/m 0,1 km/h (0 Bft) O-NO 58 0 min 0,000 mm 0,0 UV-I 0 W/m 7,2 C 9,2 C 1,6 km/h (1 Bft) 96,15 %
19.05.2016 00:59 9,2 C 88 % 1008,3 hPa 0,0 l/m 0,0 km/h (0 Bft) O-NO 58 0 min 0,000 mm 0,0 UV-I 0 W/m 7,3 C 9,2 C 0,0 km/h (0 Bft) 96,30 %
19.05.2016 01:00 9,2 C 88 % 1008,3 hPa 0,0 l/m 1,1 km/h (1 Bft) O-NO 58 0 min 0,000 mm 0,0 UV-I 0 W/m 7,3 C 9,2 C 1,6 km/h (1 Bft) 95,65 %
19.05.2016 01:01 9,2 C 88 % 1008,3 hPa 0,0 l/m 0,3 km/h (0 Bft) O-NO 58 0 min 0,000 mm 0,0 UV-I 0 W/m 7,3 C 9,2 C 1,6 km/h (1 Bft) 96,30 %
19.05.2016 01:02 9,2 C 88 % 1008,3 hPa 0,0 l/m 0,0 km/h (0 Bft) O-NO 58 0 min 0,000 mm 0,0 UV-I 0 W/m 7,3 C 9,2 C 0,0 km/h (0 Bft) 95,65 %
19.05.2016 01:03 9,3 C 88 % 1008,3 hPa 0,0 l/m 0,0 km/h (0 Bft) O-NO 58 0 min 0,000 mm 0,0 UV-I 0 W/m 7,4 C 9,3 C 0,0 km/h (0 Bft) 100,00 %
19.05.2016 01:04 9,3 C 88 % 1008,3 hPa 0,0 l/m 0,0 km/h (0 Bft) O-NO 58 0 min 0,000 mm 0,0 UV-I 0 W/m 7,4 C 9,3 C 0,0 km/h (0 Bft) 100,00 %
19.05.2016 01:05 9,3 C 87 % 1008,3 hPa 0,0 l/m 0,0 km/h (0 Bft) O-NO 58 0 min 0,000 mm 0,0 UV-I 0 W/m 7,2 C 9,3 C 0,0 km/h (0 Bft) 100,00 %
19.05.2016 01:06 9,3 C 87 % 1008,3 hPa 0,0 l/m 0,0 km/h (0 Bft) O-NO 58 0 min 0,000 mm 0,0 UV-I 0 W/m 7,2 C 9,3 C 0,0 km/h (0 Bft) 100,00 %
19.05.2016 01:07 9,4 C 87 % 1008,3 hPa 0,0 l/m 0,0 km/h (0 Bft) O-NO 58 0 min 0,000 mm 0,0 UV-I 0 W/m 7,3 C 9,4 C 0,0 km/h (0 Bft) 100,00 %
19.05.2016 01:08 9,4 C 87 % 1008,3 hPa 0,0 l/m 0,2 km/h (0 Bft) O-NO 58 0 min 0,000 mm 0,0 UV-I 0 W/m 7,3 C 9,4 C 1,6 km/h (1 Bft) 96,15 %
19.05.2016 01:09 9,4 C 87 % 1008,2 hPa 0,0 l/m 1,3 km/h (1 Bft) O-NO 58 0 min 0,000 mm 0,0 UV-I 0 W/m 7,3 C 9,4 C 3,2 km/h (1 Bft) 100,00 %
19.05.2016 01:10 9,4 C 87 % 1008,2 hPa 0,0 l/m 0,5 km/h (0 Bft) O-NO 58 0 min 0,000 mm 0,0 UV-I 0 W/m 7,3 C 9,4 C 1,6 km/h (1 Bft) 95,65 %
19.05.2016 01:11 9,4 C 86 % 1008,2 hPa 0,0 l/m 0,0 km/h (0 Bft) O-NO 58 0 min 0,000 mm 0,0 UV-I 0 W/m 7,2 C 9,4 C 0,0 km/h (0 Bft) 100,00 %
19.05.2016 01:12 9,4 C 87 % 1008,2 hPa 0,0 l/m 0,0 km/h (0 Bft) O-NO 58 0 min 0,000 mm 0,0 UV-I 0 W/m 7,3 C 9,4 C 0,0 km/h (0 Bft) 100,00 %
19.05.2016 01:13 9,4 C 86 % 1008,2 hPa 0,0 l/m 0,1 km/h (0 Bft) O-NO 58 0 min 0,000 mm 0,0 UV-I 0 W/m 7,2 C 9,4 C 1,6 km/h (1 Bft) 100,00 %
19.05.2016 01:14 9,5 C 87 % 1008,2 hPa 0,0 l/m 0,0 km/h (0 Bft) O-NO 58 0 min 0,000 mm 0,0 UV-I 0 W/m 7,4 C 9,5 C 0,0 km/h (0 Bft) 100,00 %
19.05.2016 01:15 9,4 C 87 % 1008,2 hPa 0,0 l/m 0,0 km/h (0 Bft) O-NO 58 0 min 0,000 mm 0,0 UV-I 0 W/m 7,3 C 9,4 C 0,0 km/h (0 Bft) 100,00 %
19.05.2016 01:16 9,4 C 86 % 1008,2 hPa 0,0 l/m 0,0 km/h (0 Bft) O-NO 58 0 min 0,000 mm 0,0 UV-I 0 W/m 7,2 C 9,4 C 0,0 km/h (0 Bft) 100,00 %
19.05.2016 01:17 9,5 C 87 % 1008,1 hPa 0,0 l/m 0,0 km/h (0 Bft) O-NO 58 0 min 0,000 mm 0,0 UV-I 0 W/m 7,4 C 9,5 C 0,0 km/h (0 Bft) 100,00 %
19.05.2016 01:18 9,5 C 87 % 1008,1 hPa 0,0 l/m 0,0 km/h (0 Bft) O-NO 58 0 min 0,000 mm 0,0 UV-I 0 W/m 7,4 C 9,5 C 0,0 km/h (0 Bft) 95,83 %
19.05.2016 01:19 9,5 C 87 % 1008,2 hPa 0,0 l/m 0,1 km/h (0 Bft) O-NO 58 0 min 0,000 mm 0,0 UV-I 0 W/m 7,4 C 9,5 C 1,6 km/h (1 Bft) 100,00 %
19.05.2016 01:20 9,4 C 87 % 1008,2 hPa 0,0 l/m 0,1 km/h (0 Bft) O-NO 58 0 min 0,000 mm 0,0 UV-I 0 W/m 7,3 C 9,4 C 1,6 km/h (1 Bft) 100,00 %
19.05.2016 01:21 9,4 C 87 % 1008,1 hPa 0,0 l/m 0,2 km/h (0 Bft) O-NO 58 0 min 0,000 mm 0,0 UV-I 0 W/m 7,3 C 9,4 C 1,6 km/h (1 Bft) 100,00 %
19.05.2016 01:22 9,4 C 87 % 1008,1 hPa 0,0 l/m 0,3 km/h (0 Bft) O-NO 58 0 min 0,000 mm 0,0 UV-I 0 W/m 7,3 C 9,4 C 1,6 km/h (1 Bft) 100,00 %
19.05.2016 01:23 9,4 C 87 % 1008,1 hPa 0,0 l/m 0,0 km/h (0 Bft) O-NO 58 0 min 0,000 mm 0,0 UV-I 0 W/m 7,3 C 9,4 C 0,0 km/h (0 Bft) 100,00 %
19.05.2016 01:24 9,4 C 87 % 1008,1 hPa 0,0 l/m 0,9 km/h (0 Bft) O-NO 58 0 min 0,000 mm 0,0 UV-I 0 W/m 7,3 C 9,4 C 1,6 km/h (1 Bft) 100,00 %
19.05.2016 01:25 9,3 C 87 % 1008,1 hPa 0,0 l/m 0,2 km/h (0 Bft) O-NO 58 0 min 0,000 mm 0,0 UV-I 0 W/m 7,2 C 9,3 C 1,6 km/h (1 Bft) 100,00 %
19.05.2016 01:26 9,3 C 87 % 1008,0 hPa 0,0 l/m 0,0 km/h (0 Bft) O-NO 58 0 min 0,000 mm 0,0 UV-I 0 W/m 7,2 C 9,3 C 0,0 km/h (0 Bft) 100,00 %
19.05.2016 01:27 9,2 C 87 % 1008,0 hPa 0,0 l/m 0,0 km/h (0 Bft) O-NO 58 0 min 0,000 mm 0,0 UV-I 0 W/m 7,2 C 9,2 C 0,0 km/h (0 Bft) 100,00 %
19.05.2016 01:28 9,2 C 88 % 1008,0 hPa 0,0 l/m 0,0 km/h (0 Bft) O-NO 58 0 min 0,000 mm 0,0 UV-I 0 W/m 7,3 C 9,2 C 0,0 km/h (0 Bft) 100,00 %
19.05.2016 01:29 9,2 C 88 % 1008,0 hPa 0,0 l/m 0,0 km/h (0 Bft) O-NO 58 0 min 0,000 mm 0,0 UV-I 0 W/m 7,3 C 9,2 C 0,0 km/h (0 Bft) 100,00 %
19.05.2016 01:30 9,2 C 88 % 1008,0 hPa 0,0 l/m 0,0 km/h (0 Bft) O-NO 58 0 min 0,000 mm 0,0 UV-I 0 W/m 7,3 C 9,2 C 0,0 km/h (0 Bft) 100,00 %
19.05.2016 01:31 9,2 C 88 % 1008,0 hPa 0,0 l/m 0,0 km/h (0 Bft) O-NO 58 0 min 0,000 mm 0,0 UV-I 0 W/m 7,3 C 9,2 C 0,0 km/h (0 Bft) 96,55 %
19.05.2016 01:32 9,2 C 88 % 1008,0 hPa 0,0 l/m 0,0 km/h (0 Bft) O-NO 58 0 min 0,000 mm 0,0 UV-I 0 W/m 7,3 C 9,2 C 0,0 km/h (0 Bft) 100,00 %
19.05.2016 01:33 9,2 C 88 % 1008,0 hPa 0,0 l/m 0,0 km/h (0 Bft) O-NO 58 0 min 0,000 mm 0,0 UV-I 0 W/m 7,3 C 9,2 C 0,0 km/h (0 Bft) 100,00 %
19.05.2016 01:34 9,2 C 88 % 1008,0 hPa 0,0 l/m 0,0 km/h (0 Bft) O-NO 58 0 min 0,000 mm 0,0 UV-I 0 W/m 7,3 C 9,2 C 0,0 km/h (0 Bft) 100,00 %
19.05.2016 01:35 9,2 C 88 % 1008,0 hPa 0,0 l/m 0,0 km/h (0 Bft) O-NO 58 0 min 0,000 mm 0,0 UV-I 0 W/m 7,3 C 9,2 C 0,0 km/h (0 Bft) 100,00 %
19.05.2016 01:36 9,1 C 88 % 1008,0 hPa 0,0 l/m 0,7 km/h (0 Bft) O-NO 58 0 min 0,000 mm 0,0 UV-I 0 W/m 7,2 C 9,1 C 1,6 km/h (1 Bft) 100,00 %
19.05.2016 01:37 9,2 C 87 % 1008,0 hPa 0,0 l/m 1,4 km/h (1 Bft) O-NO 58 0 min 0,000 mm 0,0 UV-I 0 W/m 7,2 C 9,2 C 3,2 km/h (1 Bft) 100,00 %
19.05.2016 01:38 9,1 C 87 % 1007,9 hPa 0,0 l/m 0,2 km/h (0 Bft) O-NO 58 0 min 0,000 mm 0,0 UV-I 0 W/m 7,1 C 9,1 C 1,6 km/h (1 Bft) 100,00 %
19.05.2016 01:39 8,9 C 88 % 1007,9 hPa 0,0 l/m 0,0 km/h (0 Bft) O-NO 58 0 min 0,000 mm 0,0 UV-I 0 W/m 7,0 C 8,9 C 0,0 km/h (0 Bft) 100,00 %
19.05.2016 01:40 8,8 C 88 % 1007,9 hPa 0,0 l/m 0,0 km/h (0 Bft) O-NO 58 0 min 0,000 mm 0,0 UV-I 0 W/m 6,9 C 8,8 C 0,0 km/h (0 Bft) 100,00 %
19.05.2016 01:41 8,7 C 88 % 1007,9 hPa 0,0 l/m 0,1 km/h (0 Bft) O-NO 58 0 min 0,000 mm 0,0 UV-I 0 W/m 6,8 C 8,7 C 1,6 km/h (1 Bft) 100,00 %
19.05.2016 01:42 8,5 C 88 % 1007,9 hPa 0,0 l/m 0,3 km/h (0 Bft) O-NO 58 0 min 0,000 mm 0,0 UV-I 0 W/m 6,6 C 8,5 C 1,6 km/h (1 Bft) 100,00 %
19.05.2016 01:43 8,4 C 89 % 1007,9 hPa 0,0 l/m 0,5 km/h (0 Bft) O-NO 57 0 min 0,000 mm 0,0 UV-I 0 W/m 6,7 C 8,4 C 1,6 km/h (1 Bft) 100,00 %
19.05.2016 01:44 8,4 C 89 % 1007,9 hPa 0,0 l/m 1,0 km/h (0 Bft) NO 53 0 min 0,000 mm 0,0 UV-I 0 W/m 6,7 C 8,4 C 1,6 km/h (1 Bft) 100,00 %
19.05.2016 01:45 8,4 C 90 % 1007,9 hPa 0,0 l/m 1,6 km/h (1 Bft) NO 52 0 min 0,000 mm 0,0 UV-I 0 W/m 6,9 C 8,4 C 3,2 km/h (1 Bft) 98,27 %
19.05.2016 01:46 8,4 C 90 % 1007,9 hPa 0,0 l/m 2,2 km/h (1 Bft) NO 52 0 min 0,000 mm 0,0 UV-I 0 W/m 6,9 C 8,4 C 3,2 km/h (1 Bft) 97,56 %
19.05.2016 01:47 8,5 C 90 % 1007,9 hPa 0,0 l/m 3,8 km/h (1 Bft) NO 52 0 min 0,000 mm 0,0 UV-I 0 W/m 7,0 C 8,5 C 4,8 km/h (1 Bft) 100,00 %
19.05.2016 01:48 8,6 C 90 % 1007,9 hPa 0,0 l/m 4,8 km/h (1 Bft) NO 52 0 min 0,000 mm 0,0 UV-I 0 W/m 7,1 C 8,6 C 6,4 km/h (2 Bft) 100,00 %
19.05.2016 01:49 8,7 C 90 % 1007,9 hPa 0,0 l/m 4,6 km/h (1 Bft) NO 52 0 min 0,000 mm 0,0 UV-I 0 W/m 7,2 C 8,7 C 6,4 km/h (2 Bft) 95,83 %
19.05.2016 01:50 8,8 C 89 % 1007,9 hPa 0,0 l/m 4,4 km/h (1 Bft) NO 52 0 min 0,000 mm 0,0 UV-I 0 W/m 7,1 C 8,8 C 4,8 km/h (1 Bft) 100,00 %
19.05.2016 01:51 8,8 C 89 % 1007,9 hPa 0,0 l/m 4,4 km/h (1 Bft) NO 52 0 min 0,000 mm 0,0 UV-I 0 W/m 7,1 C 8,8 C 6,4 km/h (2 Bft) 95,83 %
19.05.2016 01:52 8,8 C 89 % 1007,9 hPa 0,0 l/m 3,6 km/h (1 Bft) NO 52 0 min 0,000 mm 0,0 UV-I 0 W/m 7,1 C 8,8 C 4,8 km/h (1 Bft) 96,15 %
19.05.2016 01:53 8,9 C 89 % 1007,9 hPa 0,0 l/m 3,6 km/h (1 Bft) NO 52 0 min 0,000 mm 0,0 UV-I 0 W/m 7,2 C 8,9 C 4,8 km/h (1 Bft) 95,83 %
19.05.2016 01:54 8,9 C 89 % 1007,9 hPa 0,0 l/m 3,2 km/h (1 Bft) NO 52 0 min 0,000 mm 0,0 UV-I 0 W/m 7,2 C 8,9 C 4,8 km/h (1 Bft) 100,00 %
19.05.2016 01:55 8,9 C 89 % 1007,9 hPa 0,0 l/m 3,0 km/h (1 Bft) NO 52 0 min 0,000 mm 0,0 UV-I 0 W/m 7,2 C 8,9 C 3,2 km/h (1 Bft) 100,00 %
19.05.2016 01:56 8,9 C 89 % 1007,9 hPa 0,0 l/m 2,4 km/h (1 Bft) NO 52 0 min 0,000 mm 0,0 UV-I 0 W/m 7,2 C 8,9 C 3,2 km/h (1 Bft) 96,30 %
19.05.2016 01:57 8,9 C 89 % 1007,8 hPa 0,0 l/m 2,6 km/h (1 Bft) NO 52 0 min 0,000 mm 0,0 UV-I 0 W/m 7,2 C 8,9 C 3,2 km/h (1 Bft) 100,00 %
19.05.2016 01:58 9,0 C 88 % 1007,8 hPa 0,0 l/m 1,5 km/h (1 Bft) NO 52 0 min 0,000 mm 0,0 UV-I 0 W/m 7,1 C 9,0 C 3,2 km/h (1 Bft) 100,00 %
19.05.2016 01:59 9,0 C 88 % 1007,8 hPa 0,0 l/m 1,8 km/h (1 Bft) NO 52 0 min 0,000 mm 0,0 UV-I 0 W/m 7,1 C 9,0 C 3,2 km/h (1 Bft) 100,00 %
19.05.2016 02:00 9,1 C 88 % 1007,8 hPa 0,0 l/m 1,5 km/h (1 Bft) NO 52 0 min 0,000 mm 0,0 UV-I 0 W/m 7,2 C 9,1 C 1,6 km/h (1 Bft) 100,00 %
19.05.2016 02:01 9,1 C 88 % 1007,8 hPa 0,0 l/m 1,3 km/h (1 Bft) NO 52 0 min 0,000 mm 0,0 UV-I 0 W/m 7,2 C 9,1 C 3,2 km/h (1 Bft) 100,00 %
19.05.2016 02:02 9,1 C 88 % 1007,8 hPa 0,0 l/m 1,0 km/h (0 Bft) NO 52 0 min 0,000 mm 0,0 UV-I 0 W/m 7,2 C 9,1 C 1,6 km/h (1 Bft) 100,00 %
19.05.2016 02:03 9,1 C 88 % 1007,8 hPa 0,0 l/m 1,5 km/h (1 Bft) NO 51 0 min 0,000 mm 0,0 UV-I 0 W/m 7,2 C 9,1 C 3,2 km/h (1 Bft) 96,15 %
19.05.2016 02:04 9,1 C 88 % 1007,8 hPa 0,0 l/m 0,8 km/h (0 Bft) NO 52 0 min 0,000 mm 0,0 UV-I 0 W/m 7,2 C 9,1 C 1,6 km/h (1 Bft) 100,00 %
19.05.2016 02:05 9,1 C 88 % 1007,8 hPa 0,0 l/m 0,4 km/h (0 Bft) NO 52 0 min 0,000 mm 0,0 UV-I 0 W/m 7,2 C 9,1 C 1,6 km/h (1 Bft) 96,15 %
19.05.2016 02:06 9,2 C 88 % 1007,8 hPa 0,0 l/m 0,0 km/h (0 Bft) NO 51 0 min 0,000 mm 0,0 UV-I 0 W/m 7,3 C 9,2 C 0,0 km/h (0 Bft) 100,00 %
19.05.2016 02:07 9,2 C 88 % 1007,8 hPa 0,0 l/m 0,1 km/h (0 Bft) NO 52 0 min 0,000 mm 0,0 UV-I 0 W/m 7,3 C 9,2 C 1,6 km/h (1 Bft) 100,00 %
19.05.2016 02:08 9,2 C 88 % 1007,8 hPa 0,0 l/m 0,0 km/h (0 Bft) NO 52 0 min 0,000 mm 0,0 UV-I 0 W/m 7,3 C 9,2 C 0,0 km/h (0 Bft) 100,00 %
19.05.2016 02:09 9,2 C 88 % 1007,8 hPa 0,0 l/m 0,0 km/h (0 Bft) NO 52 0 min 0,000 mm 0,0 UV-I 0 W/m 7,3 C 9,2 C 0,0 km/h (0 Bft) 100,00 %
19.05.2016 02:10 9,2 C 88 % 1007,8 hPa 0,0 l/m 0,0 km/h (0 Bft) NO 52 0 min 0,000 mm 0,0 UV-I 0 W/m 7,3 C 9,2 C 0,0 km/h (0 Bft) 100,00 %
19.05.2016 02:11 9,1 C 88 % 1007,9 hPa 0,0 l/m 0,0 km/h (0 Bft) NO 52 0 min 0,000 mm 0,0 UV-I 0 W/m 7,2 C 9,1 C 0,0 km/h (0 Bft) 91,67 %
19.05.2016 02:12 9,1 C 88 % 1007,9 hPa 0,0 l/m 0,0 km/h (0 Bft) NO 52 0 min 0,000 mm 0,0 UV-I 0 W/m 7,2 C 9,1 C 0,0 km/h (0 Bft) 100,00 %
19.05.2016 02:13 9,1 C 88 % 1007,9 hPa 0,0 l/m 0,0 km/h (0 Bft) NO 52 0 min 0,000 mm 0,0 UV-I 0 W/m 7,2 C 9,1 C 0,0 km/h (0 Bft) 100,00 %
19.05.2016 02:14 9,1 C 88 % 1007,9 hPa 0,0 l/m 0,0 km/h (0 Bft) NO 52 0 min 0,000 mm 0,0 UV-I 0 W/m 7,2 C 9,1 C 0,0 km/h (0 Bft) 100,00 %
19.05.2016 02:15 8,9 C 88 % 1007,9 hPa 0,0 l/m 0,0 km/h (0 Bft) NO 52 0 min 0,000 mm 0,0 UV-I 0 W/m 7,0 C 8,9 C 0,0 km/h (0 Bft) 100,00 %
19.05.2016 02:16 8,9 C 88 % 1007,8 hPa 0,0 l/m 0,0 km/h (0 Bft) NO 52 0 min 0,000 mm 0,0 UV-I 0 W/m 7,0 C 8,9 C 0,0 km/h (0 Bft) 100,00 %
19.05.2016 02:17 8,9 C 89 % 1007,9 hPa 0,0 l/m 0,1 km/h (0 Bft) NO 52 0 min 0,000 mm 0,0 UV-I 0 W/m 7,2 C 8,9 C 1,6 km/h (1 Bft) 100,00 %
19.05.2016 02:18 8,8 C 89 % 1007,9 hPa 0,0 l/m 0,0 km/h (0 Bft) NO 52 0 min 0,000 mm 0,0 UV-I 0 W/m 7,1 C 8,8 C 0,0 km/h (0 Bft) 100,00 %
19.05.2016 02:19 8,8 C 89 % 1007,9 hPa 0,0 l/m 0,0 km/h (0 Bft) NO 52 0 min 0,000 mm 0,0 UV-I 0 W/m 7,1 C 8,8 C 0,0 km/h (0 Bft) 100,00 %
19.05.2016 02:20 8,7 C 89 % 1007,8 hPa 0,0 l/m 0,0 km/h (0 Bft) NO 52 0 min 0,000 mm 0,0 UV-I 0 W/m 7,0 C 8,7 C 0,0 km/h (0 Bft) 100,00 %
19.05.2016 02:21 8,7 C 89 % 1007,8 hPa 0,0 l/m 0,0 km/h (0 Bft) NO 52 0 min 0,000 mm 0,0 UV-I 0 W/m 7,0 C 8,7 C 0,0 km/h (0 Bft) 100,00 %
19.05.2016 02:22 8,6 C 89 % 1007,8 hPa 0,0 l/m 0,0 km/h (0 Bft) NO 52 0 min 0,000 mm 0,0 UV-I 0 W/m 6,9 C 8,6 C 0,0 km/h (0 Bft) 100,00 %
19.05.2016 02:23 8,6 C 89 % 1007,7 hPa 0,0 l/m 0,0 km/h (0 Bft) NO 52 0 min 0,000 mm 0,0 UV-I 0 W/m 6,9 C 8,6 C 0,0 km/h (0 Bft) 100,00 %
19.05.2016 02:24 8,6 C 90 % 1007,7 hPa 0,0 l/m 0,2 km/h (0 Bft) NO 52 0 min 0,000 mm 0,0 UV-I 0 W/m 7,1 C 8,6 C 1,6 km/h (1 Bft) 100,00 %
19.05.2016 02:25 8,6 C 90 % 1007,7 hPa 0,0 l/m 0,5 km/h (0 Bft) NO 52 0 min 0,000 mm 0,0 UV-I 0 W/m 7,1 C 8,6 C 1,6 km/h (1 Bft) 100,00 %
19.05.2016 02:26 8,6 C 90 % 1007,7 hPa 0,0 l/m 1,4 km/h (1 Bft) NO 52 0 min 0,000 mm 0,0 UV-I 0 W/m 7,1 C 8,6 C 3,2 km/h (1 Bft) 100,00 %
19.05.2016 02:27 8,6 C 90 % 1007,7 hPa 0,0 l/m 2,3 km/h (1 Bft) NO 52 0 min 0,000 mm 0,0 UV-I 0 W/m 7,1 C 8,6 C 3,2 km/h (1 Bft) 96,30 %
19.05.2016 02:28 8,6 C 90 % 1007,7 hPa 0,0 l/m 2,5 km/h (1 Bft) NO 52 0 min 0,000 mm 0,0 UV-I 0 W/m 7,1 C 8,6 C 3,2 km/h (1 Bft) 100,00 %
19.05.2016 02:29 8,6 C 90 % 1007,7 hPa 0,0 l/m 2,4 km/h (1 Bft) NO 52 0 min 0,000 mm 0,0 UV-I 0 W/m 7,1 C 8,6 C 3,2 km/h (1 Bft) 100,00 %
19.05.2016 02:30 8,5 C 90 % 1007,7 hPa 0,0 l/m 2,1 km/h (1 Bft) NO 52 0 min 0,000 mm 0,0 UV-I 0 W/m 7,0 C 8,5 C 3,2 km/h (1 Bft) 100,00 %
19.05.2016 02:31 8,6 C 90 % 1007,7 hPa 0,0 l/m 1,7 km/h (1 Bft) NO 52 0 min 0,000 mm 0,0 UV-I 0 W/m 7,1 C 8,6 C 3,2 km/h (1 Bft) 100,00 %
19.05.2016 02:32 8,6 C 90 % 1007,7 hPa 0,0 l/m 1,9 km/h (1 Bft) NO 52 0 min 0,000 mm 0,0 UV-I 0 W/m 7,1 C 8,6 C 3,2 km/h (1 Bft) 100,00 %
19.05.2016 02:33 8,6 C 90 % 1007,7 hPa 0,0 l/m 1,8 km/h (1 Bft) NO 52 0 min 0,000 mm 0,0 UV-I 0 W/m 7,1 C 8,6 C 3,2 km/h (1 Bft) 96,55 %
19.05.2016 02:34 8,6 C 90 % 1007,7 hPa 0,0 l/m 1,8 km/h (1 Bft) NO 52 0 min 0,000 mm 0,0 UV-I 0 W/m 7,1 C 8,6 C 3,2 km/h (1 Bft) 83,33 %
19.05.2016 02:35 8,6 C 90 % 1007,7 hPa 0,0 l/m 2,0 km/h (1 Bft) NO 52 0 min 0,000 mm 0,0 UV-I 0 W/m 7,1 C 8,6 C 3,2 km/h (1 Bft) 96,15 %
19.05.2016 02:36 8,7 C 89 % 1007,6 hPa 0,0 l/m 2,1 km/h (1 Bft) NO 52 0 min 0,000 mm 0,0 UV-I 0 W/m 7,0 C 8,7 C 3,2 km/h (1 Bft) 96,30 %
19.05.2016 02:37 8,7 C 89 % 1007,6 hPa 0,0 l/m 1,8 km/h (1 Bft) NO 52 0 min 0,000 mm 0,0 UV-I 0 W/m 7,0 C 8,7 C 3,2 km/h (1 Bft) 100,00 %
19.05.2016 02:38 8,7 C 89 % 1007,6 hPa 0,0 l/m 1,9 km/h (1 Bft) NO 52 0 min 0,000 mm 0,0 UV-I 0 W/m 7,0 C 8,7 C 3,2 km/h (1 Bft) 96,30 %
19.05.2016 02:39 8,7 C 89 % 1007,6 hPa 0,0 l/m 2,7 km/h (1 Bft) NO 52 0 min 0,000 mm 0,0 UV-I 0 W/m 7,0 C 8,7 C 3,2 km/h (1 Bft) 100,00 %
19.05.2016 02:40 8,7 C 89 % 1007,6 hPa 0,0 l/m 2,3 km/h (1 Bft) NO 52 0 min 0,000 mm 0,0 UV-I 0 W/m 7,0 C 8,7 C 3,2 km/h (1 Bft) 96,30 %
19.05.2016 02:41 8,7 C 89 % 1007,6 hPa 0,0 l/m 3,1 km/h (1 Bft) NO 52 0 min 0,000 mm 0,0 UV-I 0 W/m 7,0 C 8,7 C 3,2 km/h (1 Bft) 100,00 %
19.05.2016 02:42 8,8 C 89 % 1007,6 hPa 0,0 l/m 3,0 km/h (1 Bft) NO 52 0 min 0,000 mm 0,0 UV-I 0 W/m 7,1 C 8,8 C 3,2 km/h (1 Bft) 95,83 %
19.05.2016 02:43 8,8 C 88 % 1007,5 hPa 0,0 l/m 1,7 km/h (1 Bft) NO 52 0 min 0,000 mm 0,0 UV-I 0 W/m 6,9 C 8,8 C 3,2 km/h (1 Bft) 95,65 %
19.05.2016 02:44 8,8 C 88 % 1007,5 hPa 0,0 l/m 1,8 km/h (1 Bft) NO 52 0 min 0,000 mm 0,0 UV-I 0 W/m 6,9 C 8,8 C 3,2 km/h (1 Bft) 95,83 %
19.05.2016 02:45 8,8 C 88 % 1007,6 hPa 0,0 l/m 1,9 km/h (1 Bft) NO 52 0 min 0,000 mm 0,0 UV-I 0 W/m 6,9 C 8,8 C 3,2 km/h (1 Bft) 95,65 %
19.05.2016 02:46 8,9 C 88 % 1007,6 hPa 0,0 l/m 2,2 km/h (1 Bft) NO 52 0 min 0,000 mm 0,0 UV-I 0 W/m 7,0 C 8,9 C 3,2 km/h (1 Bft) 100,00 %
19.05.2016 02:47 8,9 C 88 % 1007,5 hPa 0,0 l/m 2,3 km/h (1 Bft) NO 52 0 min 0,000 mm 0,0 UV-I 0 W/m 7,0 C 8,9 C 3,2 km/h (1 Bft) 95,65 %
19.05.2016 02:48 9,0 C 87 % 1007,6 hPa 0,0 l/m 3,6 km/h (1 Bft) O-NO 76 0 min 0,000 mm 0,0 UV-I 0 W/m 7,0 C 9,0 C 4,8 km/h (1 Bft) 100,00 %
19.05.2016 02:49 9,0 C 87 % 1007,5 hPa 0,0 l/m 5,5 km/h (1 Bft) O 80 0 min 0,000 mm 0,0 UV-I 0 W/m 7,0 C 9,0 C 6,4 km/h (2 Bft) 91,30 %
19.05.2016 02:50 9,0 C 87 % 1007,5 hPa 0,0 l/m 4,5 km/h (1 Bft) O-NO 77 0 min 0,000 mm 0,0 UV-I 0 W/m 7,0 C 9,0 C 6,4 km/h (2 Bft) 96,30 %
19.05.2016 02:51 9,1 C 87 % 1007,5 hPa 0,0 l/m 3,9 km/h (1 Bft) O-NO 77 0 min 0,000 mm 0,0 UV-I 0 W/m 7,1 C 9,1 C 8,0 km/h (2 Bft) 100,00 %
19.05.2016 02:52 9,1 C 87 % 1007,5 hPa 0,0 l/m 4,9 km/h (1 Bft) O 84 0 min 0,000 mm 0,0 UV-I 0 W/m 7,1 C 9,1 C 6,4 km/h (2 Bft) 100,00 %
19.05.2016 02:53 9,1 C 87 % 1007,4 hPa 0,0 l/m 4,2 km/h (1 Bft) O-NO 78 0 min 0,000 mm 0,0 UV-I 0 W/m 7,1 C 9,1 C 6,4 km/h (2 Bft) 95,83 %
19.05.2016 02:54 9,1 C 87 % 1007,4 hPa 0,0 l/m 4,1 km/h (1 Bft) O-NO 78 0 min 0,000 mm 0,0 UV-I 0 W/m 7,1 C 9,1 C 4,8 km/h (1 Bft) 96,15 %
19.05.2016 02:55 9,1 C 87 % 1007,4 hPa 0,0 l/m 4,2 km/h (1 Bft) O-NO 78 0 min 0,000 mm 0,0 UV-I 0 W/m 7,1 C 9,1 C 4,8 km/h (1 Bft) 100,00 %
19.05.2016 02:56 9,2 C 86 % 1007,4 hPa 0,0 l/m 2,8 km/h (1 Bft) O-NO 78 0 min 0,000 mm 0,0 UV-I 0 W/m 7,0 C 9,2 C 4,8 km/h (1 Bft) 96,15 %
19.05.2016 02:57 9,2 C 86 % 1007,4 hPa 0,0 l/m 3,0 km/h (1 Bft) O-NO 78 0 min 0,000 mm 0,0 UV-I 0 W/m 7,0 C 9,2 C 4,8 km/h (1 Bft) 100,00 %
19.05.2016 02:58 9,2 C 86 % 1007,4 hPa 0,0 l/m 2,9 km/h (1 Bft) O-NO 78 0 min 0,000 mm 0,0 UV-I 0 W/m 7,0 C 9,2 C 4,8 km/h (1 Bft) 95,65 %
19.05.2016 02:59 9,2 C 86 % 1007,4 hPa 0,0 l/m 2,7 km/h (1 Bft) O-NO 78 0 min 0,000 mm 0,0 UV-I 0 W/m 7,0 C 9,2 C 4,8 km/h (1 Bft) 100,00 %
19.05.2016 03:00 9,2 C 86 % 1007,4 hPa 0,0 l/m 3,2 km/h (1 Bft) O-NO 78 0 min 0,000 mm 0,0 UV-I 0 W/m 7,0 C 9,2 C 4,8 km/h (1 Bft) 95,65 %
19.05.2016 03:01 9,2 C 86 % 1007,4 hPa 0,0 l/m 4,8 km/h (1 Bft) O-NO 71 0 min 0,000 mm 0,0 UV-I 0 W/m 7,0 C 9,2 C 6,4 km/h (2 Bft) 100,00 %
19.05.2016 03:02 9,2 C 86 % 1007,4 hPa 0,0 l/m 3,2 km/h (1 Bft) O-NO 71 0 min 0,000 mm 0,0 UV-I 0 W/m 7,0 C 9,2 C 4,8 km/h (1 Bft) 95,65 %
19.05.2016 03:03 9,2 C 86 % 1007,4 hPa 0,0 l/m 2,5 km/h (1 Bft) O-NO 75 0 min 0,000 mm 0,0 UV-I 0 W/m 7,0 C 9,2 C 4,8 km/h (1 Bft) 95,83 %
19.05.2016 03:04 9,2 C 86 % 1007,4 hPa 0,0 l/m 4,2 km/h (1 Bft) O 81 0 min 0,000 mm 0,0 UV-I 0 W/m 7,0 C 9,2 C 6,4 km/h (2 Bft) 100,00 %
19.05.2016 03:05 9,2 C 86 % 1007,4 hPa 0,0 l/m 2,3 km/h (1 Bft) O 81 0 min 0,000 mm 0,0 UV-I 0 W/m 7,0 C 9,2 C 3,2 km/h (1 Bft) 96,30 %
19.05.2016 03:06 9,1 C 86 % 1007,4 hPa 0,0 l/m 1,0 km/h (0 Bft) O 81 0 min 0,000 mm 0,0 UV-I 0 W/m 6,9 C 9,1 C 1,6 km/h (1 Bft) 100,00 %
19.05.2016 03:07 8,9 C 86 % 1007,4 hPa 0,0 l/m 0,8 km/h (0 Bft) O 81 0 min 0,000 mm 0,0 UV-I 0 W/m 6,7 C 8,9 C 3,2 km/h (1 Bft) 96,15 %
19.05.2016 03:08 8,8 C 87 % 1007,4 hPa 0,0 l/m 1,1 km/h (1 Bft) O 81 0 min 0,000 mm 0,0 UV-I 0 W/m 6,8 C 8,8 C 3,2 km/h (1 Bft) 100,00 %
19.05.2016 03:09 8,7 C 87 % 1007,5 hPa 0,0 l/m 0,0 km/h (0 Bft) O 81 0 min 0,000 mm 0,0 UV-I 0 W/m 6,7 C 8,7 C 0,0 km/h (0 Bft) 100,00 %
19.05.2016 03:10 8,6 C 87 % 1007,5 hPa 0,0 l/m 0,0 km/h (0 Bft) O 81 0 min 0,000 mm 0,0 UV-I 0 W/m 6,6 C 8,6 C 0,0 km/h (0 Bft) 100,00 %
19.05.2016 03:11 8,5 C 87 % 1007,5 hPa 0,0 l/m 0,0 km/h (0 Bft) O 81 0 min 0,000 mm 0,0 UV-I 0 W/m 6,5 C 8,5 C 0,0 km/h (0 Bft) 100,00 %
19.05.2016 03:12 8,4 C 88 % 1007,4 hPa 0,0 l/m 0,0 km/h (0 Bft) O 81 0 min 0,000 mm 0,0 UV-I 0 W/m 6,5 C 8,4 C 0,0 km/h (0 Bft) 100,00 %
19.05.2016 03:13 8,3 C 88 % 1007,5 hPa 0,0 l/m 1,1 km/h (1 Bft) O 81 0 min 0,000 mm 0,0 UV-I 0 W/m 6,4 C 8,3 C 1,6 km/h (1 Bft) 100,00 %
19.05.2016 03:14 8,2 C 89 % 1007,5 hPa 0,0 l/m 0,4 km/h (0 Bft) O 81 0 min 0,000 mm 0,0 UV-I 0 W/m 6,5 C 8,2 C 1,6 km/h (1 Bft) 95,83 %
19.05.2016 03:15 8,2 C 89 % 1007,4 hPa 0,0 l/m 1,0 km/h (0 Bft) O 81 0 min 0,000 mm 0,0 UV-I 0 W/m 6,5 C 8,2 C 1,6 km/h (1 Bft) 100,00 %
19.05.2016 03:16 8,1 C 89 % 1007,4 hPa 0,0 l/m 0,6 km/h (0 Bft) O 81 0 min 0,000 mm 0,0 UV-I 0 W/m 6,4 C 8,1 C 1,6 km/h (1 Bft) 96,30 %
19.05.2016 03:17 8,1 C 90 % 1007,4 hPa 0,0 l/m 0,0 km/h (0 Bft) O 81 0 min 0,000 mm 0,0 UV-I 0 W/m 6,6 C 8,1 C 0,0 km/h (0 Bft) 92,86 %
19.05.2016 03:18 8,1 C 90 % 1007,4 hPa 0,0 l/m 0,0 km/h (0 Bft) O 81 0 min 0,000 mm 0,0 UV-I 0 W/m 6,6 C 8,1 C 0,0 km/h (0 Bft) 100,00 %
19.05.2016 03:19 8,1 C 90 % 1007,4 hPa 0,0 l/m 0,0 km/h (0 Bft) O 81 0 min 0,000 mm 0,0 UV-I 0 W/m 6,6 C 8,1 C 0,0 km/h (0 Bft) 100,00 %
19.05.2016 03:20 8,1 C 90 % 1007,4 hPa 0,0 l/m 0,0 km/h (0 Bft) O 81 0 min 0,000 mm 0,0 UV-I 0 W/m 6,6 C 8,1 C 0,0 km/h (0 Bft) 100,00 %
19.05.2016 03:21 8,2 C 90 % 1007,4 hPa 0,0 l/m 0,0 km/h (0 Bft) O 81 0 min 0,000 mm 0,0 UV-I 0 W/m 6,7 C 8,2 C 0,0 km/h (0 Bft) 95,65 %
19.05.2016 03:22 8,1 C 90 % 1007,3 hPa 0,0 l/m 0,0 km/h (0 Bft) O 81 0 min 0,000 mm 0,0 UV-I 0 W/m 6,6 C 8,1 C 0,0 km/h (0 Bft) 96,30 %
19.05.2016 03:23 8,1 C 89 % 1007,3 hPa 0,0 l/m 0,0 km/h (0 Bft) O 81 0 min 0,000 mm 0,0 UV-I 0 W/m 6,4 C 8,1 C 0,0 km/h (0 Bft) 100,00 %
19.05.2016 03:24 8,0 C 89 % 1007,3 hPa 0,0 l/m 0,0 km/h (0 Bft) O 81 0 min 0,000 mm 0,0 UV-I 0 W/m 6,3 C 8,0 C 0,0 km/h (0 Bft) 100,00 %
19.05.2016 03:25 8,0 C 89 % 1007,3 hPa 0,0 l/m 0,0 km/h (0 Bft) O 81 0 min 0,000 mm 0,0 UV-I 0 W/m 6,3 C 8,0 C 0,0 km/h (0 Bft) 95,65 %
19.05.2016 03:26 7,9 C 90 % 1007,3 hPa 0,0 l/m 0,0 km/h (0 Bft) O 81 0 min 0,000 mm 0,0 UV-I 0 W/m 6,4 C 7,9 C 0,0 km/h (0 Bft) 100,00 %
19.05.2016 03:27 7,8 C 90 % 1007,2 hPa 0,0 l/m 0,1 km/h (0 Bft) O 81 0 min 0,000 mm 0,0 UV-I 0 W/m 6,3 C 7,8 C 1,6 km/h (1 Bft) 100,00 %
19.05.2016 03:28 7,8 C 90 % 1007,2 hPa 0,0 l/m 0,0 km/h (0 Bft) O 81 0 min 0,000 mm 0,0 UV-I 0 W/m 6,3 C 7,8 C 0,0 km/h (0 Bft) 100,00 %
19.05.2016 03:29 7,8 C 90 % 1007,2 hPa 0,0 l/m 0,6 km/h (0 Bft) O 81 0 min 0,000 mm 0,0 UV-I 0 W/m 6,3 C 7,8 C 3,2 km/h (1 Bft) 100,00 %
19.05.2016 03:30 7,7 C 90 % 1007,2 hPa 0,0 l/m 1,5 km/h (1 Bft) O 81 0 min 0,000 mm 0,0 UV-I 0 W/m 6,2 C 7,7 C 1,6 km/h (1 Bft) 100,00 %
19.05.2016 03:31 7,7 C 91 % 1007,2 hPa 0,0 l/m 1,9 km/h (1 Bft) O 81 0 min 0,000 mm 0,0 UV-I 0 W/m 6,3 C 7,7 C 3,2 km/h (1 Bft) 100,00 %
19.05.2016 03:32 7,7 C 91 % 1007,2 hPa 0,0 l/m 1,0 km/h (0 Bft) O 81 0 min 0,000 mm 0,0 UV-I 0 W/m 6,3 C 7,7 C 1,6 km/h (1 Bft) 100,00 %
19.05.2016 03:33 7,8 C 91 % 1007,2 hPa 0,0 l/m 1,3 km/h (1 Bft) O 81 0 min 0,000 mm 0,0 UV-I 0 W/m 6,4 C 7,8 C 1,6 km/h (1 Bft) 100,00 %
19.05.2016 03:34 7,8 C 91 % 1007,2 hPa 0,0 l/m 1,2 km/h (1 Bft) O 81 0 min 0,000 mm 0,0 UV-I 0 W/m 6,4 C 7,8 C 1,6 km/h (1 Bft) 95,65 %
19.05.2016 03:35 7,8 C 91 % 1007,2 hPa 0,0 l/m 1,0 km/h (0 Bft) O 81 0 min 0,000 mm 0,0 UV-I 0 W/m 6,4 C 7,8 C 1,6 km/h (1 Bft) 100,00 %
19.05.2016 03:36 7,8 C 90 % 1007,2 hPa 0,0 l/m 1,3 km/h (1 Bft) O 81 0 min 0,000 mm 0,0 UV-I 0 W/m 6,3 C 7,8 C 1,6 km/h (1 Bft) 100,00 %
19.05.2016 03:37 7,8 C 91 % 1007,2 hPa 0,0 l/m 1,8 km/h (1 Bft) O 81 0 min 0,000 mm 0,0 UV-I 0 W/m 6,4 C 7,8 C 3,2 km/h (1 Bft) 100,00 %
19.05.2016 03:38 7,8 C 91 % 1007,2 hPa 0,0 l/m 2,0 km/h (1 Bft) O 81 0 min 0,000 mm 0,0 UV-I 0 W/m 6,4 C 7,8 C 3,2 km/h (1 Bft) 100,00 %
19.05.2016 03:39 7,8 C 91 % 1007,2 hPa 0,0 l/m 1,5 km/h (1 Bft) O 81 0 min 0,000 mm 0,0 UV-I 0 W/m 6,4 C 7,8 C 1,6 km/h (1 Bft) 100,00 %
19.05.2016 03:40 7,7 C 91 % 1007,2 hPa 0,0 l/m 2,2 km/h (1 Bft) O 81 0 min 0,000 mm 0,0 UV-I 0 W/m 6,3 C 7,7 C 3,2 km/h (1 Bft) 100,00 %
19.05.2016 03:41 7,7 C 91 % 1007,1 hPa 0,0 l/m 2,6 km/h (1 Bft) O 81 0 min 0,000 mm 0,0 UV-I 0 W/m 6,3 C 7,7 C 3,2 km/h (1 Bft) 100,00 %
19.05.2016 03:42 7,7 C 91 % 1007,0 hPa 0,0 l/m 3,4 km/h (1 Bft) O 81 0 min 0,000 mm 0,0 UV-I 0 W/m 6,3 C 7,7 C 4,8 km/h (1 Bft) 100,00 %
19.05.2016 03:43 7,6 C 91 % 1007,1 hPa 0,0 l/m 3,0 km/h (1 Bft) O 81 0 min 0,000 mm 0,0 UV-I 0 W/m 6,2 C 7,6 C 4,8 km/h (1 Bft) 100,00 %
19.05.2016 03:44 7,6 C 92 % 1007,1 hPa 0,0 l/m 2,3 km/h (1 Bft) O 81 0 min 0,000 mm 0,0 UV-I 0 W/m 6,4 C 7,6 C 3,2 km/h (1 Bft) 100,00 %
19.05.2016 03:45 7,6 C 92 % 1007,1 hPa 0,0 l/m 1,9 km/h (1 Bft) O 81 0 min 0,000 mm 0,0 UV-I 0 W/m 6,4 C 7,6 C 3,2 km/h (1 Bft) 95,83 %
19.05.2016 03:46 7,6 C 92 % 1007,1 hPa 0,0 l/m 1,5 km/h (1 Bft) O 81 0 min 0,000 mm 0,0 UV-I 0 W/m 6,4 C 7,6 C 1,6 km/h (1 Bft) 100,00 %
19.05.2016 03:47 7,6 C 92 % 1007,1 hPa 0,0 l/m 1,3 km/h (1 Bft) O 81 0 min 0,000 mm 0,0 UV-I 0 W/m 6,4 C 7,6 C 1,6 km/h (1 Bft) 100,00 %
19.05.2016 03:48 7,6 C 91 % 1007,1 hPa 0,0 l/m 1,2 km/h (1 Bft) O 81 0 min 0,000 mm 0,0 UV-I 0 W/m 6,2 C 7,6 C 1,6 km/h (1 Bft) 100,00 %
19.05.2016 03:49 7,6 C 91 % 1007,1 hPa 0,0 l/m 0,3 km/h (0 Bft) O 81 0 min 0,000 mm 0,0 UV-I 0 W/m 6,2 C 7,6 C 1,6 km/h (1 Bft) 100,00 %
19.05.2016 03:50 7,6 C 91 % 1007,1 hPa 0,0 l/m 0,0 km/h (0 Bft) O 81 0 min 0,000 mm 0,0 UV-I 0 W/m 6,2 C 7,6 C 0,0 km/h (0 Bft) 100,00 %
19.05.2016 03:51 7,6 C 91 % 1007,1 hPa 0,0 l/m 0,0 km/h (0 Bft) O 81 0 min 0,000 mm 0,0 UV-I 0 W/m 6,2 C 7,6 C 0,0 km/h (0 Bft) 100,00 %
19.05.2016 03:52 7,6 C 91 % 1007,1 hPa 0,0 l/m 0,0 km/h (0 Bft) O 81 0 min 0,000 mm 0,0 UV-I 0 W/m 6,2 C 7,6 C 0,0 km/h (0 Bft) 100,00 %
19.05.2016 03:53 7,6 C 91 % 1007,1 hPa 0,0 l/m 0,0 km/h (0 Bft) O 81 0 min 0,000 mm 0,0 UV-I 0 W/m 6,2 C 7,6 C 0,0 km/h (0 Bft) 100,00 %
19.05.2016 03:54 7,6 C 91 % 1007,1 hPa 0,0 l/m 0,2 km/h (0 Bft) O 81 0 min 0,000 mm 0,0 UV-I 0 W/m 6,2 C 7,6 C 1,6 km/h (1 Bft) 100,00 %
19.05.2016 03:55 7,6 C 91 % 1007,1 hPa 0,0 l/m 0,0 km/h (0 Bft) O 81 0 min 0,000 mm 0,0 UV-I 0 W/m 6,2 C 7,6 C 0,0 km/h (0 Bft) 100,00 %
19.05.2016 03:56 7,6 C 91 % 1007,1 hPa 0,0 l/m 0,0 km/h (0 Bft) O 81 0 min 0,000 mm 0,0 UV-I 0 W/m 6,2 C 7,6 C 0,0 km/h (0 Bft) 100,00 %
19.05.2016 03:57 7,6 C 91 % 1007,1 hPa 0,0 l/m 0,0 km/h (0 Bft) O 81 0 min 0,000 mm 0,0 UV-I 0 W/m 6,2 C 7,6 C 0,0 km/h (0 Bft) 100,00 %
19.05.2016 03:58 7,6 C 91 % 1007,1 hPa 0,0 l/m 0,0 km/h (0 Bft) O 81 0 min 0,000 mm 0,0 UV-I 0 W/m 6,2 C 7,6 C 0,0 km/h (0 Bft) 100,00 %
19.05.2016 03:59 7,6 C 91 % 1007,1 hPa 0,0 l/m 0,0 km/h (0 Bft) O 81 0 min 0,000 mm 0,0 UV-I 0 W/m 6,2 C 7,6 C 0,0 km/h (0 Bft) 100,00 %
19.05.2016 04:00 7,5 C 91 % 1007,1 hPa 0,0 l/m 0,0 km/h (0 Bft) O 81 0 min 0,000 mm 0,0 UV-I 0 W/m 6,1 C 7,5 C 0,0 km/h (0 Bft) 100,00 %
19.05.2016 04:02 7,5 C 91 % 1007,0 hPa 0,0 l/m 0,0 km/h (0 Bft) O 81 0 min 0,000 mm 0,0 UV-I 0 W/m 6,1 C 7,5 C 0,0 km/h (0 Bft) 100,00 %
19.05.2016 04:03 7,5 C 91 % 1007,1 hPa 0,0 l/m 0,0 km/h (0 Bft) O 81 0 min 0,000 mm 0,0 UV-I 0 W/m 6,1 C 7,5 C 0,0 km/h (0 Bft) 100,00 %
19.05.2016 04:04 7,5 C 91 % 1007,0 hPa 0,0 l/m 0,0 km/h (0 Bft) O 81 0 min 0,000 mm 0,0 UV-I 0 W/m 6,1 C 7,5 C 0,0 km/h (0 Bft) 100,00 %
19.05.2016 04:05 7,5 C 91 % 1007,0 hPa 0,0 l/m 0,0 km/h (0 Bft) O 81 0 min 0,000 mm 0,0 UV-I 0 W/m 6,1 C 7,5 C 0,0 km/h (0 Bft) 100,00 %
19.05.2016 04:06 7,4 C 90 % 1007,0 hPa 0,0 l/m 0,0 km/h (0 Bft) O 81 0 min 0,000 mm 0,0 UV-I 0 W/m 5,9 C 7,4 C 0,0 km/h (0 Bft) 100,00 %
19.05.2016 04:07 7,4 C 90 % 1007,0 hPa 0,0 l/m 0,6 km/h (0 Bft) O 81 0 min 0,000 mm 0,0 UV-I 0 W/m 5,9 C 7,4 C 1,6 km/h (1 Bft) 100,00 %
19.05.2016 04:08 7,3 C 91 % 1007,0 hPa 0,0 l/m 1,9 km/h (1 Bft) O 81 0 min 0,000 mm 0,0 UV-I 0 W/m 5,9 C 7,3 C 3,2 km/h (1 Bft) 96,55 %
19.05.2016 04:09 7,2 C 91 % 1006,9 hPa 0,0 l/m 1,8 km/h (1 Bft) O 81 0 min 0,000 mm 0,0 UV-I 0 W/m 5,8 C 7,2 C 3,2 km/h (1 Bft) 100,00 %
19.05.2016 04:10 7,2 C 91 % 1006,9 hPa 0,0 l/m 1,9 km/h (1 Bft) O 81 0 min 0,000 mm 0,0 UV-I 0 W/m 5,8 C 7,2 C 3,2 km/h (1 Bft) 100,00 %
19.05.2016 04:11 7,2 C 91 % 1006,9 hPa 0,0 l/m 2,1 km/h (1 Bft) O 81 0 min 0,000 mm 0,0 UV-I 0 W/m 5,8 C 7,2 C 3,2 km/h (1 Bft) 100,00 %
19.05.2016 04:12 7,1 C 92 % 1006,9 hPa 0,0 l/m 2,2 km/h (1 Bft) O 81 0 min 0,000 mm 0,0 UV-I 0 W/m 5,9 C 7,1 C 3,2 km/h (1 Bft) 100,00 %
19.05.2016 04:13 7,1 C 92 % 1007,0 hPa 0,0 l/m 3,1 km/h (1 Bft) O 81 0 min 0,000 mm 0,0 UV-I 0 W/m 5,9 C 7,1 C 4,8 km/h (1 Bft) 91,67 %
19.05.2016 04:14 7,1 C 92 % 1006,9 hPa 0,0 l/m 2,9 km/h (1 Bft) O 81 0 min 0,000 mm 0,0 UV-I 0 W/m 5,9 C 7,1 C 3,2 km/h (1 Bft) 100,00 %
19.05.2016 04:15 7,1 C 92 % 1006,9 hPa 0,0 l/m 2,5 km/h (1 Bft) O 81 0 min 0,000 mm 0,0 UV-I 0 W/m 5,9 C 7,1 C 4,8 km/h (1 Bft) 100,00 %
19.05.2016 04:16 7,1 C 92 % 1006,9 hPa 0,0 l/m 3,0 km/h (1 Bft) O 81 0 min 0,000 mm 0,0 UV-I 0 W/m 5,9 C 7,1 C 4,8 km/h (1 Bft) 100,00 %
19.05.2016 04:17 7,1 C 92 % 1006,9 hPa 0,0 l/m 2,9 km/h (1 Bft) O 81 0 min 0,000 mm 0,0 UV-I 0 W/m 5,9 C 7,1 C 3,2 km/h (1 Bft) 100,00 %
19.05.2016 04:18 7,1 C 92 % 1006,8 hPa 0,0 l/m 1,3 km/h (1 Bft) O 81 0 min 0,000 mm 0,0 UV-I 0 W/m 5,9 C 7,1 C 1,6 km/h (1 Bft) 100,00 %
19.05.2016 04:19 7,1 C 91 % 1006,8 hPa 0,0 l/m 3,0 km/h (1 Bft) O 81 0 min 0,000 mm 0,0 UV-I 0 W/m 5,7 C 7,1 C 4,8 km/h (1 Bft) 100,00 %
19.05.2016 04:20 7,1 C 91 % 1006,8 hPa 0,0 l/m 3,4 km/h (1 Bft) O 81 0 min 0,000 mm 0,0 UV-I 0 W/m 5,7 C 7,1 C 4,8 km/h (1 Bft) 95,65 %
19.05.2016 04:21 7,2 C 91 % 1006,8 hPa 0,0 l/m 3,0 km/h (1 Bft) O 81 0 min 0,000 mm 0,0 UV-I 0 W/m 5,8 C 7,2 C 4,8 km/h (1 Bft) 100,00 %
19.05.2016 04:22 7,3 C 92 % 1006,8 hPa 0,0 l/m 3,6 km/h (1 Bft) O 81 0 min 0,000 mm 0,0 UV-I 0 W/m 6,1 C 7,3 C 4,8 km/h (1 Bft) 100,00 %
19.05.2016 04:23 7,4 C 91 % 1006,8 hPa 0,0 l/m 2,9 km/h (1 Bft) O 81 0 min 0,000 mm 0,0 UV-I 0 W/m 6,0 C 7,4 C 3,2 km/h (1 Bft) 100,00 %
19.05.2016 04:24 7,6 C 91 % 1006,8 hPa 0,0 l/m 2,8 km/h (1 Bft) O 81 0 min 0,000 mm 0,0 UV-I 0 W/m 6,2 C 7,6 C 4,8 km/h (1 Bft) 100,00 %
19.05.2016 04:25 7,7 C 90 % 1006,8 hPa 0,0 l/m 3,5 km/h (1 Bft) O-NO 69 0 min 0,000 mm 0,0 UV-I 0 W/m 6,2 C 7,7 C 4,8 km/h (1 Bft) 100,00 %
19.05.2016 04:26 7,8 C 89 % 1006,8 hPa 0,0 l/m 3,1 km/h (1 Bft) O-NO 65 0 min 0,000 mm 0,0 UV-I 0 W/m 6,1 C 7,8 C 4,8 km/h (1 Bft) 100,00 %
19.05.2016 04:27 7,8 C 89 % 1006,8 hPa 0,0 l/m 1,5 km/h (1 Bft) O-NO 65 0 min 0,000 mm 0,0 UV-I 0 W/m 6,1 C 7,8 C 3,2 km/h (1 Bft) 100,00 %
19.05.2016 04:28 7,7 C 88 % 1006,9 hPa 0,0 l/m 1,1 km/h (1 Bft) O-NO 65 0 min 0,000 mm 0,0 UV-I 0 W/m 5,8 C 7,7 C 3,2 km/h (1 Bft) 100,00 %
19.05.2016 04:29 7,6 C 88 % 1006,9 hPa 0,0 l/m 0,3 km/h (0 Bft) O-NO 65 0 min 0,000 mm 0,0 UV-I 0 W/m 5,7 C 7,6 C 1,6 km/h (1 Bft) 100,00 %
19.05.2016 04:30 7,4 C 89 % 1006,9 hPa 0,0 l/m 0,3 km/h (0 Bft) O-NO 65 0 min 0,000 mm 0,0 UV-I 0 W/m 5,7 C 7,4 C 1,6 km/h (1 Bft) 100,00 %
19.05.2016 04:31 7,3 C 90 % 1006,9 hPa 0,0 l/m 0,8 km/h (0 Bft) O-NO 65 0 min 0,000 mm 0,0 UV-I 0 W/m 5,8 C 7,3 C 1,6 km/h (1 Bft) 100,00 %
19.05.2016 04:32 7,3 C 90 % 1006,8 hPa 0,0 l/m 2,8 km/h (1 Bft) O-NO 65 0 min 0,000 mm 0,0 UV-I 0 W/m 5,8 C 7,3 C 3,2 km/h (1 Bft) 100,00 %
19.05.2016 04:33 7,3 C 91 % 1006,9 hPa 0,0 l/m 3,1 km/h (1 Bft) O-NO 65 0 min 0,000 mm 0,0 UV-I 0 W/m 5,9 C 7,3 C 4,8 km/h (1 Bft) 100,00 %
19.05.2016 04:34 7,3 C 91 % 1006,9 hPa 0,0 l/m 2,5 km/h (1 Bft) O-NO 65 0 min 0,000 mm 0,0 UV-I 0 W/m 5,9 C 7,3 C 3,2 km/h (1 Bft) 95,83 %
19.05.2016 04:35 7,3 C 91 % 1006,9 hPa 0,0 l/m 2,7 km/h (1 Bft) O-NO 65 0 min 0,000 mm 0,0 UV-I 0 W/m 5,9 C 7,3 C 3,2 km/h (1 Bft) 100,00 %
19.05.2016 04:36 7,3 C 91 % 1006,9 hPa 0,0 l/m 2,6 km/h (1 Bft) O-NO 65 0 min 0,000 mm 0,0 UV-I 0 W/m 5,9 C 7,3 C 3,2 km/h (1 Bft) 100,00 %
19.05.2016 04:37 7,4 C 91 % 1006,9 hPa 0,0 l/m 2,0 km/h (1 Bft) O-NO 65 0 min 0,000 mm 0,0 UV-I 0 W/m 6,0 C 7,4 C 3,2 km/h (1 Bft) 100,00 %
19.05.2016 04:38 7,5 C 91 % 1006,9 hPa 0,0 l/m 1,9 km/h (1 Bft) O-NO 65 0 min 0,000 mm 0,0 UV-I 0 W/m 6,1 C 7,5 C 3,2 km/h (1 Bft) 100,00 %
19.05.2016 04:39 7,6 C 90 % 1006,9 hPa 0,0 l/m 2,1 km/h (1 Bft) O-NO 65 0 min 0,000 mm 0,0 UV-I 0 W/m 6,1 C 7,6 C 3,2 km/h (1 Bft) 100,00 %
19.05.2016 04:40 7,6 C 90 % 1006,9 hPa 0,0 l/m 1,6 km/h (1 Bft) O-NO 65 0 min 0,000 mm 0,0 UV-I 0 W/m 6,1 C 7,6 C 1,6 km/h (1 Bft) 100,00 %
19.05.2016 04:41 7,6 C 90 % 1006,9 hPa 0,0 l/m 1,8 km/h (1 Bft) O-NO 65 0 min 0,000 mm 0,0 UV-I 0 W/m 6,1 C 7,6 C 3,2 km/h (1 Bft) 100,00 %
19.05.2016 04:42 7,5 C 90 % 1006,9 hPa 0,0 l/m 1,7 km/h (1 Bft) O-NO 65 0 min 0,000 mm 0,0 UV-I 0 W/m 6,0 C 7,5 C 3,2 km/h (1 Bft) 100,00 %
19.05.2016 04:43 7,4 C 90 % 1006,9 hPa 0,0 l/m 1,3 km/h (1 Bft) O-NO 65 0 min 0,000 mm 0,0 UV-I 0 W/m 5,9 C 7,4 C 3,2 km/h (1 Bft) 95,65 %
19.05.2016 04:44 7,3 C 90 % 1006,9 hPa 0,0 l/m 2,7 km/h (1 Bft) O-NO 65 0 min 0,000 mm 0,0 UV-I 0 W/m 5,8 C 7,3 C 3,2 km/h (1 Bft) 91,67 %
19.05.2016 04:45 7,3 C 90 % 1006,9 hPa 0,0 l/m 3,6 km/h (1 Bft) O-NO 65 0 min 0,000 mm 0,0 UV-I 0 W/m 5,8 C 7,3 C 4,8 km/h (1 Bft) 96,15 %
19.05.2016 04:46 7,3 C 91 % 1006,8 hPa 0,0 l/m 4,5 km/h (1 Bft) O-NO 65 0 min 0,000 mm 0,0 UV-I 0 W/m 5,9 C 7,3 C 4,8 km/h (1 Bft) 95,83 %
19.05.2016 04:47 7,3 C 91 % 1006,8 hPa 0,0 l/m 4,4 km/h (1 Bft) O-NO 65 0 min 0,000 mm 0,0 UV-I 0 W/m 5,9 C 7,3 C 4,8 km/h (1 Bft) 95,65 %
19.05.2016 04:48 7,3 C 91 % 1006,8 hPa 0,0 l/m 4,3 km/h (1 Bft) O-NO 65 0 min 0,000 mm 0,0 UV-I 0 W/m 5,9 C 7,3 C 4,8 km/h (1 Bft) 96,30 %
19.05.2016 04:49 7,3 C 91 % 1006,8 hPa 0,0 l/m 4,6 km/h (1 Bft) O-NO 63 0 min 0,000 mm 0,0 UV-I 0 W/m 5,9 C 7,3 C 6,4 km/h (2 Bft) 95,65 %
19.05.2016 04:50 7,3 C 91 % 1006,8 hPa 0,0 l/m 4,1 km/h (1 Bft) O-NO 61 0 min 0,000 mm 0,0 UV-I 0 W/m 5,9 C 7,3 C 4,8 km/h (1 Bft) 100,00 %
19.05.2016 04:51 7,4 C 91 % 1006,8 hPa 0,0 l/m 4,1 km/h (1 Bft) O-NO 61 0 min 0,000 mm 0,0 UV-I 0 W/m 6,0 C 7,4 C 4,8 km/h (1 Bft) 92,31 %
19.05.2016 04:52 7,4 C 91 % 1006,8 hPa 0,0 l/m 4,4 km/h (1 Bft) O-NO 61 0 min 0,000 mm 0,0 UV-I 0 W/m 6,0 C 7,4 C 4,8 km/h (1 Bft) 100,00 %
19.05.2016 04:53 7,5 C 91 % 1006,8 hPa 0,0 l/m 3,8 km/h (1 Bft) O-NO 59 0 min 0,000 mm 0,0 UV-I 0 W/m 6,1 C 7,5 C 6,4 km/h (2 Bft) 95,83 %
19.05.2016 04:54 7,6 C 91 % 1006,8 hPa 0,0 l/m 2,7 km/h (1 Bft) O-NO 59 0 min 0,000 mm 0,0 UV-I 0 W/m 6,2 C 7,6 C 3,2 km/h (1 Bft) 100,00 %
19.05.2016 04:55 7,6 C 90 % 1006,8 hPa 0,0 l/m 2,4 km/h (1 Bft) O-NO 59 0 min 0,000 mm 0,0 UV-I 0 W/m 6,1 C 7,6 C 3,2 km/h (1 Bft) 95,83 %
19.05.2016 04:56 7,6 C 90 % 1006,8 hPa 0,0 l/m 1,7 km/h (1 Bft) O-NO 59 0 min 0,000 mm 0,0 UV-I 0 W/m 6,1 C 7,6 C 3,2 km/h (1 Bft) 96,15 %
19.05.2016 04:57 7,6 C 90 % 1006,8 hPa 0,0 l/m 1,7 km/h (1 Bft) O-NO 59 0 min 0,000 mm 0,0 UV-I 0 W/m 6,1 C 7,6 C 3,2 km/h (1 Bft) 100,00 %
19.05.2016 04:58 7,6 C 90 % 1006,8 hPa 0,0 l/m 0,9 km/h (0 Bft) O-NO 59 0 min 0,000 mm 0,0 UV-I 0 W/m 6,1 C 7,6 C 1,6 km/h (1 Bft) 95,65 %
19.05.2016 04:59 7,6 C 90 % 1006,8 hPa 0,0 l/m 1,4 km/h (1 Bft) O-NO 59 0 min 0,000 mm 0,0 UV-I 0 W/m 6,1 C 7,6 C 3,2 km/h (1 Bft) 100,00 %
19.05.2016 05:00 7,6 C 90 % 1006,8 hPa 0,0 l/m 1,2 km/h (1 Bft) O-NO 59 0 min 0,000 mm 0,0 UV-I 0 W/m 6,1 C 7,6 C 3,2 km/h (1 Bft) 96,15 %
19.05.2016 05:01 7,6 C 90 % 1006,8 hPa 0,0 l/m 1,3 km/h (1 Bft) O-NO 59 0 min 0,000 mm 0,0 UV-I 0 W/m 6,1 C 7,6 C 1,6 km/h (1 Bft) 100,00 %
19.05.2016 05:02 7,5 C 89 % 1006,8 hPa 0,0 l/m 1,1 km/h (1 Bft) O-NO 59 0 min 0,000 mm 0,0 UV-I 0 W/m 5,8 C 7,5 C 1,6 km/h (1 Bft) 96,15 %
19.05.2016 05:03 7,4 C 90 % 1006,8 hPa 0,0 l/m 1,3 km/h (1 Bft) O-NO 59 0 min 0,000 mm 0,0 UV-I 0 W/m 5,9 C 7,4 C 1,6 km/h (1 Bft) 96,30 %
19.05.2016 05:04 7,3 C 90 % 1006,8 hPa 0,0 l/m 1,5 km/h (1 Bft) O-NO 59 0 min 0,000 mm 0,0 UV-I 0 W/m 5,8 C 7,3 C 1,6 km/h (1 Bft) 100,00 %
19.05.2016 05:05 7,3 C 90 % 1006,8 hPa 0,0 l/m 1,5 km/h (1 Bft) O-NO 59 0 min 0,000 mm 0,0 UV-I 0 W/m 5,8 C 7,3 C 1,6 km/h (1 Bft) 93,33 %
19.05.2016 05:06 7,2 C 90 % 1006,8 hPa 0,0 l/m 1,4 km/h (1 Bft) O-NO 59 0 min 0,000 mm 0,0 UV-I 0 W/m 5,7 C 7,2 C 3,2 km/h (1 Bft) 100,00 %
19.05.2016 05:07 7,2 C 90 % 1006,8 hPa 0,0 l/m 2,0 km/h (1 Bft) O-NO 59 0 min 0,000 mm 0,0 UV-I 0 W/m 5,7 C 7,2 C 3,2 km/h (1 Bft) 96,30 %
19.05.2016 05:08 7,2 C 91 % 1006,8 hPa 0,0 l/m 1,5 km/h (1 Bft) O-NO 59 0 min 0,000 mm 0,0 UV-I 0 W/m 5,8 C 7,2 C 1,6 km/h (1 Bft) 100,00 %
19.05.2016 05:09 7,1 C 91 % 1006,8 hPa 0,0 l/m 1,9 km/h (1 Bft) O-NO 59 0 min 0,000 mm 0,0 UV-I 0 W/m 5,7 C 7,1 C 3,2 km/h (1 Bft) 96,30 %
19.05.2016 05:10 7,1 C 91 % 1006,7 hPa 0,0 l/m 2,3 km/h (1 Bft) O-NO 59 0 min 0,000 mm 0,0 UV-I 0 W/m 5,7 C 7,1 C 3,2 km/h (1 Bft) 100,00 %
19.05.2016 05:11 7,1 C 91 % 1006,8 hPa 0,0 l/m 2,7 km/h (1 Bft) O-NO 59 0 min 0,000 mm 0,0 UV-I 0 W/m 5,7 C 7,1 C 3,2 km/h (1 Bft) 95,65 %
19.05.2016 05:12 7,0 C 91 % 1006,7 hPa 0,0 l/m 2,4 km/h (1 Bft) O-NO 59 0 min 0,000 mm 0,0 UV-I 5 W/m 5,6 C 7,0 C 3,2 km/h (1 Bft) 96,67 %
19.05.2016 05:13 7,0 C 91 % 1006,8 hPa 0,0 l/m 2,5 km/h (1 Bft) O-NO 59 0 min 0,000 mm 0,0 UV-I 5 W/m 5,6 C 7,0 C 3,2 km/h (1 Bft) 100,00 %
19.05.2016 05:14 7,0 C 91 % 1006,8 hPa 0,0 l/m 1,5 km/h (1 Bft) O-NO 59 0 min 0,000 mm 0,0 UV-I 5 W/m 5,6 C 7,0 C 1,6 km/h (1 Bft) 95,83 %
19.05.2016 05:15 7,0 C 92 % 1006,8 hPa 0,0 l/m 1,5 km/h (1 Bft) O-NO 59 0 min 0,000 mm 0,0 UV-I 5 W/m 5,8 C 7,0 C 3,2 km/h (1 Bft) 100,00 %
19.05.2016 05:16 7,0 C 92 % 1006,8 hPa 0,0 l/m 2,6 km/h (1 Bft) O-NO 59 0 min 0,000 mm 0,0 UV-I 5 W/m 5,8 C 7,0 C 3,2 km/h (1 Bft) 96,30 %
19.05.2016 05:17 7,1 C 92 % 1006,8 hPa 0,0 l/m 2,2 km/h (1 Bft) O-NO 59 0 min 0,000 mm 0,0 UV-I 5 W/m 5,9 C 7,1 C 3,2 km/h (1 Bft) 100,00 %
19.05.2016 05:18 7,2 C 92 % 1006,8 hPa 0,0 l/m 1,9 km/h (1 Bft) O-NO 59 0 min 0,000 mm 0,0 UV-I 6 W/m 6,0 C 7,2 C 3,2 km/h (1 Bft) 96,30 %
19.05.2016 05:19 7,2 C 92 % 1006,8 hPa 0,0 l/m 2,2 km/h (1 Bft) O-NO 59 0 min 0,000 mm 0,0 UV-I 7 W/m 6,0 C 7,2 C 3,2 km/h (1 Bft) 100,00 %
19.05.2016 05:20 7,3 C 91 % 1006,8 hPa 0,0 l/m 2,1 km/h (1 Bft) O-NO 59 0 min 0,000 mm 0,0 UV-I 8 W/m 5,9 C 7,3 C 3,2 km/h (1 Bft) 92,59 %
19.05.2016 05:21 7,4 C 91 % 1006,8 hPa 0,0 l/m 2,2 km/h (1 Bft) O-NO 59 0 min 0,000 mm 0,0 UV-I 10 W/m 6,0 C 7,4 C 3,2 km/h (1 Bft) 96,15 %
19.05.2016 05:22 7,4 C 90 % 1006,8 hPa 0,0 l/m 1,6 km/h (1 Bft) O-NO 59 0 min 0,000 mm 0,0 UV-I 11 W/m 5,9 C 7,4 C 3,2 km/h (1 Bft) 100,00 %
19.05.2016 05:23 7,4 C 90 % 1006,8 hPa 0,0 l/m 2,1 km/h (1 Bft) O-NO 59 0 min 0,000 mm 0,0 UV-I 12 W/m 5,9 C 7,4 C 3,2 km/h (1 Bft) 100,00 %
19.05.2016 05:24 7,4 C 90 % 1006,8 hPa 0,0 l/m 2,7 km/h (1 Bft) O-NO 59 0 min 0,000 mm 0,0 UV-I 14 W/m 5,9 C 7,4 C 3,2 km/h (1 Bft) 100,00 %
19.05.2016 05:25 7,4 C 90 % 1006,8 hPa 0,0 l/m 1,9 km/h (1 Bft) O-NO 59 0 min 0,000 mm 0,0 UV-I 15 W/m 5,9 C 7,4 C 3,2 km/h (1 Bft) 100,00 %
19.05.2016 05:26 7,4 C 91 % 1006,8 hPa 0,0 l/m 1,5 km/h (1 Bft) O-NO 59 0 min 0,000 mm 0,0 UV-I 16 W/m 6,0 C 7,4 C 3,2 km/h (1 Bft) 100,00 %
19.05.2016 05:27 7,4 C 91 % 1006,8 hPa 0,0 l/m 0,9 km/h (0 Bft) O-NO 59 0 min 0,000 mm 0,0 UV-I 17 W/m 6,0 C 7,4 C 1,6 km/h (1 Bft) 100,00 %
19.05.2016 05:28 7,4 C 90 % 1006,8 hPa 0,0 l/m 0,2 km/h (0 Bft) O-NO 59 0 min 0,000 mm 0,0 UV-I 18 W/m 5,9 C 7,4 C 1,6 km/h (1 Bft) 100,00 %
19.05.2016 05:29 7,3 C 90 % 1006,8 hPa 0,0 l/m 0,0 km/h (0 Bft) O-NO 59 0 min 0,000 mm 0,0 UV-I 19 W/m 5,8 C 7,3 C 0,0 km/h (0 Bft) 100,00 %
19.05.2016 05:30 7,3 C 90 % 1006,8 hPa 0,0 l/m 0,0 km/h (0 Bft) O-NO 59 0 min 0,000 mm 0,0 UV-I 19 W/m 5,8 C 7,3 C 0,0 km/h (0 Bft) 91,30 %
19.05.2016 05:31 7,2 C 90 % 1006,8 hPa 0,0 l/m 0,0 km/h (0 Bft) O-NO 59 1 min 0,000 mm 0,0 UV-I 20 W/m 5,7 C 7,2 C 0,0 km/h (0 Bft) 100,00 %
19.05.2016 05:32 7,2 C 90 % 1006,9 hPa 0,0 l/m 0,0 km/h (0 Bft) O-NO 59 1 min 0,000 mm 0,0 UV-I 21 W/m 5,7 C 7,2 C 0,0 km/h (0 Bft) 100,00 %
19.05.2016 05:33 7,2 C 90 % 1006,9 hPa 0,0 l/m 0,1 km/h (0 Bft) O-NO 59 1 min 0,000 mm 0,0 UV-I 21 W/m 5,7 C 7,2 C 1,6 km/h (1 Bft) 100,00 %
19.05.2016 05:34 7,2 C 91 % 1006,9 hPa 0,0 l/m 0,6 km/h (0 Bft) O-NO 59 1 min 0,000 mm 0,0 UV-I 23 W/m 5,8 C 7,2 C 1,6 km/h (1 Bft) 100,00 %
19.05.2016 05:35 7,1 C 91 % 1006,9 hPa 0,0 l/m 0,6 km/h (0 Bft) O-NO 59 1 min 0,000 mm 0,0 UV-I 23 W/m 5,7 C 7,1 C 1,6 km/h (1 Bft) 100,00 %
19.05.2016 05:36 7,1 C 91 % 1006,9 hPa 0,0 l/m 0,3 km/h (0 Bft) O-NO 59 1 min 0,000 mm 0,0 UV-I 24 W/m 5,7 C 7,1 C 1,6 km/h (1 Bft) 100,00 %
19.05.2016 05:37 7,1 C 91 % 1006,9 hPa 0,0 l/m 0,7 km/h (0 Bft) O-NO 59 1 min 0,000 mm 0,0 UV-I 25 W/m 5,7 C 7,1 C 1,6 km/h (1 Bft) 95,83 %
19.05.2016 05:38 7,1 C 92 % 1006,9 hPa 0,0 l/m 1,4 km/h (1 Bft) O-NO 59 1 min 0,000 mm 0,0 UV-I 25 W/m 5,9 C 7,1 C 1,6 km/h (1 Bft) 100,00 %
19.05.2016 05:39 7,1 C 92 % 1006,8 hPa 0,0 l/m 2,9 km/h (1 Bft) O-NO 59 1 min 0,000 mm 0,0 UV-I 25 W/m 5,9 C 7,1 C 3,2 km/h (1 Bft) 96,30 %
19.05.2016 05:40 7,2 C 92 % 1006,8 hPa 0,0 l/m 2,9 km/h (1 Bft) O-NO 59 1 min 0,000 mm 0,0 UV-I 25 W/m 6,0 C 7,2 C 3,2 km/h (1 Bft) 100,00 %
19.05.2016 05:41 7,2 C 91 % 1006,9 hPa 0,0 l/m 2,3 km/h (1 Bft) O-NO 59 1 min 0,000 mm 0,0 UV-I 26 W/m 5,8 C 7,2 C 3,2 km/h (1 Bft) 100,00 %
19.05.2016 05:42 7,2 C 91 % 1006,8 hPa 0,0 l/m 2,7 km/h (1 Bft) O-NO 59 1 min 0,000 mm 0,0 UV-I 27 W/m 5,8 C 7,2 C 3,2 km/h (1 Bft) 100,00 %
19.05.2016 05:43 7,2 C 91 % 1006,9 hPa 0,0 l/m 2,4 km/h (1 Bft) O-NO 59 1 min 0,000 mm 0,0 UV-I 28 W/m 5,8 C 7,2 C 3,2 km/h (1 Bft) 100,00 %
19.05.2016 05:44 7,2 C 91 % 1006,8 hPa 0,0 l/m 2,7 km/h (1 Bft) O-NO 59 1 min 0,000 mm 0,0 UV-I 29 W/m 5,8 C 7,2 C 4,8 km/h (1 Bft) 100,00 %
19.05.2016 05:45 7,3 C 91 % 1006,8 hPa 0,0 l/m 2,6 km/h (1 Bft) O-NO 59 1 min 0,000 mm 0,0 UV-I 30 W/m 5,9 C 7,3 C 3,2 km/h (1 Bft) 95,83 %
19.05.2016 05:46 7,3 C 91 % 1006,8 hPa 0,0 l/m 3,0 km/h (1 Bft) O-NO 59 1 min 0,000 mm 0,0 UV-I 32 W/m 5,9 C 7,3 C 3,2 km/h (1 Bft) 100,00 %
19.05.2016 05:47 7,4 C 91 % 1006,9 hPa 0,0 l/m 2,6 km/h (1 Bft) O-NO 59 1 min 0,000 mm 0,0 UV-I 33 W/m 6,0 C 7,4 C 3,2 km/h (1 Bft) 100,00 %
19.05.2016 05:48 7,4 C 91 % 1006,8 hPa 0,0 l/m 1,9 km/h (1 Bft) O-NO 59 1 min 0,000 mm 0,0 UV-I 33 W/m 6,0 C 7,4 C 3,2 km/h (1 Bft) 100,00 %
19.05.2016 05:49 7,4 C 91 % 1006,9 hPa 0,0 l/m 1,7 km/h (1 Bft) O-NO 59 1 min 0,000 mm 0,0 UV-I 34 W/m 6,0 C 7,4 C 3,2 km/h (1 Bft) 100,00 %
19.05.2016 05:50 7,3 C 91 % 1006,9 hPa 0,0 l/m 1,1 km/h (1 Bft) O-NO 59 1 min 0,000 mm 0,0 UV-I 35 W/m 5,9 C 7,3 C 1,6 km/h (1 Bft) 100,00 %
19.05.2016 05:51 7,3 C 91 % 1006,9 hPa 0,0 l/m 1,3 km/h (1 Bft) O-NO 59 0 min 0,000 mm 0,0 UV-I 35 W/m 5,9 C 7,3 C 3,2 km/h (1 Bft) 100,00 %
19.05.2016 05:52 7,3 C 91 % 1006,8 hPa 0,0 l/m 0,2 km/h (0 Bft) O-NO 59 0 min 0,000 mm 0,0 UV-I 37 W/m 5,9 C 7,3 C 1,6 km/h (1 Bft) 98,61 %
19.05.2016 05:53 7,3 C 91 % 1006,8 hPa 0,0 l/m 0,2 km/h (0 Bft) O-NO 59 0 min 0,000 mm 0,0 UV-I 37 W/m 5,9 C 7,3 C 1,6 km/h (1 Bft) 100,00 %
19.05.2016 05:54 7,3 C 91 % 1006,8 hPa 0,0 l/m 1,1 km/h (1 Bft) O-NO 59 0 min 0,000 mm 0,0 UV-I 38 W/m 5,9 C 7,3 C 1,6 km/h (1 Bft) 100,00 %
19.05.2016 05:55 7,2 C 91 % 1006,8 hPa 0,0 l/m 0,2 km/h (0 Bft) O-NO 59 0 min 0,000 mm 0,0 UV-I 39 W/m 5,8 C 7,2 C 1,6 km/h (1 Bft) 100,00 %
19.05.2016 05:56 7,2 C 92 % 1006,9 hPa 0,0 l/m 0,0 km/h (0 Bft) O-NO 59 0 min 0,000 mm 0,0 UV-I 40 W/m 6,0 C 7,2 C 0,0 km/h (0 Bft) 100,00 %
19.05.2016 05:57 7,2 C 92 % 1006,8 hPa 0,0 l/m 0,1 km/h (0 Bft) O-NO 59 0 min 0,000 mm 0,0 UV-I 40 W/m 6,0 C 7,2 C 1,6 km/h (1 Bft) 100,00 %
19.05.2016 05:58 7,2 C 92 % 1006,8 hPa 0,0 l/m 0,0 km/h (0 Bft) O-NO 59 0 min 0,000 mm 0,0 UV-I 42 W/m 6,0 C 7,2 C 0,0 km/h (0 Bft) 100,00 %
19.05.2016 05:59 7,2 C 92 % 1006,9 hPa 0,0 l/m 0,3 km/h (0 Bft) O-NO 59 0 min 0,000 mm 0,0 UV-I 43 W/m 6,0 C 7,2 C 1,6 km/h (1 Bft) 100,00 %
19.05.2016 06:00 7,2 C 92 % 1006,9 hPa 0,0 l/m 0,2 km/h (0 Bft) O-NO 59 0 min 0,000 mm 0,0 UV-I 45 W/m 6,0 C 7,2 C 1,6 km/h (1 Bft) 100,00 %
19.05.2016 06:02 7,3 C 92 % 1006,9 hPa 0,0 l/m 2,1 km/h (1 Bft) O-NO 59 0 min 0,000 mm 0,0 UV-I 46 W/m 6,1 C 7,3 C 3,2 km/h (1 Bft) 100,00 %
19.05.2016 06:03 7,4 C 91 % 1006,9 hPa 0,0 l/m 2,1 km/h (1 Bft) O-NO 59 0 min 0,000 mm 0,0 UV-I 49 W/m 6,0 C 7,4 C 3,2 km/h (1 Bft) 96,15 %
19.05.2016 06:04 7,5 C 91 % 1006,9 hPa 0,0 l/m 1,5 km/h (1 Bft) O-NO 59 0 min 0,000 mm 0,0 UV-I 49 W/m 6,1 C 7,5 C 3,2 km/h (1 Bft) 100,00 %
19.05.2016 06:05 7,6 C 91 % 1006,9 hPa 0,0 l/m 0,9 km/h (0 Bft) O-NO 59 0 min 0,000 mm 0,0 UV-I 49 W/m 6,2 C 7,6 C 1,6 km/h (1 Bft) 100,00 %
19.05.2016 06:06 7,7 C 91 % 1006,9 hPa 0,0 l/m 1,3 km/h (1 Bft) O-NO 59 0 min 0,000 mm 0,0 UV-I 51 W/m 6,3 C 7,7 C 3,2 km/h (1 Bft) 100,00 %
19.05.2016 06:07 7,7 C 90 % 1006,9 hPa 0,0 l/m 0,4 km/h (0 Bft) O-NO 59 0 min 0,000 mm 0,0 UV-I 52 W/m 6,2 C 7,7 C 1,6 km/h (1 Bft) 100,00 %
19.05.2016 06:08 7,8 C 90 % 1006,9 hPa 0,0 l/m 1,5 km/h (1 Bft) O-NO 59 0 min 0,000 mm 0,0 UV-I 53 W/m 6,3 C 7,8 C 3,2 km/h (1 Bft) 100,00 %
19.05.2016 06:09 7,9 C 90 % 1006,9 hPa 0,0 l/m 2,1 km/h (1 Bft) O-NO 59 0 min 0,000 mm 0,0 UV-I 54 W/m 6,4 C 7,9 C 4,8 km/h (1 Bft) 93,33 %
19.05.2016 06:10 7,9 C 89 % 1006,9 hPa 0,0 l/m 3,0 km/h (1 Bft) O-NO 59 0 min 0,000 mm 0,0 UV-I 54 W/m 6,2 C 7,9 C 4,8 km/h (1 Bft) 100,00 %
19.05.2016 06:11 8,1 C 89 % 1006,9 hPa 0,0 l/m 3,1 km/h (1 Bft) O-NO 59 0 min 0,000 mm 0,0 UV-I 57 W/m 6,4 C 8,1 C 4,8 km/h (1 Bft) 100,00 %
19.05.2016 06:12 8,1 C 89 % 1006,9 hPa 0,0 l/m 3,4 km/h (1 Bft) O-NO 59 0 min 0,000 mm 0,0 UV-I 58 W/m 6,4 C 8,1 C 4,8 km/h (1 Bft) 100,00 %
19.05.2016 06:13 8,2 C 89 % 1006,9 hPa 0,0 l/m 2,5 km/h (1 Bft) O-NO 59 0 min 0,000 mm 0,0 UV-I 59 W/m 6,5 C 8,2 C 4,8 km/h (1 Bft) 100,00 %
19.05.2016 06:14 8,2 C 88 % 1006,9 hPa 0,0 l/m 2,2 km/h (1 Bft) O-NO 59 0 min 0,000 mm 0,0 UV-I 62 W/m 6,3 C 8,2 C 3,2 km/h (1 Bft) 100,00 %
19.05.2016 06:15 8,3 C 88 % 1006,9 hPa 0,0 l/m 2,5 km/h (1 Bft) O-NO 59 0 min 0,000 mm 0,0 UV-I 63 W/m 6,4 C 8,3 C 3,2 km/h (1 Bft) 100,00 %
19.05.2016 06:16 8,3 C 88 % 1006,9 hPa 0,0 l/m 1,8 km/h (1 Bft) O-NO 59 0 min 0,000 mm 0,0 UV-I 65 W/m 6,4 C 8,3 C 3,2 km/h (1 Bft) 100,00 %
19.05.2016 06:17 8,3 C 88 % 1006,9 hPa 0,0 l/m 1,5 km/h (1 Bft) O-NO 59 0 min 0,000 mm 0,0 UV-I 67 W/m 6,4 C 8,3 C 3,2 km/h (1 Bft) 100,00 %
19.05.2016 06:18 8,3 C 88 % 1006,9 hPa 0,0 l/m 1,5 km/h (1 Bft) O-NO 59 0 min 0,000 mm 0,0 UV-I 68 W/m 6,4 C 8,3 C 3,2 km/h (1 Bft) 100,00 %
19.05.2016 06:19 8,3 C 89 % 1007,0 hPa 0,0 l/m 2,0 km/h (1 Bft) O-NO 59 0 min 0,000 mm 0,0 UV-I 70 W/m 6,6 C 8,3 C 3,2 km/h (1 Bft) 100,00 %
19.05.2016 06:20 8,3 C 89 % 1007,0 hPa 0,0 l/m 1,7 km/h (1 Bft) O-NO 59 0 min 0,000 mm 0,0 UV-I 73 W/m 6,6 C 8,3 C 3,2 km/h (1 Bft) 100,00 %
19.05.2016 06:21 8,3 C 89 % 1007,0 hPa 0,0 l/m 2,2 km/h (1 Bft) O-NO 59 0 min 0,000 mm 0,0 UV-I 76 W/m 6,6 C 8,3 C 3,2 km/h (1 Bft) 100,00 %
19.05.2016 06:22 8,3 C 89 % 1007,0 hPa 0,0 l/m 1,6 km/h (1 Bft) O-NO 59 0 min 0,000 mm 0,0 UV-I 77 W/m 6,6 C 8,3 C 3,2 km/h (1 Bft) 96,15 %
19.05.2016 06:23 8,3 C 89 % 1007,0 hPa 0,0 l/m 1,5 km/h (1 Bft) O-NO 59 0 min 0,000 mm 0,0 UV-I 80 W/m 6,6 C 8,3 C 3,2 km/h (1 Bft) 100,00 %
19.05.2016 06:24 8,3 C 90 % 1007,0 hPa 0,0 l/m 1,5 km/h (1 Bft) O-NO 59 0 min 0,000 mm 0,0 UV-I 82 W/m 6,8 C 8,3 C 1,6 km/h (1 Bft) 100,00 %
19.05.2016 06:25 8,3 C 90 % 1006,9 hPa 0,0 l/m 0,3 km/h (0 Bft) O-NO 59 0 min 0,000 mm 0,0 UV-I 84 W/m 6,8 C 8,3 C 1,6 km/h (1 Bft) 100,00 %
19.05.2016 06:26 8,3 C 90 % 1007,0 hPa 0,0 l/m 0,0 km/h (0 Bft) O-NO 59 0 min 0,000 mm 0,0 UV-I 86 W/m 6,8 C 8,3 C 0,0 km/h (0 Bft) 100,00 %
19.05.2016 06:27 8,3 C 90 % 1007,0 hPa 0,0 l/m 0,0 km/h (0 Bft) O-NO 59 0 min 0,000 mm 0,0 UV-I 88 W/m 6,8 C 8,3 C 0,0 km/h (0 Bft) 100,00 %
19.05.2016 06:28 8,3 C 90 % 1007,0 hPa 0,0 l/m 0,1 km/h (0 Bft) O-NO 59 1 min 0,000 mm 0,0 UV-I 90 W/m 6,8 C 8,3 C 1,6 km/h (1 Bft) 100,00 %
19.05.2016 06:29 8,3 C 90 % 1007,0 hPa 0,0 l/m 0,1 km/h (0 Bft) O-NO 59 0 min 0,000 mm 0,0 UV-I 91 W/m 6,8 C 8,3 C 1,6 km/h (1 Bft) 100,00 %
19.05.2016 06:30 8,3 C 90 % 1007,0 hPa 0,0 l/m 0,0 km/h (0 Bft) O-NO 59 1 min 0,000 mm 0,0 UV-I 93 W/m 6,8 C 8,3 C 0,0 km/h (0 Bft) 95,83 %
19.05.2016 06:31 8,3 C 90 % 1007,0 hPa 0,0 l/m 0,1 km/h (0 Bft) O-NO 59 1 min 0,000 mm 0,0 UV-I 96 W/m 6,8 C 8,3 C 1,6 km/h (1 Bft) 100,00 %
19.05.2016 06:32 8,3 C 91 % 1007,0 hPa 0,0 l/m 1,2 km/h (1 Bft) O-NO 59 1 min 0,000 mm 0,0 UV-I 98 W/m 6,9 C 8,3 C 3,2 km/h (1 Bft) 96,30 %
19.05.2016 06:33 8,4 C 91 % 1007,0 hPa 0,0 l/m 1,3 km/h (1 Bft) O-NO 59 1 min 0,000 mm 0,0 UV-I 100 W/m 7,0 C 8,4 C 3,2 km/h (1 Bft) 100,00 %
19.05.2016 06:34 8,4 C 91 % 1007,0 hPa 0,0 l/m 2,3 km/h (1 Bft) O-NO 59 1 min 0,000 mm 0,0 UV-I 102 W/m 7,0 C 8,4 C 4,8 km/h (1 Bft) 100,00 %
19.05.2016 06:35 8,5 C 91 % 1007,0 hPa 0,0 l/m 2,3 km/h (1 Bft) O-NO 59 1 min 0,000 mm 0,0 UV-I 103 W/m 7,1 C 8,5 C 3,2 km/h (1 Bft) 100,00 %
19.05.2016 06:36 8,6 C 91 % 1007,0 hPa 0,0 l/m 2,5 km/h (1 Bft) O-NO 59 1 min 0,000 mm 0,0 UV-I 105 W/m 7,2 C 8,6 C 3,2 km/h (1 Bft) 100,00 %
19.05.2016 06:37 8,7 C 91 % 1007,0 hPa 0,0 l/m 3,4 km/h (1 Bft) O-NO 59 1 min 0,000 mm 0,0 UV-I 107 W/m 7,3 C 8,7 C 4,8 km/h (1 Bft) 100,00 %
19.05.2016 06:38 8,7 C 91 % 1007,0 hPa 0,0 l/m 2,3 km/h (1 Bft) O-NO 59 1 min 0,000 mm 0,0 UV-I 125 W/m 7,3 C 8,7 C 4,8 km/h (1 Bft) 100,00 %
19.05.2016 06:39 8,8 C 91 % 1007,0 hPa 0,0 l/m 2,8 km/h (1 Bft) O-NO 59 1 min 0,000 mm 0,0 UV-I 149 W/m 7,4 C 8,8 C 4,8 km/h (1 Bft) 100,00 %
19.05.2016 06:40 8,8 C 91 % 1007,0 hPa 0,0 l/m 3,8 km/h (1 Bft) O-NO 59 1 min 0,000 mm 0,0 UV-I 162 W/m 7,4 C 8,8 C 4,8 km/h (1 Bft) 95,83 %
19.05.2016 06:41 8,8 C 90 % 1007,0 hPa 0,0 l/m 3,6 km/h (1 Bft) O-NO 59 1 min 0,000 mm 0,0 UV-I 163 W/m 7,3 C 8,8 C 4,8 km/h (1 Bft) 100,00 %
19.05.2016 06:42 8,9 C 88 % 1007,0 hPa 0,0 l/m 3,3 km/h (1 Bft) O-NO 59 1 min 0,000 mm 0,0 UV-I 163 W/m 7,0 C 8,9 C 4,8 km/h (1 Bft) 100,00 %
19.05.2016 06:43 8,9 C 88 % 1007,0 hPa 0,0 l/m 2,8 km/h (1 Bft) O-NO 59 1 min 0,000 mm 0,0 UV-I 164 W/m 7,0 C 8,9 C 4,8 km/h (1 Bft) 100,00 %
19.05.2016 06:44 8,9 C 88 % 1007,0 hPa 0,0 l/m 3,6 km/h (1 Bft) O-NO 59 1 min 0,000 mm 0,0 UV-I 168 W/m 7,0 C 8,9 C 4,8 km/h (1 Bft) 100,00 %
19.05.2016 06:45 9,0 C 88 % 1007,0 hPa 0,0 l/m 4,6 km/h (1 Bft) NO 55 1 min 0,000 mm 0,0 UV-I 170 W/m 7,1 C 9,0 C 6,4 km/h (2 Bft) 100,00 %
19.05.2016 06:46 9,1 C 88 % 1007,0 hPa 0,0 l/m 3,5 km/h (1 Bft) O-NO 57 1 min 0,000 mm 0,0 UV-I 163 W/m 7,2 C 9,1 C 4,8 km/h (1 Bft) 100,00 %
19.05.2016 06:47 9,1 C 87 % 1007,0 hPa 0,0 l/m 5,1 km/h (1 Bft) NO 53 1 min 0,000 mm 0,0 UV-I 155 W/m 7,1 C 9,1 C 6,4 km/h (2 Bft) 100,00 %
19.05.2016 06:48 9,2 C 87 % 1007,0 hPa 0,0 l/m 4,2 km/h (1 Bft) NO 50 1 min 0,000 mm 0,0 UV-I 148 W/m 7,2 C 9,2 C 6,4 km/h (2 Bft) 100,00 %
19.05.2016 06:49 9,2 C 87 % 1007,0 hPa 0,0 l/m 3,2 km/h (1 Bft) NO 50 1 min 0,000 mm 0,0 UV-I 149 W/m 7,2 C 9,2 C 4,8 km/h (1 Bft) 100,00 %
19.05.2016 06:50 9,2 C 87 % 1007,0 hPa 0,0 l/m 5,2 km/h (1 Bft) O-NO 68 1 min 0,000 mm 0,0 UV-I 164 W/m 7,2 C 9,2 C 8,0 km/h (2 Bft) 100,00 %
19.05.2016 06:51 9,3 C 87 % 1007,0 hPa 0,0 l/m 3,5 km/h (1 Bft) O-NO 67 1 min 0,000 mm 0,0 UV-I 181 W/m 7,2 C 9,3 C 4,8 km/h (1 Bft) 100,00 %
19.05.2016 06:52 9,3 C 86 % 1007,0 hPa 0,0 l/m 4,8 km/h (1 Bft) NO 46 1 min 0,000 mm 0,0 UV-I 176 W/m 7,1 C 9,3 C 6,4 km/h (2 Bft) 100,00 %
19.05.2016 06:53 9,3 C 86 % 1007,1 hPa 0,0 l/m 4,9 km/h (1 Bft) NO 45 1 min 0,000 mm 0,0 UV-I 180 W/m 7,1 C 9,3 C 6,4 km/h (2 Bft) 100,00 %
19.05.2016 06:54 9,4 C 85 % 1007,1 hPa 0,0 l/m 5,2 km/h (1 Bft) NO 56 1 min 0,000 mm 0,0 UV-I 184 W/m 7,0 C 9,4 C 6,4 km/h (2 Bft) 93,33 %
19.05.2016 06:55 9,4 C 85 % 1007,1 hPa 0,0 l/m 4,0 km/h (1 Bft) NO 53 1 min 0,000 mm 0,0 UV-I 184 W/m 7,0 C 9,4 C 6,4 km/h (2 Bft) 100,00 %
19.05.2016 06:56 9,4 C 85 % 1007,1 hPa 0,0 l/m 3,6 km/h (1 Bft) O-NO 70 1 min 0,000 mm 0,0 UV-I 188 W/m 7,0 C 9,4 C 6,4 km/h (2 Bft) 96,55 %
19.05.2016 06:57 9,4 C 85 % 1007,1 hPa 0,0 l/m 5,8 km/h (2 Bft) O-NO 64 1 min 0,000 mm 0,0 UV-I 185 W/m 7,0 C 9,4 C 6,4 km/h (2 Bft) 100,00 %
19.05.2016 06:58 9,4 C 85 % 1007,1 hPa 0,0 l/m 4,8 km/h (1 Bft) O-NO 64 1 min 0,000 mm 0,0 UV-I 184 W/m 7,0 C 9,4 C 6,4 km/h (2 Bft) 100,00 %
19.05.2016 06:59 9,5 C 86 % 1007,1 hPa 0,0 l/m 5,4 km/h (1 Bft) O-NO 63 1 min 0,000 mm 0,0 UV-I 190 W/m 7,3 C 9,5 C 6,4 km/h (2 Bft) 98,94 %
19.05.2016 07:00 9,5 C 85 % 1007,1 hPa 0,0 l/m 3,8 km/h (1 Bft) O-NO 65 1 min 0,051 mm 0,0 UV-I 191 W/m 7,1 C 9,5 C 6,4 km/h (2 Bft) 97,37 %
19.05.2016 07:01 9,6 C 85 % 1007,1 hPa 0,0 l/m 5,6 km/h (1 Bft) O-NO 71 1 min 0,000 mm 0,0 UV-I 186 W/m 7,2 C 9,6 C 8,0 km/h (2 Bft) 100,00 %
19.05.2016 07:02 9,6 C 85 % 1007,2 hPa 0,0 l/m 5,2 km/h (1 Bft) O-NO 67 1 min 0,000 mm 0,0 UV-I 186 W/m 7,2 C 9,6 C 6,4 km/h (2 Bft) 100,00 %
19.05.2016 07:03 9,6 C 85 % 1007,2 hPa 0,0 l/m 4,4 km/h (1 Bft) O-NO 67 1 min 0,000 mm 0,0 UV-I 181 W/m 7,2 C 9,6 C 6,4 km/h (2 Bft) 100,00 %
19.05.2016 07:04 9,6 C 85 % 1007,2 hPa 0,0 l/m 5,8 km/h (2 Bft) O-NO 71 1 min 0,000 mm 0,0 UV-I 174 W/m 7,2 C 9,6 C 8,0 km/h (2 Bft) 100,00 %
19.05.2016 07:05 9,7 C 86 % 1007,2 hPa 0,0 l/m 6,2 km/h (2 Bft) O-NO 67 1 min 0,000 mm 0,0 UV-I 173 W/m 7,5 C 9,7 C 9,7 km/h (2 Bft) 100,00 %
19.05.2016 07:06 9,7 C 84 % 1007,2 hPa 0,0 l/m 6,9 km/h (2 Bft) O-NO 57 1 min 0,000 mm 0,0 UV-I 175 W/m 7,1 C 9,3 C 9,7 km/h (2 Bft) 100,00 %
19.05.2016 07:07 9,7 C 84 % 1007,3 hPa 0,0 l/m 5,3 km/h (1 Bft) NO 49 1 min 0,000 mm 0,0 UV-I 183 W/m 7,1 C 9,7 C 8,0 km/h (2 Bft) 95,83 %
19.05.2016 07:08 9,8 C 84 % 1007,2 hPa 0,0 l/m 6,1 km/h (2 Bft) NO 45 1 min 0,000 mm 0,0 UV-I 189 W/m 7,2 C 9,8 C 8,0 km/h (2 Bft) 96,55 %
19.05.2016 07:09 9,8 C 84 % 1007,3 hPa 0,0 l/m 6,4 km/h (2 Bft) NO 54 1 min 0,000 mm 0,0 UV-I 179 W/m 7,2 C 9,8 C 8,0 km/h (2 Bft) 95,83 %
19.05.2016 07:10 9,8 C 84 % 1007,2 hPa 0,0 l/m 5,0 km/h (1 Bft) O-NO 57 1 min 0,000 mm 0,0 UV-I 179 W/m 7,2 C 9,8 C 6,4 km/h (2 Bft) 95,65 %
19.05.2016 07:11 9,8 C 84 % 1007,3 hPa 0,0 l/m 4,8 km/h (1 Bft) NO 53 1 min 0,000 mm 0,0 UV-I 176 W/m 7,2 C 9,8 C 6,4 km/h (2 Bft) 100,00 %
19.05.2016 07:12 9,8 C 85 % 1007,2 hPa 0,0 l/m 5,6 km/h (1 Bft) NO 56 1 min 0,000 mm 0,0 UV-I 172 W/m 7,4 C 9,8 C 8,0 km/h (2 Bft) 100,00 %
19.05.2016 07:13 9,8 C 85 % 1007,2 hPa 0,0 l/m 4,5 km/h (1 Bft) O-NO 67 1 min 0,000 mm 0,0 UV-I 189 W/m 7,4 C 9,8 C 6,4 km/h (2 Bft) 95,65 %
19.05.2016 07:14 9,8 C 85 % 1007,2 hPa 0,0 l/m 4,3 km/h (1 Bft) O-NO 74 1 min 0,000 mm 0,0 UV-I 192 W/m 7,4 C 9,8 C 4,8 km/h (1 Bft) 95,83 %
19.05.2016 07:15 9,9 C 84 % 1007,2 hPa 0,0 l/m 4,7 km/h (1 Bft) O-NO 69 0 min 0,000 mm 0,0 UV-I 148 W/m 7,3 C 9,9 C 6,4 km/h (2 Bft) 100,00 %
19.05.2016 07:16 9,9 C 84 % 1007,2 hPa 0,0 l/m 5,2 km/h (1 Bft) O-NO 67 0 min 0,000 mm 0,0 UV-I 147 W/m 7,3 C 9,9 C 6,4 km/h (2 Bft) 96,30 %
19.05.2016 07:17 9,9 C 84 % 1007,3 hPa 0,0 l/m 5,2 km/h (1 Bft) O-NO 60 0 min 0,000 mm 0,0 UV-I 151 W/m 7,3 C 9,9 C 6,4 km/h (2 Bft) 100,00 %
19.05.2016 07:18 9,9 C 83 % 1007,3 hPa 0,0 l/m 4,2 km/h (1 Bft) O-NO 64 0 min 0,000 mm 0,0 UV-I 160 W/m 7,2 C 9,9 C 6,4 km/h (2 Bft) 96,30 %
19.05.2016 07:19 9,9 C 84 % 1007,2 hPa 0,0 l/m 5,4 km/h (1 Bft) NO 56 1 min 0,000 mm 0,0 UV-I 170 W/m 7,3 C 9,9 C 6,4 km/h (2 Bft) 100,00 %
19.05.2016 07:20 9,9 C 83 % 1007,3 hPa 0,0 l/m 4,0 km/h (1 Bft) O-NO 76 1 min 0,000 mm 0,0 UV-I 172 W/m 7,2 C 9,9 C 6,4 km/h (2 Bft) 96,30 %
19.05.2016 07:21 9,9 C 84 % 1007,3 hPa 0,0 l/m 4,4 km/h (1 Bft) O-NO 73 1 min 0,000 mm 0,0 UV-I 169 W/m 7,3 C 9,9 C 6,4 km/h (2 Bft) 96,15 %
19.05.2016 07:22 9,9 C 84 % 1007,3 hPa 0,0 l/m 4,4 km/h (1 Bft) O-NO 68 0 min 0,000 mm 0,0 UV-I 168 W/m 7,3 C 9,9 C 6,4 km/h (2 Bft) 100,00 %
19.05.2016 07:23 10,0 C 83 % 1007,3 hPa 0,0 l/m 3,6 km/h (1 Bft) O-NO 68 0 min 0,000 mm 0,0 UV-I 167 W/m 7,2 C 10,0 C 6,4 km/h (2 Bft) 95,65 %
19.05.2016 07:24 10,0 C 84 % 1007,3 hPa 0,0 l/m 2,5 km/h (1 Bft) O-NO 68 0 min 0,000 mm 0,0 UV-I 168 W/m 7,4 C 10,0 C 3,2 km/h (1 Bft) 91,67 %
19.05.2016 07:25 10,0 C 83 % 1007,3 hPa 0,0 l/m 1,9 km/h (1 Bft) O-NO 68 0 min 0,000 mm 0,0 UV-I 173 W/m 7,2 C 10,0 C 3,2 km/h (1 Bft) 95,65 %
19.05.2016 07:26 10,0 C 84 % 1007,3 hPa 0,0 l/m 1,7 km/h (1 Bft) O-NO 68 1 min 0,000 mm 0,0 UV-I 179 W/m 7,4 C 10,0 C 3,2 km/h (1 Bft) 100,00 %
19.05.2016 07:27 10,0 C 84 % 1007,3 hPa 0,0 l/m 2,5 km/h (1 Bft) O-NO 68 1 min 0,000 mm 0,0 UV-I 184 W/m 7,4 C 10,0 C 4,8 km/h (1 Bft) 95,65 %
19.05.2016 07:28 10,1 C 85 % 1007,3 hPa 0,0 l/m 1,8 km/h (1 Bft) O-NO 68 1 min 0,000 mm 0,0 UV-I 184 W/m 7,7 C 10,1 C 3,2 km/h (1 Bft) 100,00 %
19.05.2016 07:29 10,1 C 86 % 1007,3 hPa 0,0 l/m 1,1 km/h (1 Bft) O-NO 68 1 min 0,000 mm 0,0 UV-I 183 W/m 7,9 C 10,1 C 3,2 km/h (1 Bft) 95,83 %
19.05.2016 07:30 10,2 C 85 % 1007,4 hPa 0,0 l/m 3,4 km/h (1 Bft) O-NO 68 1 min 0,000 mm 0,0 UV-I 184 W/m 7,8 C 10,2 C 4,8 km/h (1 Bft) 100,00 %
19.05.2016 07:31 10,2 C 85 % 1007,4 hPa 0,0 l/m 1,1 km/h (1 Bft) O-NO 68 1 min 0,000 mm 0,0 UV-I 186 W/m 7,8 C 10,2 C 3,2 km/h (1 Bft) 96,30 %
19.05.2016 07:32 10,2 C 84 % 1007,4 hPa 0,0 l/m 2,2 km/h (1 Bft) O-NO 68 1 min 0,000 mm 0,0 UV-I 189 W/m 7,6 C 10,2 C 3,2 km/h (1 Bft) 95,65 %
19.05.2016 07:33 10,2 C 85 % 1007,4 hPa 0,0 l/m 2,6 km/h (1 Bft) O-NO 68 1 min 0,000 mm 0,0 UV-I 193 W/m 7,8 C 10,2 C 3,2 km/h (1 Bft) 100,00 %
19.05.2016 07:34 10,2 C 84 % 1007,4 hPa 0,0 l/m 2,3 km/h (1 Bft) O-NO 68 1 min 0,000 mm 0,0 UV-I 197 W/m 7,6 C 10,2 C 3,2 km/h (1 Bft) 96,15 %
19.05.2016 07:35 10,2 C 83 % 1007,5 hPa 0,0 l/m 1,5 km/h (1 Bft) O-NO 68 1 min 0,000 mm 0,0 UV-I 201 W/m 7,4 C 10,2 C 3,2 km/h (1 Bft) 96,30 %
19.05.2016 07:36 10,2 C 84 % 1007,5 hPa 0,0 l/m 2,0 km/h (1 Bft) O-NO 68 1 min 0,000 mm 0,0 UV-I 205 W/m 7,6 C 10,2 C 3,2 km/h (1 Bft) 95,65 %
19.05.2016 07:37 10,2 C 83 % 1007,5 hPa 0,0 l/m 1,3 km/h (1 Bft) O-NO 68 1 min 0,000 mm 0,0 UV-I 209 W/m 7,4 C 10,2 C 3,2 km/h (1 Bft) 100,00 %
19.05.2016 07:38 10,2 C 83 % 1007,5 hPa 0,0 l/m 0,1 km/h (0 Bft) O-NO 68 1 min 0,000 mm 0,0 UV-I 215 W/m 7,4 C 10,2 C 1,6 km/h (1 Bft) 98,70 %
19.05.2016 07:39 10,3 C 84 % 1007,5 hPa 0,0 l/m 0,8 km/h (0 Bft) O-NO 68 1 min 0,000 mm 0,5 UV-I 224 W/m 7,7 C 10,3 C 3,2 km/h (1 Bft) 100,00 %
19.05.2016 07:40 10,3 C 86 % 1007,5 hPa 0,0 l/m 0,6 km/h (0 Bft) O-NO 68 1 min 0,000 mm 0,5 UV-I 232 W/m 8,1 C 10,3 C 3,2 km/h (1 Bft) 100,00 %
19.05.2016 07:41 10,3 C 85 % 1007,5 hPa 0,0 l/m 1,4 km/h (1 Bft) O-NO 68 1 min 0,000 mm 0,5 UV-I 230 W/m 7,9 C 10,3 C 3,2 km/h (1 Bft) 95,83 %
19.05.2016 07:42 10,4 C 85 % 1007,5 hPa 0,0 l/m 2,5 km/h (1 Bft) NO 49 1 min 0,000 mm 0,5 UV-I 214 W/m 8,0 C 10,4 C 4,8 km/h (1 Bft) 100,00 %
19.05.2016 07:43 10,4 C 84 % 1007,5 hPa 0,0 l/m 1,2 km/h (1 Bft) NO 49 1 min 0,000 mm 0,5 UV-I 226 W/m 7,8 C 10,4 C 3,2 km/h (1 Bft) 100,00 %
19.05.2016 07:44 10,4 C 85 % 1007,5 hPa 0,0 l/m 1,2 km/h (1 Bft) NO 49 1 min 0,000 mm 0,5 UV-I 239 W/m 8,0 C 10,4 C 3,2 km/h (1 Bft) 100,00 %
19.05.2016 07:45 10,4 C 84 % 1007,6 hPa 0,0 l/m 0,9 km/h (0 Bft) NO 49 1 min 0,000 mm 0,5 UV-I 250 W/m 7,8 C 10,4 C 1,6 km/h (1 Bft) 91,67 %
19.05.2016 07:46 10,4 C 83 % 1007,6 hPa 0,0 l/m 1,0 km/h (0 Bft) NO 49 1 min 0,000 mm 0,5 UV-I 252 W/m 7,6 C 10,4 C 1,6 km/h (1 Bft) 100,00 %
19.05.2016 07:47 10,4 C 84 % 1007,7 hPa 0,0 l/m 0,2 km/h (0 Bft) NO 49 1 min 0,000 mm 0,5 UV-I 261 W/m 7,8 C 10,4 C 1,6 km/h (1 Bft) 100,00 %
19.05.2016 07:48 10,4 C 83 % 1007,7 hPa 0,0 l/m 0,0 km/h (0 Bft) NO 49 1 min 0,000 mm 0,6 UV-I 272 W/m 7,6 C 10,4 C 0,0 km/h (0 Bft) 100,00 %
19.05.2016 07:49 10,4 C 82 % 1007,7 hPa 0,0 l/m 0,3 km/h (0 Bft) NO 49 1 min 0,000 mm 0,6 UV-I 290 W/m 7,5 C 10,4 C 1,6 km/h (1 Bft) 100,00 %
19.05.2016 07:50 10,5 C 84 % 1007,7 hPa 0,0 l/m 1,9 km/h (1 Bft) NO 49 1 min 0,000 mm 0,6 UV-I 303 W/m 7,9 C 10,5 C 3,2 km/h (1 Bft) 100,00 %
19.05.2016 07:51 10,6 C 83 % 1007,7 hPa 0,0 l/m 0,9 km/h (0 Bft) NO 49 1 min 0,000 mm 0,6 UV-I 307 W/m 7,8 C 10,6 C 3,2 km/h (1 Bft) 100,00 %
19.05.2016 07:52 10,6 C 83 % 1007,7 hPa 0,0 l/m 2,7 km/h (1 Bft) W-NW 302 1 min 0,000 mm 0,6 UV-I 311 W/m 7,8 C 10,6 C 4,8 km/h (1 Bft) 100,00 %
19.05.2016 07:53 10,7 C 82 % 1007,8 hPa 0,0 l/m 3,2 km/h (1 Bft) W-NW 302 1 min 0,000 mm 0,6 UV-I 315 W/m 7,8 C 10,7 C 4,8 km/h (1 Bft) 100,00 %
19.05.2016 07:54 10,6 C 82 % 1007,7 hPa 0,0 l/m 1,7 km/h (1 Bft) W-NW 302 1 min 0,000 mm 0,6 UV-I 316 W/m 7,7 C 10,6 C 3,2 km/h (1 Bft) 100,00 %
19.05.2016 07:55 10,6 C 81 % 1007,7 hPa 0,0 l/m 1,4 km/h (1 Bft) W-NW 302 1 min 0,000 mm 0,6 UV-I 316 W/m 7,5 C 10,6 C 3,2 km/h (1 Bft) 100,00 %
19.05.2016 07:56 10,7 C 82 % 1007,7 hPa 0,0 l/m 0,3 km/h (0 Bft) W-NW 302 1 min 0,000 mm 0,6 UV-I 320 W/m 7,8 C 10,7 C 1,6 km/h (1 Bft) 100,00 %
19.05.2016 07:57 10,7 C 82 % 1007,7 hPa 0,0 l/m 0,5 km/h (0 Bft) W-NW 302 1 min 0,000 mm 0,7 UV-I 320 W/m 7,8 C 10,7 C 1,6 km/h (1 Bft) 100,00 %
19.05.2016 07:58 10,7 C 83 % 1007,7 hPa 0,0 l/m 3,1 km/h (1 Bft) W 279 1 min 0,000 mm 0,7 UV-I 310 W/m 7,9 C 10,7 C 4,8 km/h (1 Bft) 100,00 %
19.05.2016 07:59 10,7 C 83 % 1007,7 hPa 0,0 l/m 2,7 km/h (1 Bft) W-SW 253 1 min 0,000 mm 0,7 UV-I 305 W/m 7,9 C 10,7 C 4,8 km/h (1 Bft) 100,00 %
19.05.2016 08:00 10,8 C 83 % 1007,7 hPa 0,0 l/m 2,7 km/h (1 Bft) W-SW 239 1 min 0,000 mm 0,7 UV-I 304 W/m 8,0 C 10,8 C 4,8 km/h (1 Bft) 100,00 %
19.05.2016 08:02 10,9 C 82 % 1007,7 hPa 0,0 l/m 2,6 km/h (1 Bft) S-SW 209 2 min 0,101 mm 0,7 UV-I 308 W/m 7,9 C 10,9 C 4,8 km/h (1 Bft) 100,00 %
19.05.2016 08:03 11,0 C 82 % 1007,7 hPa 0,0 l/m 1,3 km/h (1 Bft) S-SW 208 1 min 0,000 mm 0,7 UV-I 321 W/m 8,0 C 11,0 C 3,2 km/h (1 Bft) 96,55 %
19.05.2016 08:04 11,1 C 83 % 1007,7 hPa 0,0 l/m 0,5 km/h (0 Bft) S-SW 208 1 min 0,000 mm 0,7 UV-I 323 W/m 8,3 C 11,1 C 1,6 km/h (1 Bft) 95,83 %
19.05.2016 08:05 11,1 C 82 % 1007,7 hPa 0,0 l/m 0,1 km/h (0 Bft) S-SW 208 1 min 0,000 mm 0,8 UV-I 328 W/m 8,1 C 11,1 C 1,6 km/h (1 Bft) 100,00 %
19.05.2016 08:06 11,1 C 81 % 1007,8 hPa 0,0 l/m 0,4 km/h (0 Bft) S-SW 208 1 min 0,000 mm 0,8 UV-I 319 W/m 8,0 C 11,1 C 1,6 km/h (1 Bft) 100,00 %
19.05.2016 08:07 11,1 C 81 % 1007,8 hPa 0,0 l/m 0,2 km/h (0 Bft) S-SW 208 1 min 0,000 mm 0,8 UV-I 345 W/m 8,0 C 11,1 C 1,6 km/h (1 Bft) 100,00 %
19.05.2016 08:08 11,1 C 82 % 1007,8 hPa 0,0 l/m 2,2 km/h (1 Bft) SW 217 1 min 0,000 mm 0,8 UV-I 372 W/m 8,1 C 11,1 C 4,8 km/h (1 Bft) 100,00 %
19.05.2016 08:09 11,2 C 82 % 1007,9 hPa 0,0 l/m 3,6 km/h (1 Bft) S-SW 213 1 min 0,000 mm 0,9 UV-I 382 W/m 8,2 C 11,2 C 4,8 km/h (1 Bft) 100,00 %
19.05.2016 08:10 11,2 C 82 % 1007,8 hPa 0,0 l/m 4,0 km/h (1 Bft) S-SW 210 1 min 0,000 mm 0,9 UV-I 384 W/m 8,2 C 11,2 C 4,8 km/h (1 Bft) 100,00 %
19.05.2016 08:11 11,2 C 82 % 1007,9 hPa 0,0 l/m 2,2 km/h (1 Bft) W-SW 242 1 min 0,000 mm 0,9 UV-I 394 W/m 8,2 C 11,2 C 4,8 km/h (1 Bft) 100,00 %
19.05.2016 08:12 11,3 C 81 % 1007,9 hPa 0,0 l/m 0,8 km/h (0 Bft) W-SW 242 1 min 0,000 mm 0,9 UV-I 397 W/m 8,2 C 11,3 C 1,6 km/h (1 Bft) 100,00 %
19.05.2016 08:13 11,2 C 80 % 1007,9 hPa 0,0 l/m 0,2 km/h (0 Bft) W-SW 242 1 min 0,000 mm 0,9 UV-I 391 W/m 7,9 C 11,2 C 1,6 km/h (1 Bft) 100,00 %
19.05.2016 08:14 11,3 C 82 % 1007,9 hPa 0,0 l/m 1,8 km/h (1 Bft) W-SW 242 1 min 0,000 mm 0,9 UV-I 378 W/m 8,3 C 11,3 C 3,2 km/h (1 Bft) 100,00 %
19.05.2016 08:15 11,4 C 82 % 1007,9 hPa 0,0 l/m 4,9 km/h (1 Bft) SW 233 1 min 0,000 mm 0,9 UV-I 371 W/m 8,4 C 11,4 C 9,7 km/h (2 Bft) 100,00 %
19.05.2016 08:16 11,5 C 81 % 1007,9 hPa 0,0 l/m 5,6 km/h (1 Bft) W-SW 240 1 min 0,000 mm 0,9 UV-I 375 W/m 8,4 C 11,5 C 8,0 km/h (2 Bft) 100,00 %
19.05.2016 08:17 11,6 C 81 % 1007,9 hPa 0,0 l/m 5,7 km/h (1 Bft) W-SW 248 1 min 0,000 mm 0,9 UV-I 376 W/m 8,5 C 11,6 C 8,0 km/h (2 Bft) 100,00 %
19.05.2016 08:18 11,6 C 81 % 1007,9 hPa 0,0 l/m 4,3 km/h (1 Bft) W-SW 249 1 min 0,000 mm 1,0 UV-I 386 W/m 8,5 C 11,6 C 6,4 km/h (2 Bft) 100,00 %
19.05.2016 08:19 11,6 C 80 % 1007,9 hPa 0,0 l/m 3,1 km/h (1 Bft) W-SW 249 1 min 0,000 mm 1,0 UV-I 392 W/m 8,3 C 11,6 C 6,4 km/h (2 Bft) 100,00 %
19.05.2016 08:20 11,6 C 80 % 1007,9 hPa 0,0 l/m 0,9 km/h (0 Bft) W-SW 249 1 min 0,000 mm 1,0 UV-I 402 W/m 8,3 C 11,6 C 1,6 km/h (1 Bft) 100,00 %
19.05.2016 08:21 11,6 C 80 % 1007,9 hPa 0,0 l/m 4,0 km/h (1 Bft) S-SW 210 1 min 0,000 mm 1,0 UV-I 410 W/m 8,3 C 11,6 C 6,4 km/h (2 Bft) 100,00 %
19.05.2016 08:22 11,6 C 80 % 1007,9 hPa 0,0 l/m 5,6 km/h (1 Bft) S-SW 209 1 min 0,000 mm 1,0 UV-I 413 W/m 8,3 C 11,6 C 8,0 km/h (2 Bft) 100,00 %
19.05.2016 08:23 11,6 C 80 % 1007,9 hPa 0,0 l/m 2,6 km/h (1 Bft) S-SW 209 1 min 0,000 mm 1,0 UV-I 409 W/m 8,3 C 11,6 C 3,2 km/h (1 Bft) 100,00 %
19.05.2016 08:24 11,6 C 80 % 1007,9 hPa 0,0 l/m 4,2 km/h (1 Bft) S-SW 197 1 min 0,000 mm 1,0 UV-I 398 W/m 8,3 C 11,6 C 6,4 km/h (2 Bft) 100,00 %
19.05.2016 08:25 11,6 C 79 % 1007,9 hPa 0,0 l/m 4,8 km/h (1 Bft) W 259 1 min 0,000 mm 1,0 UV-I 406 W/m 8,1 C 11,6 C 6,4 km/h (2 Bft) 100,00 %
19.05.2016 08:26 11,7 C 80 % 1007,9 hPa 0,0 l/m 1,8 km/h (1 Bft) W 261 1 min 0,000 mm 1,0 UV-I 397 W/m 8,4 C 11,7 C 4,8 km/h (1 Bft) 100,00 %
19.05.2016 08:27 11,8 C 81 % 1007,9 hPa 0,0 l/m 3,5 km/h (1 Bft) S-SW 201 1 min 0,000 mm 1,1 UV-I 394 W/m 8,6 C 11,8 C 6,4 km/h (2 Bft) 100,00 %
19.05.2016 08:28 11,7 C 79 % 1007,9 hPa 0,0 l/m 6,4 km/h (2 Bft) S 188 1 min 0,000 mm 1,1 UV-I 389 W/m 8,2 C 11,7 C 8,0 km/h (2 Bft) 96,55 %
19.05.2016 08:29 11,7 C 79 % 1007,9 hPa 0,0 l/m 8,2 km/h (2 Bft) S-SW 212 1 min 0,000 mm 1,0 UV-I 340 W/m 8,2 C 10,5 C 9,7 km/h (2 Bft) 100,00 %
19.05.2016 08:30 11,6 C 80 % 1007,9 hPa 0,0 l/m 5,8 km/h (2 Bft) W-SW 237 1 min 0,000 mm 1,0 UV-I 337 W/m 8,3 C 11,6 C 9,7 km/h (2 Bft) 100,00 %
19.05.2016 08:31 11,6 C 80 % 1007,9 hPa 0,0 l/m 6,8 km/h (2 Bft) W-SW 238 1 min 0,000 mm 1,0 UV-I 326 W/m 8,3 C 11,3 C 8,0 km/h (2 Bft) 100,00 %
19.05.2016 08:32 11,6 C 80 % 1007,9 hPa 0,0 l/m 5,0 km/h (1 Bft) W-SW 252 1 min 0,000 mm 1,1 UV-I 344 W/m 8,3 C 11,6 C 6,4 km/h (2 Bft) 100,00 %
19.05.2016 08:33 11,7 C 81 % 1007,9 hPa 0,0 l/m 4,7 km/h (1 Bft) SW 236 1 min 0,000 mm 1,1 UV-I 357 W/m 8,5 C 11,7 C 8,0 km/h (2 Bft) 100,00 %
19.05.2016 08:34 11,7 C 80 % 1007,9 hPa 0,0 l/m 8,2 km/h (2 Bft) W-SW 249 1 min 0,000 mm 1,1 UV-I 361 W/m 8,4 C 10,5 C 11,3 km/h (2 Bft) 100,00 %
19.05.2016 08:35 11,8 C 80 % 1007,9 hPa 0,0 l/m 3,8 km/h (1 Bft) SW 226 1 min 0,000 mm 1,1 UV-I 362 W/m 8,5 C 11,8 C 6,4 km/h (2 Bft) 100,00 %
19.05.2016 08:36 11,8 C 80 % 1007,9 hPa 0,0 l/m 6,4 km/h (2 Bft) W-SW 246 1 min 0,000 mm 1,1 UV-I 361 W/m 8,5 C 11,8 C 9,7 km/h (2 Bft) 100,00 %
19.05.2016 08:37 11,8 C 80 % 1007,9 hPa 0,0 l/m 4,0 km/h (1 Bft) W-SW 248 1 min 0,000 mm 1,1 UV-I 366 W/m 8,5 C 11,8 C 6,4 km/h (2 Bft) 100,00 %
19.05.2016 08:38 11,8 C 80 % 1007,9 hPa 0,0 l/m 1,7 km/h (1 Bft) W 265 1 min 0,000 mm 1,1 UV-I 359 W/m 8,5 C 11,8 C 3,2 km/h (1 Bft) 100,00 %
19.05.2016 08:39 11,9 C 81 % 1007,9 hPa 0,0 l/m 1,5 km/h (1 Bft) W-NW 282 1 min 0,000 mm 1,1 UV-I 336 W/m 8,7 C 11,9 C 3,2 km/h (1 Bft) 100,00 %
19.05.2016 08:40 11,9 C 79 % 1007,9 hPa 0,0 l/m 0,5 km/h (0 Bft) W-NW 282 1 min 0,000 mm 1,1 UV-I 318 W/m 8,4 C 11,9 C 3,2 km/h (1 Bft) 100,00 %
19.05.2016 08:41 11,8 C 80 % 1007,9 hPa 0,0 l/m 3,4 km/h (1 Bft) W 273 1 min 0,000 mm 1,1 UV-I 319 W/m 8,5 C 11,8 C 4,8 km/h (1 Bft) 100,00 %
19.05.2016 08:42 11,9 C 81 % 1008,0 hPa 0,0 l/m 3,6 km/h (1 Bft) W 279 1 min 0,000 mm 1,1 UV-I 307 W/m 8,7 C 11,9 C 6,4 km/h (2 Bft) 100,00 %
19.05.2016 08:43 12,0 C 80 % 1008,0 hPa 0,0 l/m 2,2 km/h (1 Bft) W 279 1 min 0,000 mm 1,1 UV-I 293 W/m 8,7 C 12,0 C 4,8 km/h (1 Bft) 100,00 %
19.05.2016 08:44 12,1 C 81 % 1008,0 hPa 0,0 l/m 2,1 km/h (1 Bft) W 279 0 min 0,000 mm 1,1 UV-I 272 W/m 8,9 C 12,1 C 3,2 km/h (1 Bft) 95,65 %
19.05.2016 08:45 12,0 C 79 % 1008,0 hPa 0,0 l/m 4,7 km/h (1 Bft) W-SW 253 0 min 0,000 mm 1,0 UV-I 247 W/m 8,5 C 12,0 C 6,4 km/h (2 Bft) 100,00 %
19.05.2016 08:46 11,9 C 79 % 1008,0 hPa 0,0 l/m 5,6 km/h (1 Bft) W-SW 244 0 min 0,000 mm 1,0 UV-I 234 W/m 8,4 C 11,9 C 8,0 km/h (2 Bft) 100,00 %
19.05.2016 08:47 11,9 C 79 % 1008,0 hPa 0,0 l/m 4,4 km/h (1 Bft) W-SW 245 0 min 0,000 mm 1,0 UV-I 227 W/m 8,4 C 11,9 C 6,4 km/h (2 Bft) 100,00 %
19.05.2016 08:48 11,9 C 81 % 1008,0 hPa 0,0 l/m 3,1 km/h (1 Bft) W-SW 245 0 min 0,000 mm 1,1 UV-I 249 W/m 8,7 C 11,9 C 4,8 km/h (1 Bft) 100,00 %
19.05.2016 08:49 11,9 C 79 % 1008,0 hPa 0,0 l/m 2,6 km/h (1 Bft) W-SW 245 0 min 0,000 mm 1,1 UV-I 268 W/m 8,4 C 11,9 C 4,8 km/h (1 Bft) 100,00 %
19.05.2016 08:50 11,9 C 80 % 1008,0 hPa 0,0 l/m 4,2 km/h (1 Bft) W-SW 245 0 min 0,000 mm 1,1 UV-I 287 W/m 8,6 C 11,9 C 6,4 km/h (2 Bft) 96,15 %
19.05.2016 08:51 11,9 C 79 % 1008,0 hPa 0,0 l/m 4,1 km/h (1 Bft) W-SW 245 0 min 0,000 mm 1,2 UV-I 295 W/m 8,4 C 11,9 C 4,8 km/h (1 Bft) 100,00 %
19.05.2016 08:52 11,9 C 80 % 1008,0 hPa 0,0 l/m 4,5 km/h (1 Bft) W-SW 245 1 min 0,000 mm 1,2 UV-I 306 W/m 8,6 C 11,9 C 4,8 km/h (1 Bft) 92,31 %
19.05.2016 08:53 11,9 C 81 % 1008,0 hPa 0,0 l/m 3,9 km/h (1 Bft) W-SW 245 1 min 0,000 mm 1,2 UV-I 314 W/m 8,7 C 11,9 C 4,8 km/h (1 Bft) 100,00 %
19.05.2016 08:54 12,0 C 79 % 1008,0 hPa 0,0 l/m 2,8 km/h (1 Bft) W-SW 245 1 min 0,000 mm 1,2 UV-I 323 W/m 8,5 C 12,0 C 3,2 km/h (1 Bft) 100,00 %
19.05.2016 08:55 12,1 C 80 % 1008,0 hPa 0,0 l/m 3,1 km/h (1 Bft) W-SW 245 1 min 0,000 mm 1,3 UV-I 331 W/m 8,8 C 12,1 C 4,8 km/h (1 Bft) 100,00 %
19.05.2016 08:56 12,1 C 81 % 1008,0 hPa 0,0 l/m 2,3 km/h (1 Bft) W-SW 245 1 min 0,000 mm 1,3 UV-I 339 W/m 8,9 C 12,1 C 3,2 km/h (1 Bft) 100,00 %
19.05.2016 08:57 12,2 C 80 % 1008,0 hPa 0,0 l/m 2,7 km/h (1 Bft) W-SW 249 1 min 0,000 mm 1,3 UV-I 344 W/m 8,9 C 12,2 C 4,8 km/h (1 Bft) 100,00 %
19.05.2016 08:58 12,2 C 81 % 1008,0 hPa 0,0 l/m 3,3 km/h (1 Bft) W-SW 249 1 min 0,000 mm 1,3 UV-I 351 W/m 9,0 C 12,2 C 4,8 km/h (1 Bft) 100,00 %
19.05.2016 08:59 12,3 C 80 % 1008,0 hPa 0,0 l/m 4,2 km/h (1 Bft) W-SW 250 1 min 0,000 mm 1,3 UV-I 364 W/m 8,9 C 12,3 C 4,8 km/h (1 Bft) 100,00 %
19.05.2016 09:00 12,3 C 78 % 1008,1 hPa 0,0 l/m 2,7 km/h (1 Bft) W-SW 250 1 min 0,178 mm 1,3 UV-I 355 W/m 8,6 C 12,3 C 4,8 km/h (1 Bft) 100,00 %
19.05.2016 09:02 12,3 C 78 % 1008,1 hPa 0,0 l/m 2,7 km/h (1 Bft) W 269 2 min 0,000 mm 1,4 UV-I 334 W/m 8,6 C 12,3 C 4,8 km/h (1 Bft) 96,23 %
19.05.2016 09:03 12,3 C 79 % 1008,1 hPa 0,0 l/m 2,4 km/h (1 Bft) W 269 1 min 0,000 mm 1,4 UV-I 358 W/m 8,8 C 12,3 C 3,2 km/h (1 Bft) 100,00 %
19.05.2016 09:04 12,3 C 80 % 1008,1 hPa 0,0 l/m 5,3 km/h (1 Bft) S-SW 205 1 min 0,000 mm 1,4 UV-I 366 W/m 8,9 C 12,3 C 8,0 km/h (2 Bft) 100,00 %
19.05.2016 09:05 12,3 C 80 % 1008,1 hPa 0,0 l/m 5,4 km/h (1 Bft) SW 232 1 min 0,000 mm 1,4 UV-I 372 W/m 8,9 C 12,3 C 6,4 km/h (2 Bft) 96,30 %
19.05.2016 09:06 12,3 C 80 % 1008,1 hPa 0,0 l/m 7,2 km/h (2 Bft) S-SW 194 1 min 0,000 mm 1,4 UV-I 364 W/m 8,9 C 11,8 C 11,3 km/h (2 Bft) 100,00 %
19.05.2016 09:07 12,3 C 80 % 1008,1 hPa 0,0 l/m 6,8 km/h (2 Bft) S-SO 165 1 min 0,000 mm 1,5 UV-I 362 W/m 8,9 C 12,0 C 9,7 km/h (2 Bft) 96,15 %
19.05.2016 09:08 12,3 C 79 % 1008,1 hPa 0,0 l/m 5,7 km/h (1 Bft) SW 228 1 min 0,000 mm 1,5 UV-I 382 W/m 8,8 C 12,3 C 8,0 km/h (2 Bft) 100,00 %
19.05.2016 09:09 12,3 C 80 % 1008,1 hPa 0,0 l/m 4,7 km/h (1 Bft) SW 236 1 min 0,000 mm 1,5 UV-I 395 W/m 8,9 C 12,3 C 8,0 km/h (2 Bft) 96,15 %
19.05.2016 09:10 12,4 C 79 % 1008,1 hPa 0,0 l/m 5,1 km/h (1 Bft) SW 229 1 min 0,000 mm 1,6 UV-I 407 W/m 8,9 C 12,4 C 9,7 km/h (2 Bft) 100,00 %
19.05.2016 09:11 12,4 C 80 % 1008,1 hPa 0,0 l/m 6,7 km/h (2 Bft) W 279 1 min 0,000 mm 1,6 UV-I 402 W/m 9,0 C 12,2 C 11,3 km/h (2 Bft) 95,65 %
19.05.2016 09:12 12,6 C 79 % 1008,1 hPa 0,0 l/m 3,9 km/h (1 Bft) W 272 1 min 0,000 mm 1,6 UV-I 405 W/m 9,1 C 12,6 C 6,4 km/h (2 Bft) 95,83 %
19.05.2016 09:13 12,7 C 79 % 1008,1 hPa 0,0 l/m 6,8 km/h (2 Bft) W-SW 250 1 min 0,000 mm 1,6 UV-I 417 W/m 9,2 C 12,5 C 11,3 km/h (2 Bft) 100,00 %
19.05.2016 09:14 12,7 C 78 % 1008,1 hPa 0,0 l/m 9,1 km/h (2 Bft) S-SW 197 1 min 0,000 mm 1,6 UV-I 413 W/m 9,0 C 11,1 C 12,9 km/h (3 Bft) 96,30 %
19.05.2016 09:15 12,7 C 77 % 1008,1 hPa 0,0 l/m 7,9 km/h (2 Bft) S 185 1 min 0,000 mm 1,6 UV-I 418 W/m 8,8 C 11,7 C 11,3 km/h (2 Bft) 100,00 %
19.05.2016 09:16 12,6 C 78 % 1008,1 hPa 0,0 l/m 5,8 km/h (2 Bft) S-SW 209 1 min 0,000 mm 1,6 UV-I 408 W/m 8,9 C 12,6 C 9,7 km/h (2 Bft) 94,44 %
19.05.2016 09:17 12,6 C 77 % 1008,1 hPa 0,0 l/m 5,0 km/h (1 Bft) S-SO 168 1 min 0,000 mm 1,7 UV-I 433 W/m 8,7 C 12,6 C 8,0 km/h (2 Bft) 100,00 %
19.05.2016 09:18 12,4 C 77 % 1008,1 hPa 0,0 l/m 6,0 km/h (2 Bft) S-SW 200 1 min 0,000 mm 1,7 UV-I 443 W/m 8,5 C 12,4 C 8,0 km/h (2 Bft) 96,30 %
19.05.2016 09:19 12,4 C 79 % 1008,1 hPa 0,0 l/m 6,6 km/h (2 Bft) S-SW 211 1 min 0,000 mm 1,7 UV-I 465 W/m 8,9 C 12,3 C 8,0 km/h (2 Bft) 95,65 %
19.05.2016 09:20 12,5 C 79 % 1008,1 hPa 0,0 l/m 7,1 km/h (2 Bft) S-SW 211 1 min 0,000 mm 1,7 UV-I 482 W/m 9,0 C 12,0 C 9,7 km/h (2 Bft) 95,83 %
19.05.2016 09:21 12,6 C 78 % 1008,1 hPa 0,0 l/m 6,4 km/h (2 Bft) S 186 1 min 0,000 mm 1,8 UV-I 485 W/m 8,9 C 12,6 C 8,0 km/h (2 Bft) 93,10 %
19.05.2016 09:22 12,7 C 78 % 1008,1 hPa 0,0 l/m 4,9 km/h (1 Bft) SW 234 1 min 0,000 mm 1,8 UV-I 500 W/m 9,0 C 12,7 C 6,4 km/h (2 Bft) 100,00 %
19.05.2016 09:23 12,8 C 78 % 1008,1 hPa 0,0 l/m 3,6 km/h (1 Bft) SW 221 1 min 0,000 mm 1,8 UV-I 520 W/m 9,1 C 12,8 C 6,4 km/h (2 Bft) 96,55 %
19.05.2016 09:24 12,8 C 78 % 1008,1 hPa 0,0 l/m 3,1 km/h (1 Bft) S-SW 199 1 min 0,000 mm 1,8 UV-I 504 W/m 9,1 C 12,8 C 6,4 km/h (2 Bft) 100,00 %
19.05.2016 09:25 12,8 C 77 % 1008,1 hPa 0,0 l/m 4,3 km/h (1 Bft) S-SW 194 1 min 0,000 mm 1,8 UV-I 501 W/m 8,9 C 12,8 C 6,4 km/h (2 Bft) 92,31 %
19.05.2016 09:26 12,8 C 78 % 1008,1 hPa 0,0 l/m 6,8 km/h (2 Bft) S-SW 211 1 min 0,000 mm 1,8 UV-I 493 W/m 9,1 C 12,6 C 9,7 km/h (2 Bft) 100,00 %
19.05.2016 09:27 12,9 C 78 % 1008,1 hPa 0,0 l/m 6,0 km/h (2 Bft) W-SW 248 1 min 0,000 mm 1,8 UV-I 471 W/m 9,2 C 12,9 C 8,0 km/h (2 Bft) 96,67 %
19.05.2016 09:28 12,9 C 76 % 1008,1 hPa 0,0 l/m 1,8 km/h (1 Bft) W-SW 249 1 min 0,000 mm 1,8 UV-I 472 W/m 8,8 C 12,9 C 3,2 km/h (1 Bft) 100,00 %
19.05.2016 09:29 13,0 C 78 % 1008,1 hPa 0,0 l/m 2,0 km/h (1 Bft) W-NW 295 1 min 0,000 mm 1,8 UV-I 482 W/m 9,3 C 13,0 C 3,2 km/h (1 Bft) 93,33 %
19.05.2016 09:30 13,1 C 77 % 1008,1 hPa 0,0 l/m 4,9 km/h (1 Bft) W 276 1 min 0,000 mm 1,8 UV-I 492 W/m 9,2 C 13,1 C 9,7 km/h (2 Bft) 93,10 %
19.05.2016 09:31 13,2 C 76 % 1008,1 hPa 0,0 l/m 3,1 km/h (1 Bft) W 264 1 min 0,000 mm 1,8 UV-I 495 W/m 9,1 C 13,2 C 8,0 km/h (2 Bft) 100,00 %
19.05.2016 09:32 13,2 C 74 % 1008,1 hPa 0,0 l/m 5,8 km/h (2 Bft) SW 221 1 min 0,000 mm 1,8 UV-I 434 W/m 8,7 C 13,2 C 8,0 km/h (2 Bft) 96,15 %
19.05.2016 09:33 13,1 C 74 % 1008,1 hPa 0,0 l/m 4,5 km/h (1 Bft) SW 232 1 min 0,000 mm 1,7 UV-I 419 W/m 8,6 C 13,1 C 6,4 km/h (2 Bft) 100,00 %
19.05.2016 09:34 13,1 C 75 % 1008,1 hPa 0,0 l/m 3,6 km/h (1 Bft) W-SW 240 1 min 0,000 mm 1,8 UV-I 437 W/m 8,8 C 13,1 C 4,8 km/h (1 Bft) 96,15 %
19.05.2016 09:35 13,1 C 75 % 1008,1 hPa 0,0 l/m 1,4 km/h (1 Bft) W-SW 240 1 min 0,000 mm 1,8 UV-I 451 W/m 8,8 C 13,1 C 3,2 km/h (1 Bft) 100,00 %
19.05.2016 09:36 13,1 C 76 % 1008,1 hPa 0,0 l/m 0,7 km/h (0 Bft) W-SW 240 1 min 0,000 mm 1,8 UV-I 463 W/m 9,0 C 13,1 C 1,6 km/h (1 Bft) 95,65 %
19.05.2016 09:37 13,1 C 77 % 1008,1 hPa 0,0 l/m 2,8 km/h (1 Bft) W-SW 240 1 min 0,000 mm 1,9 UV-I 492 W/m 9,2 C 13,1 C 3,2 km/h (1 Bft) 95,83 %
19.05.2016 09:38 13,2 C 76 % 1008,1 hPa 0,0 l/m 2,7 km/h (1 Bft) W-SW 240 1 min 0,000 mm 2,0 UV-I 496 W/m 9,1 C 13,2 C 3,2 km/h (1 Bft) 100,00 %
19.05.2016 09:39 13,3 C 76 % 1008,1 hPa 0,0 l/m 0,8 km/h (0 Bft) W-SW 240 1 min 0,000 mm 1,9 UV-I 463 W/m 9,2 C 13,3 C 1,6 km/h (1 Bft) 100,00 %
19.05.2016 09:40 13,3 C 76 % 1008,1 hPa 0,0 l/m 1,7 km/h (1 Bft) W-SW 240 1 min 0,000 mm 1,9 UV-I 433 W/m 9,2 C 13,3 C 4,8 km/h (1 Bft) 100,00 %
19.05.2016 09:41 13,4 C 74 % 1008,1 hPa 0,0 l/m 3,4 km/h (1 Bft) W 272 1 min 0,000 mm 1,9 UV-I 444 W/m 8,9 C 13,4 C 4,8 km/h (1 Bft) 95,83 %
19.05.2016 09:42 13,4 C 74 % 1008,1 hPa 0,0 l/m 2,0 km/h (1 Bft) NW 323 1 min 0,000 mm 1,9 UV-I 435 W/m 8,9 C 13,4 C 4,8 km/h (1 Bft) 100,00 %
19.05.2016 09:43 13,4 C 74 % 1008,1 hPa 0,0 l/m 1,2 km/h (1 Bft) N-NW 335 1 min 0,000 mm 1,9 UV-I 431 W/m 8,9 C 13,4 C 3,2 km/h (1 Bft) 100,00 %
19.05.2016 09:44 13,5 C 76 % 1008,1 hPa 0,0 l/m 1,7 km/h (1 Bft) N-NW 336 1 min 0,000 mm 1,9 UV-I 408 W/m 9,4 C 13,5 C 3,2 km/h (1 Bft) 100,00 %
19.05.2016 09:45 13,4 C 74 % 1008,1 hPa 0,0 l/m 3,3 km/h (1 Bft) O-NO 70 1 min 0,000 mm 1,9 UV-I 412 W/m 8,9 C 13,4 C 4,8 km/h (1 Bft) 100,00 %
19.05.2016 09:46 13,4 C 75 % 1008,1 hPa 0,0 l/m 0,7 km/h (0 Bft) O-NO 70 1 min 0,000 mm 1,9 UV-I 430 W/m 9,1 C 13,4 C 1,6 km/h (1 Bft) 100,00 %
19.05.2016 09:47 13,4 C 75 % 1008,1 hPa 0,0 l/m 0,7 km/h (0 Bft) O-NO 70 1 min 0,000 mm 1,9 UV-I 417 W/m 9,1 C 13,4 C 3,2 km/h (1 Bft) 100,00 %
19.05.2016 09:48 13,4 C 75 % 1008,1 hPa 0,0 l/m 2,7 km/h (1 Bft) W-NW 284 1 min 0,000 mm 2,0 UV-I 445 W/m 9,1 C 13,4 C 4,8 km/h (1 Bft) 100,00 %
19.05.2016 09:49 13,4 C 74 % 1008,1 hPa 0,0 l/m 2,0 km/h (1 Bft) W-NW 284 1 min 0,000 mm 2,0 UV-I 449 W/m 8,9 C 13,4 C 3,2 km/h (1 Bft) 100,00 %
19.05.2016 09:50 13,4 C 75 % 1008,1 hPa 0,0 l/m 1,3 km/h (1 Bft) W-NW 302 1 min 0,000 mm 2,0 UV-I 462 W/m 9,1 C 13,4 C 3,2 km/h (1 Bft) 95,83 %
19.05.2016 09:51 13,6 C 75 % 1008,1 hPa 0,0 l/m 0,4 km/h (0 Bft) W-NW 302 1 min 0,000 mm 2,1 UV-I 495 W/m 9,3 C 13,6 C 1,6 km/h (1 Bft) 100,00 %
19.05.2016 09:52 13,6 C 74 % 1008,1 hPa 0,0 l/m 0,0 km/h (0 Bft) W-NW 302 1 min 0,000 mm 2,1 UV-I 479 W/m 9,1 C 13,6 C 0,0 km/h (0 Bft) 100,00 %
19.05.2016 09:53 13,6 C 76 % 1008,1 hPa 0,0 l/m 0,0 km/h (0 Bft) W-NW 302 1 min 0,000 mm 2,1 UV-I 453 W/m 9,4 C 13,6 C 0,0 km/h (0 Bft) 100,00 %
19.05.2016 09:54 13,6 C 74 % 1008,1 hPa 0,0 l/m 0,8 km/h (0 Bft) W-NW 302 1 min 0,000 mm 2,0 UV-I 441 W/m 9,1 C 13,6 C 3,2 km/h (1 Bft) 100,00 %
19.05.2016 09:55 13,7 C 76 % 1008,1 hPa 0,0 l/m 0,4 km/h (0 Bft) S-SW 211 1 min 0,000 mm 2,0 UV-I 433 W/m 9,5 C 13,7 C 1,6 km/h (1 Bft) 100,00 %
19.05.2016 09:56 13,7 C 73 % 1008,1 hPa 0,0 l/m 2,9 km/h (1 Bft) S-SW 192 1 min 0,000 mm 2,0 UV-I 444 W/m 8,9 C 13,7 C 6,4 km/h (2 Bft) 95,83 %
19.05.2016 09:57 13,6 C 74 % 1008,1 hPa 0,0 l/m 3,8 km/h (1 Bft) S-SW 193 1 min 0,000 mm 2,1 UV-I 453 W/m 9,1 C 13,6 C 6,4 km/h (2 Bft) 100,00 %
19.05.2016 09:58 13,6 C 76 % 1008,1 hPa 0,0 l/m 3,8 km/h (1 Bft) S 184 1 min 0,000 mm 2,1 UV-I 456 W/m 9,4 C 13,6 C 6,4 km/h (2 Bft) 95,83 %
19.05.2016 09:59 13,6 C 74 % 1008,1 hPa 0,0 l/m 2,3 km/h (1 Bft) S 184 1 min 0,000 mm 2,0 UV-I 402 W/m 9,1 C 13,6 C 4,8 km/h (1 Bft) 100,00 %
19.05.2016 10:00 13,6 C 75 % 1008,1 hPa 0,0 l/m 1,4 km/h (1 Bft) S 185 1 min 0,229 mm 2,0 UV-I 396 W/m 9,3 C 13,6 C 3,2 km/h (1 Bft) 100,00 %
19.05.2016 10:02 13,6 C 73 % 1008,2 hPa 0,0 l/m 3,5 km/h (1 Bft) S-SW 211 2 min 0,000 mm 2,0 UV-I 388 W/m 8,9 C 13,6 C 6,4 km/h (2 Bft) 100,00 %
19.05.2016 10:03 13,6 C 74 % 1008,1 hPa 0,0 l/m 0,9 km/h (0 Bft) S-SW 211 0 min 0,000 mm 2,0 UV-I 381 W/m 9,1 C 13,6 C 3,2 km/h (1 Bft) 100,00 %
19.05.2016 10:04 13,7 C 74 % 1008,2 hPa 0,0 l/m 2,2 km/h (1 Bft) W 278 0 min 0,000 mm 2,0 UV-I 355 W/m 9,2 C 13,7 C 4,8 km/h (1 Bft) 100,00 %
19.05.2016 10:05 13,7 C 75 % 1008,2 hPa 0,0 l/m 1,5 km/h (1 Bft) W 278 0 min 0,000 mm 2,0 UV-I 353 W/m 9,3 C 13,7 C 3,2 km/h (1 Bft) 100,00 %
19.05.2016 10:06 13,8 C 74 % 1008,2 hPa 0,0 l/m 2,1 km/h (1 Bft) W 278 0 min 0,000 mm 2,0 UV-I 356 W/m 9,2 C 13,8 C 4,8 km/h (1 Bft) 100,00 %
19.05.2016 10:07 13,8 C 73 % 1008,2 hPa 0,0 l/m 1,9 km/h (1 Bft) W 278 0 min 0,000 mm 2,0 UV-I 364 W/m 9,0 C 13,8 C 3,2 km/h (1 Bft) 100,00 %
19.05.2016 10:08 13,8 C 72 % 1008,1 hPa 0,0 l/m 1,2 km/h (1 Bft) W 278 0 min 0,000 mm 2,0 UV-I 369 W/m 8,8 C 13,8 C 1,6 km/h (1 Bft) 100,00 %
19.05.2016 10:09 13,7 C 73 % 1008,1 hPa 0,0 l/m 4,0 km/h (1 Bft) W 271 0 min 0,000 mm 2,1 UV-I 365 W/m 8,9 C 13,7 C 6,4 km/h (2 Bft) 100,00 %
19.05.2016 10:10 13,8 C 74 % 1008,1 hPa 0,0 l/m 3,6 km/h (1 Bft) W 271 0 min 0,000 mm 2,1 UV-I 383 W/m 9,2 C 13,8 C 4,8 km/h (1 Bft) 100,00 %
19.05.2016 10:11 13,8 C 73 % 1008,1 hPa 0,0 l/m 2,7 km/h (1 Bft) SW 230 0 min 0,000 mm 2,1 UV-I 367 W/m 9,0 C 13,8 C 4,8 km/h (1 Bft) 100,00 %
19.05.2016 10:12 13,8 C 72 % 1008,1 hPa 0,0 l/m 1,7 km/h (1 Bft) SW 231 0 min 0,000 mm 2,1 UV-I 371 W/m 8,8 C 13,8 C 4,8 km/h (1 Bft) 100,00 %
19.05.2016 10:13 13,8 C 76 % 1008,1 hPa 0,0 l/m 3,7 km/h (1 Bft) SW 234 0 min 0,000 mm 2,1 UV-I 387 W/m 9,6 C 13,8 C 4,8 km/h (1 Bft) 100,00 %
19.05.2016 10:14 13,9 C 75 % 1008,1 hPa 0,0 l/m 2,4 km/h (1 Bft) SW 234 1 min 0,000 mm 2,3 UV-I 423 W/m 9,5 C 13,9 C 4,8 km/h (1 Bft) 100,00 %
19.05.2016 10:15 14,0 C 75 % 1008,1 hPa 0,0 l/m 1,9 km/h (1 Bft) SW 231 1 min 0,000 mm 2,3 UV-I 471 W/m 9,6 C 14,0 C 4,8 km/h (1 Bft) 100,00 %
19.05.2016 10:16 14,0 C 74 % 1008,1 hPa 0,0 l/m 1,7 km/h (1 Bft) SW 229 1 min 0,000 mm 2,3 UV-I 445 W/m 9,4 C 14,0 C 3,2 km/h (1 Bft) 100,00 %
19.05.2016 10:17 14,0 C 72 % 1008,1 hPa 0,0 l/m 0,8 km/h (0 Bft) SW 229 1 min 0,000 mm 2,6 UV-I 455 W/m 9,0 C 14,0 C 1,6 km/h (1 Bft) 100,00 %
19.05.2016 10:18 14,0 C 72 % 1008,1 hPa 0,0 l/m 2,5 km/h (1 Bft) S-SW 213 1 min 0,000 mm 2,5 UV-I 506 W/m 9,0 C 14,0 C 4,8 km/h (1 Bft) 100,00 %
19.05.2016 10:19 14,1 C 74 % 1008,1 hPa 0,0 l/m 5,0 km/h (1 Bft) S-SW 204 1 min 0,000 mm 2,6 UV-I 559 W/m 9,5 C 14,1 C 6,4 km/h (2 Bft) 100,00 %
19.05.2016 10:20 14,2 C 72 % 1008,1 hPa 0,0 l/m 4,7 km/h (1 Bft) SW 215 1 min 0,000 mm 2,6 UV-I 592 W/m 9,2 C 14,2 C 6,4 km/h (2 Bft) 100,00 %
19.05.2016 10:21 14,2 C 73 % 1008,1 hPa 0,0 l/m 3,6 km/h (1 Bft) S 184 1 min 0,000 mm 2,6 UV-I 574 W/m 9,4 C 14,2 C 6,4 km/h (2 Bft) 100,00 %
19.05.2016 10:22 14,2 C 72 % 1008,1 hPa 0,0 l/m 0,9 km/h (0 Bft) S 184 1 min 0,000 mm 2,4 UV-I 497 W/m 9,2 C 14,2 C 1,6 km/h (1 Bft) 95,83 %
19.05.2016 10:23 14,2 C 73 % 1008,1 hPa 0,0 l/m 0,6 km/h (0 Bft) S 184 1 min 0,000 mm 2,4 UV-I 475 W/m 9,4 C 14,2 C 1,6 km/h (1 Bft) 100,00 %
19.05.2016 10:24 14,3 C 73 % 1008,1 hPa 0,0 l/m 1,4 km/h (1 Bft) S 170 1 min 0,000 mm 2,4 UV-I 478 W/m 9,5 C 14,3 C 4,8 km/h (1 Bft) 100,00 %
19.05.2016 10:25 14,4 C 74 % 1008,1 hPa 0,0 l/m 6,8 km/h (2 Bft) W-SW 239 1 min 0,000 mm 2,5 UV-I 510 W/m 9,8 C 14,2 C 11,3 km/h (2 Bft) 100,00 %
19.05.2016 10:26 14,5 C 74 % 1008,1 hPa 0,0 l/m 6,6 km/h (2 Bft) SW 235 1 min 0,000 mm 2,5 UV-I 500 W/m 9,9 C 14,4 C 8,0 km/h (2 Bft) 100,00 %
19.05.2016 10:27 14,7 C 71 % 1008,1 hPa 0,0 l/m 3,5 km/h (1 Bft) S-SW 196 1 min 0,000 mm 2,5 UV-I 517 W/m 9,5 C 14,7 C 4,8 km/h (1 Bft) 100,00 %
19.05.2016 10:28 14,7 C 72 % 1008,1 hPa 0,0 l/m 3,5 km/h (1 Bft) W 275 1 min 0,000 mm 2,5 UV-I 509 W/m 9,7 C 14,7 C 6,4 km/h (2 Bft) 100,00 %
19.05.2016 10:29 14,8 C 74 % 1008,2 hPa 0,0 l/m 2,7 km/h (1 Bft) W 274 1 min 0,000 mm 2,5 UV-I 490 W/m 10,2 C 14,8 C 6,4 km/h (2 Bft) 100,00 %
19.05.2016 10:30 14,8 C 71 % 1008,1 hPa 0,0 l/m 1,4 km/h (1 Bft) SW 219 1 min 0,000 mm 2,5 UV-I 488 W/m 9,6 C 14,8 C 1,6 km/h (1 Bft) 98,84 %
19.05.2016 10:31 14,8 C 71 % 1008,1 hPa 0,0 l/m 0,8 km/h (0 Bft) SW 217 1 min 0,000 mm 2,5 UV-I 485 W/m 9,6 C 14,8 C 1,6 km/h (1 Bft) 100,00 %
19.05.2016 10:32 14,7 C 70 % 1008,1 hPa 0,0 l/m 2,2 km/h (1 Bft) S 190 1 min 0,000 mm 2,6 UV-I 562 W/m 9,3 C 14,7 C 3,2 km/h (1 Bft) 100,00 %
19.05.2016 10:33 14,7 C 71 % 1008,1 hPa 0,0 l/m 0,7 km/h (0 Bft) S 190 1 min 0,000 mm 2,5 UV-I 520 W/m 9,5 C 14,7 C 1,6 km/h (1 Bft) 100,00 %
19.05.2016 10:34 14,8 C 71 % 1008,1 hPa 0,0 l/m 0,5 km/h (0 Bft) S 190 1 min 0,000 mm 2,5 UV-I 495 W/m 9,6 C 14,8 C 1,6 km/h (1 Bft) 100,00 %
19.05.2016 10:35 14,8 C 71 % 1008,1 hPa 0,0 l/m 1,7 km/h (1 Bft) W 263 1 min 0,000 mm 2,6 UV-I 512 W/m 9,6 C 14,8 C 4,8 km/h (1 Bft) 100,00 %
19.05.2016 10:36 14,9 C 71 % 1008,1 hPa 0,0 l/m 0,7 km/h (0 Bft) W 273 1 min 0,000 mm 2,6 UV-I 531 W/m 9,7 C 14,9 C 3,2 km/h (1 Bft) 100,00 %
19.05.2016 10:37 15,1 C 74 % 1008,2 hPa 0,0 l/m 0,8 km/h (0 Bft) W 273 1 min 0,000 mm 2,6 UV-I 540 W/m 10,5 C 15,1 C 1,6 km/h (1 Bft) 100,00 %
19.05.2016 10:38 15,2 C 74 % 1008,1 hPa 0,0 l/m 0,8 km/h (0 Bft) W 273 1 min 0,000 mm 2,7 UV-I 540 W/m 10,6 C 15,2 C 3,2 km/h (1 Bft) 96,30 %
19.05.2016 10:39 15,3 C 72 % 1008,2 hPa 0,0 l/m 4,5 km/h (1 Bft) W-NW 296 1 min 0,000 mm 2,7 UV-I 543 W/m 10,3 C 15,3 C 8,0 km/h (2 Bft) 98,86 %
19.05.2016 10:40 15,3 C 70 % 1008,2 hPa 0,0 l/m 5,3 km/h (1 Bft) W 265 1 min 0,000 mm 2,7 UV-I 509 W/m 9,9 C 15,3 C 11,3 km/h (2 Bft) 100,00 %
19.05.2016 10:41 15,3 C 70 % 1008,2 hPa 0,0 l/m 9,3 km/h (2 Bft) W 276 1 min 0,000 mm 2,6 UV-I 487 W/m 9,9 C 13,8 C 12,9 km/h (3 Bft) 100,00 %
19.05.2016 10:42 15,2 C 69 % 1008,2 hPa 0,0 l/m 4,5 km/h (1 Bft) W 267 1 min 0,000 mm 2,6 UV-I 526 W/m 9,6 C 15,2 C 6,4 km/h (2 Bft) 93,33 %
19.05.2016 10:43 15,2 C 69 % 1008,2 hPa 0,0 l/m 5,4 km/h (1 Bft) W-NW 284 1 min 0,000 mm 2,7 UV-I 507 W/m 9,6 C 15,2 C 9,7 km/h (2 Bft) 100,00 %
19.05.2016 10:44 15,1 C 69 % 1008,2 hPa 0,0 l/m 4,8 km/h (1 Bft) W-NW 285 1 min 0,000 mm 2,7 UV-I 526 W/m 9,5 C 15,1 C 9,7 km/h (2 Bft) 96,15 %
19.05.2016 10:45 15,1 C 68 % 1008,2 hPa 0,0 l/m 2,5 km/h (1 Bft) W-SW 247 1 min 0,000 mm 2,7 UV-I 533 W/m 9,2 C 15,1 C 3,2 km/h (1 Bft) 100,00 %
19.05.2016 10:46 15,1 C 71 % 1008,2 hPa 0,0 l/m 3,6 km/h (1 Bft) W 259 1 min 0,000 mm 2,6 UV-I 476 W/m 9,9 C 15,1 C 4,8 km/h (1 Bft) 100,00 %
19.05.2016 10:47 15,2 C 71 % 1008,2 hPa 0,0 l/m 3,7 km/h (1 Bft) W 269 1 min 0,000 mm 2,7 UV-I 479 W/m 10,0 C 15,2 C 9,7 km/h (2 Bft) 100,00 %
19.05.2016 10:48 15,4 C 72 % 1008,2 hPa 0,0 l/m 8,2 km/h (2 Bft) SW 228 1 min 0,000 mm 2,7 UV-I 480 W/m 10,4 C 14,4 C 11,3 km/h (2 Bft) 100,00 %
19.05.2016 10:49 15,6 C 69 % 1008,2 hPa 0,0 l/m 5,2 km/h (1 Bft) S-SW 195 1 min 0,000 mm 2,8 UV-I 513 W/m 9,9 C 15,6 C 8,0 km/h (2 Bft) 100,00 %
19.05.2016 10:50 15,6 C 69 % 1008,2 hPa 0,0 l/m 6,4 km/h (2 Bft) W-NW 290 1 min 0,000 mm 2,7 UV-I 498 W/m 9,9 C 15,6 C 9,7 km/h (2 Bft) 100,00 %
19.05.2016 10:51 15,6 C 71 % 1008,2 hPa 0,0 l/m 3,3 km/h (1 Bft) W 259 1 min 0,000 mm 2,7 UV-I 479 W/m 10,4 C 15,6 C 8,0 km/h (2 Bft) 100,00 %
19.05.2016 10:52 15,7 C 70 % 1008,2 hPa 0,0 l/m 9,7 km/h (2 Bft) W-SW 246 1 min 0,000 mm 2,7 UV-I 508 W/m 10,2 C 14,0 C 14,5 km/h (3 Bft) 100,00 %
19.05.2016 10:53 15,7 C 68 % 1008,3 hPa 0,0 l/m 11,6 km/h (2 Bft) W-SW 248 1 min 0,000 mm 2,7 UV-I 506 W/m 9,8 C 13,2 C 14,5 km/h (3 Bft) 100,00 %
19.05.2016 10:54 15,6 C 66 % 1008,3 hPa 0,0 l/m 3,5 km/h (1 Bft) W-SW 242 1 min 0,000 mm 2,7 UV-I 488 W/m 9,3 C 15,6 C 8,0 km/h (2 Bft) 100,00 %
19.05.2016 10:55 15,6 C 71 % 1008,3 hPa 0,0 l/m 3,8 km/h (1 Bft) SW 232 1 min 0,000 mm 2,7 UV-I 482 W/m 10,4 C 15,6 C 6,4 km/h (2 Bft) 100,00 %
19.05.2016 10:56 15,4 C 67 % 1008,3 hPa 0,0 l/m 0,5 km/h (0 Bft) SW 232 1 min 0,000 mm 2,6 UV-I 470 W/m 9,3 C 15,4 C 1,6 km/h (1 Bft) 100,00 %
19.05.2016 10:57 15,4 C 68 % 1008,3 hPa 0,0 l/m 0,6 km/h (0 Bft) SW 232 1 min 0,000 mm 2,7 UV-I 482 W/m 9,5 C 15,4 C 1,6 km/h (1 Bft) 100,00 %
19.05.2016 10:58 15,4 C 70 % 1008,3 hPa 0,0 l/m 1,8 km/h (1 Bft) S-SO 163 1 min 0,000 mm 2,7 UV-I 480 W/m 10,0 C 15,4 C 6,4 km/h (2 Bft) 98,89 %
19.05.2016 10:59 15,3 C 68 % 1008,3 hPa 0,0 l/m 6,5 km/h (2 Bft) S-SO 150 1 min 0,000 mm 2,6 UV-I 470 W/m 9,4 C 15,3 C 12,9 km/h (3 Bft) 100,00 %
19.05.2016 11:00 15,4 C 70 % 1008,3 hPa 0,0 l/m 8,1 km/h (2 Bft) S-SW 199 1 min 0,000 mm 2,6 UV-I 462 W/m 10,0 C 14,5 C 9,7 km/h (2 Bft) 100,00 %
19.05.2016 11:02 15,5 C 70 % 1008,3 hPa 0,0 l/m 7,2 km/h (2 Bft) SW 233 0 min 0,254 mm 2,5 UV-I 413 W/m 10,1 C 15,1 C 11,3 km/h (2 Bft) 100,00 %
19.05.2016 11:03 15,5 C 68 % 1008,3 hPa 0,0 l/m 4,0 km/h (1 Bft) W-SW 246 0 min 0,000 mm 2,5 UV-I 418 W/m 9,6 C 15,5 C 8,0 km/h (2 Bft) 96,55 %
19.05.2016 11:04 15,5 C 68 % 1008,3 hPa 0,0 l/m 4,4 km/h (1 Bft) SW 231 1 min 0,000 mm 2,5 UV-I 440 W/m 9,6 C 15,5 C 6,4 km/h (2 Bft) 95,65 %
19.05.2016 11:05 15,5 C 69 % 1008,3 hPa 0,0 l/m 7,6 km/h (2 Bft) S-SW 207 1 min 0,000 mm 2,6 UV-I 457 W/m 9,8 C 14,8 C 12,9 km/h (3 Bft) 96,30 %
19.05.2016 11:06 15,6 C 69 % 1008,3 hPa 0,0 l/m 8,1 km/h (2 Bft) W-SW 238 1 min 0,000 mm 2,6 UV-I 469 W/m 9,9 C 14,7 C 12,9 km/h (3 Bft) 100,00 %
19.05.2016 11:07 15,6 C 69 % 1008,3 hPa 0,0 l/m 9,0 km/h (2 Bft) W-SW 249 1 min 0,000 mm 2,7 UV-I 493 W/m 9,9 C 14,2 C 12,9 km/h (3 Bft) 96,55 %
19.05.2016 11:08 15,6 C 68 % 1008,3 hPa 0,0 l/m 9,3 km/h (2 Bft) W-SW 246 1 min 0,000 mm 2,7 UV-I 512 W/m 9,7 C 14,1 C 11,3 km/h (2 Bft) 100,00 %
19.05.2016 11:09 15,6 C 68 % 1008,3 hPa 0,0 l/m 5,6 km/h (1 Bft) W-NW 291 1 min 0,000 mm 2,8 UV-I 552 W/m 9,7 C 15,6 C 11,3 km/h (2 Bft) 96,15 %
19.05.2016 11:10 15,6 C 69 % 1008,3 hPa 0,0 l/m 2,4 km/h (1 Bft) S 187 1 min 0,000 mm 2,9 UV-I 574 W/m 9,9 C 15,6 C 3,2 km/h (1 Bft) 100,00 %
19.05.2016 11:11 15,7 C 70 % 1008,4 hPa 0,0 l/m 6,8 km/h (2 Bft) SW 236 1 min 0,000 mm 2,9 UV-I 573 W/m 10,2 C 15,5 C 11,3 km/h (2 Bft) 96,15 %
19.05.2016 11:12 15,7 C 68 % 1008,3 hPa 0,0 l/m 6,8 km/h (2 Bft) W-SW 249 1 min 0,000 mm 2,7 UV-I 492 W/m 9,8 C 15,5 C 12,9 km/h (3 Bft) 100,00 %
19.05.2016 11:13 15,8 C 67 % 1008,3 hPa 0,0 l/m 8,0 km/h (2 Bft) W-SW 258 1 min 0,000 mm 2,6 UV-I 453 W/m 9,7 C 14,9 C 11,3 km/h (2 Bft) 94,12 %
19.05.2016 11:14 15,7 C 67 % 1008,3 hPa 0,0 l/m 5,1 km/h (1 Bft) W-SW 254 1 min 0,000 mm 2,7 UV-I 501 W/m 9,6 C 15,7 C 6,4 km/h (2 Bft) 96,30 %
19.05.2016 11:15 15,7 C 68 % 1008,3 hPa 0,0 l/m 2,5 km/h (1 Bft) W-SW 253 1 min 0,000 mm 2,7 UV-I 496 W/m 9,8 C 15,7 C 6,4 km/h (2 Bft) 100,00 %
19.05.2016 11:16 15,7 C 69 % 1008,3 hPa 0,0 l/m 6,5 km/h (2 Bft) S-SW 205 1 min 0,000 mm 2,6 UV-I 466 W/m 10,0 C 15,7 C 9,7 km/h (2 Bft) 100,00 %
19.05.2016 11:17 15,7 C 69 % 1008,4 hPa 0,0 l/m 2,7 km/h (1 Bft) S-SW 202 1 min 0,000 mm 2,6 UV-I 446 W/m 10,0 C 15,7 C 4,8 km/h (1 Bft) 96,15 %
19.05.2016 11:18 15,7 C 71 % 1008,3 hPa 0,0 l/m 0,5 km/h (0 Bft) S-SW 202 0 min 0,000 mm 2,5 UV-I 441 W/m 10,5 C 15,7 C 1,6 km/h (1 Bft) 95,83 %
19.05.2016 11:19 15,8 C 70 % 1008,3 hPa 0,0 l/m 0,0 km/h (0 Bft) S-SW 202 0 min 0,000 mm 2,5 UV-I 440 W/m 10,3 C 15,8 C 0,0 km/h (0 Bft) 100,00 %
19.05.2016 11:20 15,8 C 69 % 1008,3 hPa 0,0 l/m 3,6 km/h (1 Bft) W-SW 250 1 min 0,000 mm 2,6 UV-I 455 W/m 10,1 C 15,8 C 9,7 km/h (2 Bft) 91,67 %
19.05.2016 11:21 15,8 C 68 % 1008,4 hPa 0,0 l/m 7,5 km/h (2 Bft) W-SW 248 1 min 0,000 mm 2,7 UV-I 498 W/m 9,9 C 15,2 C 11,3 km/h (2 Bft) 100,00 %
19.05.2016 11:22 15,9 C 69 % 1008,3 hPa 0,0 l/m 7,3 km/h (2 Bft) W 262 1 min 0,000 mm 2,7 UV-I 511 W/m 10,2 C 15,4 C 11,3 km/h (2 Bft) 96,15 %
19.05.2016 11:23 15,9 C 69 % 1008,3 hPa 0,0 l/m 7,0 km/h (2 Bft) SW 222 1 min 0,000 mm 2,7 UV-I 489 W/m 10,2 C 15,6 C 11,3 km/h (2 Bft) 100,00 %
19.05.2016 11:24 15,9 C 67 % 1008,3 hPa 0,0 l/m 5,5 km/h (1 Bft) S-SW 196 1 min 0,000 mm 2,6 UV-I 469 W/m 9,8 C 15,9 C 8,0 km/h (2 Bft) 95,65 %
19.05.2016 11:25 15,8 C 70 % 1008,3 hPa 0,0 l/m 1,6 km/h (1 Bft) S-SW 196 1 min 0,000 mm 2,6 UV-I 470 W/m 10,3 C 15,8 C 3,2 km/h (1 Bft) 95,83 %
19.05.2016 11:26 15,9 C 71 % 1008,3 hPa 0,0 l/m 0,7 km/h (0 Bft) S-SW 196 1 min 0,000 mm 2,7 UV-I 488 W/m 10,6 C 15,9 C 3,2 km/h (1 Bft) 100,00 %
19.05.2016 11:27 16,1 C 71 % 1008,3 hPa 0,0 l/m 1,2 km/h (1 Bft) SW 215 1 min 0,000 mm 2,6 UV-I 472 W/m 10,8 C 16,1 C 4,8 km/h (1 Bft) 96,30 %
19.05.2016 11:28 16,2 C 69 % 1008,3 hPa 0,0 l/m 3,4 km/h (1 Bft) SW 229 1 min 0,000 mm 2,6 UV-I 467 W/m 10,5 C 16,2 C 4,8 km/h (1 Bft) 100,00 %
19.05.2016 11:29 16,2 C 70 % 1008,3 hPa 0,0 l/m 2,0 km/h (1 Bft) W 269 1 min 0,000 mm 2,6 UV-I 468 W/m 10,7 C 16,2 C 4,8 km/h (1 Bft) 96,67 %
19.05.2016 11:30 16,3 C 68 % 1008,3 hPa 0,0 l/m 7,2 km/h (2 Bft) SW 235 1 min 0,000 mm 2,6 UV-I 470 W/m 10,4 C 15,9 C 12,9 km/h (3 Bft) 100,00 %
19.05.2016 11:31 16,2 C 69 % 1008,3 hPa 0,0 l/m 4,5 km/h (1 Bft) W-SW 250 1 min 0,000 mm 2,6 UV-I 471 W/m 10,5 C 16,2 C 6,4 km/h (2 Bft) 91,67 %
19.05.2016 11:32 16,3 C 68 % 1008,3 hPa 0,0 l/m 7,6 km/h (2 Bft) W 271 1 min 0,000 mm 2,6 UV-I 471 W/m 10,4 C 15,7 C 12,9 km/h (3 Bft) 96,88 %
19.05.2016 11:33 16,3 C 68 % 1008,3 hPa 0,0 l/m 7,4 km/h (2 Bft) W-NW 286 1 min 0,000 mm 2,6 UV-I 470 W/m 10,4 C 15,8 C 14,5 km/h (3 Bft) 100,00 %
19.05.2016 11:34 16,3 C 67 % 1008,3 hPa 0,0 l/m 3,8 km/h (1 Bft) W-NW 290 1 min 0,000 mm 2,6 UV-I 466 W/m 10,2 C 16,3 C 6,4 km/h (2 Bft) 95,65 %
19.05.2016 11:35 16,3 C 66 % 1008,3 hPa 0,0 l/m 3,5 km/h (1 Bft) W-NW 288 1 min 0,000 mm 2,6 UV-I 470 W/m 9,9 C 16,3 C 4,8 km/h (1 Bft) 100,00 %
19.05.2016 11:36 16,2 C 65 % 1008,3 hPa 0,0 l/m 1,8 km/h (1 Bft) W-NW 288 1 min 0,000 mm 2,6 UV-I 482 W/m 9,6 C 16,2 C 3,2 km/h (1 Bft) 92,86 %
19.05.2016 11:37 16,1 C 66 % 1008,3 hPa 0,0 l/m 0,1 km/h (0 Bft) W-NW 288 1 min 0,000 mm 2,6 UV-I 481 W/m 9,7 C 16,1 C 1,6 km/h (1 Bft) 100,00 %
19.05.2016 11:38 16,1 C 67 % 1008,3 hPa 0,0 l/m 0,3 km/h (0 Bft) W-NW 288 1 min 0,000 mm 2,6 UV-I 475 W/m 10,0 C 16,1 C 1,6 km/h (1 Bft) 93,10 %
19.05.2016 11:40 16,1 C 67 % 1008,3 hPa 0,0 l/m 0,0 km/h (0 Bft) W-NW 292 2 min 0,000 mm 2,6 UV-I 475 W/m 10,0 C 16,1 C 4,8 km/h (1 Bft) 98,25 %
19.05.2016 11:41 16,1 C 68 % 1008,3 hPa 0,0 l/m 1,1 km/h (1 Bft) W-NW 288 1 min 0,000 mm 2,6 UV-I 468 W/m 10,2 C 16,1 C 1,6 km/h (1 Bft) 98,61 %
19.05.2016 11:42 16,2 C 68 % 1008,3 hPa 0,0 l/m 0,7 km/h (0 Bft) W-NW 288 1 min 0,000 mm 2,6 UV-I 464 W/m 10,3 C 16,2 C 1,6 km/h (1 Bft) 100,00 %
19.05.2016 11:43 16,3 C 70 % 1008,3 hPa 0,0 l/m 2,5 km/h (1 Bft) SW 226 1 min 0,000 mm 2,6 UV-I 466 W/m 10,8 C 16,3 C 4,8 km/h (1 Bft) 100,00 %
19.05.2016 11:44 16,3 C 69 % 1008,3 hPa 0,0 l/m 4,0 km/h (1 Bft) NO 55 1 min 0,000 mm 2,6 UV-I 470 W/m 10,6 C 16,3 C 6,4 km/h (2 Bft) 100,00 %
19.05.2016 11:45 16,4 C 70 % 1008,3 hPa 0,0 l/m 5,1 km/h (1 Bft) NO 38 1 min 0,000 mm 2,6 UV-I 471 W/m 10,9 C 16,4 C 6,4 km/h (2 Bft) 100,00 %
19.05.2016 11:46 16,5 C 71 % 1008,3 hPa 0,0 l/m 2,2 km/h (1 Bft) N-NO 19 1 min 0,000 mm 2,6 UV-I 473 W/m 11,2 C 16,5 C 4,8 km/h (1 Bft) 100,00 %
19.05.2016 11:47 16,5 C 74 % 1008,3 hPa 0,0 l/m 4,3 km/h (1 Bft) N-NO 26 1 min 0,000 mm 2,6 UV-I 479 W/m 11,8 C 16,5 C 6,4 km/h (2 Bft) 96,30 %
19.05.2016 11:48 16,4 C 70 % 1008,3 hPa 0,0 l/m 2,8 km/h (1 Bft) N-NO 27 1 min 0,000 mm 2,6 UV-I 488 W/m 10,9 C 16,4 C 4,8 km/h (1 Bft) 100,00 %
19.05.2016 11:49 16,4 C 69 % 1008,3 hPa 0,0 l/m 3,4 km/h (1 Bft) N-NO 24 1 min 0,000 mm 2,7 UV-I 493 W/m 10,7 C 16,4 C 4,8 km/h (1 Bft) 100,00 %
19.05.2016 11:50 16,5 C 73 % 1008,3 hPa 0,0 l/m 3,1 km/h (1 Bft) O-NO 69 1 min 0,000 mm 2,8 UV-I 538 W/m 11,6 C 16,5 C 8,0 km/h (2 Bft) 100,00 %
19.05.2016 11:51 16,5 C 70 % 1008,4 hPa 0,0 l/m 0,8 km/h (0 Bft) NO 46 1 min 0,000 mm 2,8 UV-I 536 W/m 11,0 C 16,5 C 1,6 km/h (1 Bft) 95,83 %
19.05.2016 11:52 16,6 C 73 % 1008,3 hPa 0,0 l/m 1,0 km/h (0 Bft) NO 34 1 min 0,000 mm 2,9 UV-I 577 W/m 11,7 C 16,6 C 4,8 km/h (1 Bft) 100,00 %
19.05.2016 11:53 16,6 C 73 % 1008,3 hPa 0,0 l/m 0,8 km/h (0 Bft) N-NO 22 1 min 0,000 mm 2,9 UV-I 588 W/m 11,7 C 16,6 C 1,6 km/h (1 Bft) 100,00 %
19.05.2016 11:54 16,6 C 72 % 1008,3 hPa 0,0 l/m 4,1 km/h (1 Bft) N-NO 14 1 min 0,000 mm 3,0 UV-I 613 W/m 11,5 C 16,6 C 8,0 km/h (2 Bft) 100,00 %
19.05.2016 11:55 16,7 C 71 % 1008,3 hPa 0,0 l/m 1,6 km/h (1 Bft) N 355 1 min 0,000 mm 2,9 UV-I 587 W/m 11,4 C 16,7 C 3,2 km/h (1 Bft) 100,00 %
19.05.2016 11:56 16,7 C 73 % 1008,3 hPa 0,0 l/m 2,1 km/h (1 Bft) N 355 1 min 0,000 mm 2,9 UV-I 550 W/m 11,8 C 16,7 C 4,8 km/h (1 Bft) 100,00 %
19.05.2016 11:57 16,7 C 68 % 1008,3 hPa 0,0 l/m 5,6 km/h (1 Bft) N-NO 23 1 min 0,000 mm 2,8 UV-I 529 W/m 10,8 C 16,7 C 12,9 km/h (3 Bft) 95,83 %
19.05.2016 11:58 16,7 C 73 % 1008,3 hPa 0,0 l/m 2,2 km/h (1 Bft) N-NW 333 1 min 0,000 mm 2,8 UV-I 521 W/m 11,8 C 16,7 C 4,8 km/h (1 Bft) 100,00 %
19.05.2016 11:59 16,8 C 70 % 1008,3 hPa 0,0 l/m 0,7 km/h (0 Bft) N 351 1 min 0,000 mm 2,8 UV-I 530 W/m 11,3 C 16,8 C 1,6 km/h (1 Bft) 96,15 %
19.05.2016 12:00 16,8 C 70 % 1008,4 hPa 0,0 l/m 5,5 km/h (1 Bft) N-NW 335 1 min 0,000 mm 2,9 UV-I 539 W/m 11,3 C 16,8 C 9,7 km/h (2 Bft) 96,15 %
19.05.2016 12:01 16,8 C 67 % 1008,4 hPa 0,0 l/m 2,3 km/h (1 Bft) N-NW 332 1 min 0,279 mm 2,9 UV-I 544 W/m 10,6 C 16,8 C 4,8 km/h (1 Bft) 100,00 %
19.05.2016 12:02 16,7 C 69 % 1008,3 hPa 0,0 l/m 1,7 km/h (1 Bft) W-NW 299 1 min 0,000 mm 2,9 UV-I 543 W/m 11,0 C 16,7 C 4,8 km/h (1 Bft) 100,00 %
19.05.2016 12:03 16,7 C 68 % 1008,3 hPa 0,0 l/m 2,4 km/h (1 Bft) NW 325 1 min 0,000 mm 3,0 UV-I 570 W/m 10,8 C 16,7 C 3,2 km/h (1 Bft) 100,00 %
19.05.2016 12:04 16,7 C 66 % 1008,4 hPa 0,0 l/m 0,8 km/h (0 Bft) NW 317 1 min 0,000 mm 3,0 UV-I 574 W/m 10,3 C 16,7 C 1,6 km/h (1 Bft) 100,00 %
19.05.2016 12:05 16,6 C 66 % 1008,4 hPa 0,0 l/m 3,3 km/h (1 Bft) NW 307 1 min 0,000 mm 3,0 UV-I 569 W/m 10,2 C 16,6 C 4,8 km/h (1 Bft) 100,00 %
19.05.2016 12:06 16,6 C 66 % 1008,3 hPa 0,0 l/m 1,2 km/h (1 Bft) NW 307 1 min 0,000 mm 3,0 UV-I 559 W/m 10,2 C 16,6 C 3,2 km/h (1 Bft) 100,00 %
19.05.2016 12:07 16,6 C 67 % 1008,4 hPa 0,0 l/m 1,6 km/h (1 Bft) NW 304 1 min 0,000 mm 3,0 UV-I 563 W/m 10,4 C 16,6 C 3,2 km/h (1 Bft) 95,65 %
19.05.2016 12:08 16,6 C 66 % 1008,4 hPa 0,0 l/m 4,1 km/h (1 Bft) N-NW 330 1 min 0,000 mm 3,0 UV-I 577 W/m 10,2 C 16,6 C 6,4 km/h (2 Bft) 100,00 %
19.05.2016 12:09 16,7 C 68 % 1008,4 hPa 0,0 l/m 2,6 km/h (1 Bft) N-NW 329 1 min 0,000 mm 3,1 UV-I 565 W/m 10,8 C 16,7 C 4,8 km/h (1 Bft) 100,00 %
19.05.2016 12:10 16,8 C 73 % 1008,4 hPa 0,0 l/m 1,7 km/h (1 Bft) NW 321 1 min 0,000 mm 3,0 UV-I 557 W/m 11,9 C 16,8 C 3,2 km/h (1 Bft) 100,00 %
19.05.2016 12:11 16,9 C 73 % 1008,4 hPa 0,0 l/m 3,6 km/h (1 Bft) N-NW 333 1 min 0,000 mm 3,1 UV-I 584 W/m 12,0 C 16,9 C 6,4 km/h (2 Bft) 100,00 %
19.05.2016 12:12 17,0 C 68 % 1008,3 hPa 0,0 l/m 4,7 km/h (1 Bft) W 270 1 min 0,000 mm 3,0 UV-I 571 W/m 11,0 C 17,0 C 11,3 km/h (2 Bft) 100,00 %
19.05.2016 12:13 17,0 C 65 % 1008,4 hPa 0,0 l/m 5,4 km/h (1 Bft) W-SW 247 1 min 0,000 mm 2,9 UV-I 519 W/m 10,4 C 17,0 C 8,0 km/h (2 Bft) 96,55 %
19.05.2016 12:14 17,0 C 66 % 1008,4 hPa 0,0 l/m 5,3 km/h (1 Bft) S-SW 209 1 min 0,000 mm 2,9 UV-I 497 W/m 10,6 C 17,0 C 8,0 km/h (2 Bft) 100,00 %
19.05.2016 12:15 16,9 C 65 % 1008,3 hPa 0,0 l/m 2,9 km/h (1 Bft) SW 233 1 min 0,000 mm 2,9 UV-I 519 W/m 10,3 C 16,9 C 4,8 km/h (1 Bft) 100,00 %
19.05.2016 12:16 16,8 C 65 % 1008,3 hPa 0,0 l/m 1,7 km/h (1 Bft) SW 225 1 min 0,000 mm 3,0 UV-I 527 W/m 10,2 C 16,8 C 4,8 km/h (1 Bft) 100,00 %
19.05.2016 12:17 16,8 C 66 % 1008,3 hPa 0,0 l/m 4,6 km/h (1 Bft) W-SW 252 1 min 0,000 mm 3,0 UV-I 541 W/m 10,4 C 16,8 C 6,4 km/h (2 Bft) 97,62 %
19.05.2016 12:18 16,9 C 66 % 1008,3 hPa 0,0 l/m 7,9 km/h (2 Bft) S-SW 204 1 min 0,000 mm 3,1 UV-I 557 W/m 10,5 C 16,1 C 9,7 km/h (2 Bft) 100,00 %
19.05.2016 12:19 16,9 C 66 % 1008,3 hPa 0,0 l/m 9,8 km/h (2 Bft) S-SW 200 1 min 0,000 mm 3,1 UV-I 577 W/m 10,5 C 15,3 C 11,3 km/h (2 Bft) 100,00 %
19.05.2016 12:20 16,9 C 64 % 1008,3 hPa 0,0 l/m 4,2 km/h (1 Bft) SW 233 1 min 0,000 mm 3,1 UV-I 583 W/m 10,0 C 16,9 C 8,0 km/h (2 Bft) 100,00 %
19.05.2016 12:21 17,0 C 66 % 1008,3 hPa 0,0 l/m 9,5 km/h (2 Bft) S 182 1 min 0,000 mm 3,2 UV-I 593 W/m 10,6 C 15,5 C 14,5 km/h (3 Bft) 100,00 %
19.05.2016 12:22 17,1 C 66 % 1008,3 hPa 0,0 l/m 4,4 km/h (1 Bft) W-SW 244 1 min 0,000 mm 3,2 UV-I 591 W/m 10,7 C 17,1 C 6,4 km/h (2 Bft) 100,00 %
19.05.2016 12:23 17,1 C 66 % 1008,3 hPa 0,0 l/m 9,7 km/h (2 Bft) SW 234 1 min 0,000 mm 3,2 UV-I 596 W/m 10,7 C 15,6 C 11,3 km/h (2 Bft) 100,00 %
19.05.2016 12:24 17,2 C 66 % 1008,3 hPa 0,0 l/m 6,1 km/h (2 Bft) W-SW 238 1 min 0,000 mm 3,2 UV-I 591 W/m 10,8 C 17,2 C 9,7 km/h (2 Bft) 100,00 %
19.05.2016 12:25 17,1 C 65 % 1008,3 hPa 0,0 l/m 3,4 km/h (1 Bft) W-SW 238 1 min 0,000 mm 3,2 UV-I 566 W/m 10,5 C 17,1 C 4,8 km/h (1 Bft) 98,81 %
19.05.2016 12:26 17,2 C 69 % 1008,2 hPa 0,0 l/m 3,5 km/h (1 Bft) SW 235 1 min 0,000 mm 3,1 UV-I 556 W/m 11,5 C 17,2 C 6,4 km/h (2 Bft) 100,00 %
19.05.2016 12:27 17,3 C 68 % 1008,3 hPa 0,0 l/m 2,5 km/h (1 Bft) W-SW 252 1 min 0,000 mm 3,3 UV-I 604 W/m 11,3 C 17,3 C 6,4 km/h (2 Bft) 100,00 %
19.05.2016 12:28 17,3 C 67 % 1008,3 hPa 0,0 l/m 4,4 km/h (1 Bft) W-NW 287 1 min 0,000 mm 3,2 UV-I 596 W/m 11,1 C 17,3 C 6,4 km/h (2 Bft) 95,65 %
19.05.2016 12:29 17,3 C 65 % 1008,3 hPa 0,0 l/m 3,3 km/h (1 Bft) W 279 1 min 0,000 mm 3,1 UV-I 554 W/m 10,7 C 17,3 C 4,8 km/h (1 Bft) 100,00 %
19.05.2016 12:30 17,3 C 64 % 1008,2 hPa 0,0 l/m 1,1 km/h (1 Bft) W 279 1 min 0,000 mm 3,0 UV-I 520 W/m 10,4 C 17,3 C 3,2 km/h (1 Bft) 100,00 %
19.05.2016 12:31 17,3 C 66 % 1008,2 hPa 0,0 l/m 3,9 km/h (1 Bft) W-SW 249 1 min 0,000 mm 3,1 UV-I 534 W/m 10,9 C 17,3 C 6,4 km/h (2 Bft) 100,00 %
19.05.2016 12:32 17,3 C 66 % 1008,2 hPa 0,0 l/m 2,7 km/h (1 Bft) W 271 1 min 0,000 mm 3,0 UV-I 527 W/m 10,9 C 17,3 C 4,8 km/h (1 Bft) 100,00 %
19.05.2016 12:33 17,4 C 68 % 1008,2 hPa 0,0 l/m 1,6 km/h (1 Bft) N 355 1 min 0,000 mm 3,0 UV-I 520 W/m 11,4 C 17,4 C 3,2 km/h (1 Bft) 95,83 %
19.05.2016 12:34 17,4 C 68 % 1008,2 hPa 0,0 l/m 5,1 km/h (1 Bft) W-SW 244 1 min 0,000 mm 3,0 UV-I 530 W/m 11,4 C 17,4 C 11,3 km/h (2 Bft) 100,00 %
19.05.2016 12:35 17,4 C 67 % 1008,3 hPa 0,0 l/m 9,2 km/h (2 Bft) NW 306 1 min 0,000 mm 3,0 UV-I 535 W/m 11,2 C 16,1 C 12,9 km/h (3 Bft) 100,00 %
19.05.2016 12:36 17,3 C 65 % 1008,2 hPa 0,0 l/m 3,1 km/h (1 Bft) N-NW 329 1 min 0,000 mm 3,0 UV-I 528 W/m 10,7 C 17,3 C 6,4 km/h (2 Bft) 100,00 %
19.05.2016 12:37 17,3 C 66 % 1008,2 hPa 0,0 l/m 1,5 km/h (1 Bft) NW 308 1 min 0,000 mm 3,0 UV-I 527 W/m 10,9 C 17,3 C 3,2 km/h (1 Bft) 100,00 %
19.05.2016 12:38 17,3 C 69 % 1008,2 hPa 0,0 l/m 3,6 km/h (1 Bft) N-NW 329 1 min 0,000 mm 3,0 UV-I 549 W/m 11,6 C 17,3 C 6,4 km/h (2 Bft) 100,00 %
19.05.2016 12:39 17,3 C 66 % 1008,2 hPa 0,0 l/m 1,9 km/h (1 Bft) NW 314 1 min 0,000 mm 3,0 UV-I 564 W/m 10,9 C 17,3 C 3,2 km/h (1 Bft) 100,00 %
19.05.2016 12:40 17,3 C 66 % 1008,1 hPa 0,0 l/m 0,4 km/h (0 Bft) NW 314 1 min 0,000 mm 3,0 UV-I 555 W/m 10,9 C 17,3 C 1,6 km/h (1 Bft) 100,00 %
19.05.2016 12:41 17,3 C 65 % 1008,2 hPa 0,0 l/m 0,8 km/h (0 Bft) NW 314 1 min 0,000 mm 3,0 UV-I 556 W/m 10,7 C 17,3 C 1,6 km/h (1 Bft) 100,00 %
19.05.2016 12:42 17,3 C 65 % 1008,1 hPa 0,0 l/m 5,8 km/h (2 Bft) W-SW 238 1 min 0,000 mm 3,0 UV-I 542 W/m 10,7 C 17,3 C 8,0 km/h (2 Bft) 100,00 %
19.05.2016 12:43 17,4 C 66 % 1008,2 hPa 0,0 l/m 6,0 km/h (2 Bft) W-SW 240 1 min 0,000 mm 2,9 UV-I 521 W/m 11,0 C 17,4 C 9,7 km/h (2 Bft) 100,00 %
19.05.2016 12:44 17,4 C 66 % 1008,1 hPa 0,0 l/m 10,7 km/h (2 Bft) W-SW 248 1 min 0,000 mm 2,8 UV-I 506 W/m 11,0 C 15,5 C 14,5 km/h (3 Bft) 100,00 %
19.05.2016 12:45 17,3 C 64 % 1008,1 hPa 0,0 l/m 7,3 km/h (2 Bft) W-SW 258 1 min 0,000 mm 2,7 UV-I 489 W/m 10,4 C 16,9 C 11,3 km/h (2 Bft) 100,00 %
19.05.2016 12:46 17,2 C 65 % 1008,2 hPa 0,0 l/m 6,7 km/h (2 Bft) W 273 0 min 0,000 mm 2,7 UV-I 451 W/m 10,6 C 17,1 C 11,3 km/h (2 Bft) 100,00 %
19.05.2016 12:47 17,2 C 66 % 1008,2 hPa 0,0 l/m 8,9 km/h (2 Bft) W-NW 286 0 min 0,000 mm 2,6 UV-I 435 W/m 10,8 C 16,0 C 14,5 km/h (3 Bft) 96,55 %
19.05.2016 12:48 17,2 C 66 % 1008,2 hPa 0,0 l/m 7,2 km/h (2 Bft) W-NW 298 0 min 0,000 mm 2,5 UV-I 434 W/m 10,8 C 16,8 C 11,3 km/h (2 Bft) 100,00 %
19.05.2016 12:49 17,1 C 66 % 1008,1 hPa 0,0 l/m 8,9 km/h (2 Bft) W-NW 285 0 min 0,000 mm 2,5 UV-I 435 W/m 10,7 C 15,9 C 12,9 km/h (3 Bft) 100,00 %
19.05.2016 12:50 17,1 C 66 % 1008,1 hPa 0,0 l/m 4,2 km/h (1 Bft) W-SW 251 0 min 0,000 mm 2,5 UV-I 440 W/m 10,7 C 17,1 C 8,0 km/h (2 Bft) 100,00 %
19.05.2016 12:51 17,1 C 67 % 1008,2 hPa 0,0 l/m 5,1 km/h (1 Bft) SW 232 0 min 0,000 mm 2,6 UV-I 450 W/m 10,9 C 17,1 C 8,0 km/h (2 Bft) 100,00 %
19.05.2016 12:52 17,1 C 68 % 1008,2 hPa 0,0 l/m 1,9 km/h (1 Bft) SW 232 0 min 0,000 mm 2,6 UV-I 455 W/m 11,1 C 17,1 C 3,2 km/h (1 Bft) 100,00 %
19.05.2016 12:53 17,1 C 70 % 1008,1 hPa 0,0 l/m 1,3 km/h (1 Bft) W-SW 242 0 min 0,000 mm 2,6 UV-I 452 W/m 11,6 C 17,1 C 8,0 km/h (2 Bft) 95,65 %
19.05.2016 12:54 17,1 C 67 % 1008,1 hPa 0,0 l/m 6,4 km/h (2 Bft) W-SW 248 0 min 0,000 mm 2,5 UV-I 452 W/m 10,9 C 17,1 C 11,3 km/h (2 Bft) 100,00 %
19.05.2016 12:55 17,1 C 67 % 1008,1 hPa 0,0 l/m 4,5 km/h (1 Bft) W-SW 248 0 min 0,000 mm 2,5 UV-I 447 W/m 10,9 C 17,1 C 8,0 km/h (2 Bft) 100,00 %
19.05.2016 12:56 17,1 C 68 % 1008,1 hPa 0,0 l/m 1,9 km/h (1 Bft) NW 323 0 min 0,000 mm 2,5 UV-I 448 W/m 11,1 C 17,1 C 3,2 km/h (1 Bft) 100,00 %
19.05.2016 12:57 17,1 C 71 % 1008,1 hPa 0,0 l/m 4,3 km/h (1 Bft) W 281 0 min 0,000 mm 2,6 UV-I 449 W/m 11,8 C 17,1 C 9,7 km/h (2 Bft) 100,00 %
19.05.2016 12:58 17,1 C 66 % 1008,1 hPa 0,0 l/m 5,5 km/h (1 Bft) NW 324 0 min 0,000 mm 2,6 UV-I 451 W/m 10,7 C 17,1 C 9,7 km/h (2 Bft) 100,00 %
19.05.2016 12:59 17,1 C 68 % 1008,2 hPa 0,0 l/m 3,1 km/h (1 Bft) W 259 0 min 0,000 mm 2,6 UV-I 455 W/m 11,1 C 17,1 C 6,4 km/h (2 Bft) 100,00 %
19.05.2016 13:00 17,1 C 67 % 1008,2 hPa 0,0 l/m 7,5 km/h (2 Bft) W 261 0 min 0,000 mm 2,6 UV-I 462 W/m 10,9 C 16,5 C 12,9 km/h (3 Bft) 100,00 %
19.05.2016 13:02 17,1 C 66 % 1008,2 hPa 0,0 l/m 4,6 km/h (1 Bft) W 280 0 min 0,305 mm 2,6 UV-I 460 W/m 10,7 C 17,1 C 9,7 km/h (2 Bft) 95,45 %
19.05.2016 13:03 17,1 C 67 % 1008,1 hPa 0,0 l/m 3,4 km/h (1 Bft) W 277 0 min 0,000 mm 2,6 UV-I 461 W/m 10,9 C 17,1 C 4,8 km/h (1 Bft) 100,00 %
19.05.2016 13:04 17,1 C 66 % 1008,1 hPa 0,0 l/m 6,4 km/h (2 Bft) W 281 0 min 0,000 mm 2,7 UV-I 462 W/m 10,7 C 17,1 C 12,9 km/h (3 Bft) 95,65 %
19.05.2016 13:05 17,1 C 65 % 1008,2 hPa 0,0 l/m 6,0 km/h (2 Bft) W 279 0 min 0,000 mm 2,7 UV-I 477 W/m 10,5 C 17,1 C 11,3 km/h (2 Bft) 96,30 %
19.05.2016 13:06 17,1 C 66 % 1008,2 hPa 0,0 l/m 9,6 km/h (2 Bft) W-SW 247 1 min 0,000 mm 2,8 UV-I 515 W/m 10,7 C 15,6 C 12,9 km/h (3 Bft) 100,00 %
19.05.2016 13:07 17,1 C 65 % 1008,2 hPa 0,0 l/m 7,0 km/h (2 Bft) W-SW 240 1 min 0,000 mm 2,9 UV-I 537 W/m 10,5 C 16,8 C 9,7 km/h (2 Bft) 95,83 %
19.05.2016 13:08 17,1 C 65 % 1008,2 hPa 0,0 l/m 2,8 km/h (1 Bft) W 278 1 min 0,000 mm 2,9 UV-I 542 W/m 10,5 C 17,1 C 4,8 km/h (1 Bft) 100,00 %
19.05.2016 13:09 17,2 C 67 % 1008,2 hPa 0,0 l/m 7,3 km/h (2 Bft) W 259 1 min 0,000 mm 2,9 UV-I 530 W/m 11,0 C 16,8 C 11,3 km/h (2 Bft) 95,83 %
19.05.2016 13:10 17,2 C 65 % 1008,2 hPa 0,0 l/m 8,2 km/h (2 Bft) W-SW 250 1 min 0,000 mm 2,9 UV-I 539 W/m 10,6 C 16,3 C 11,3 km/h (2 Bft) 100,00 %
19.05.2016 13:11 17,2 C 65 % 1008,2 hPa 0,0 l/m 4,1 km/h (1 Bft) W-SW 250 1 min 0,000 mm 2,9 UV-I 536 W/m 10,6 C 17,2 C 6,4 km/h (2 Bft) 92,59 %
19.05.2016 13:12 17,3 C 68 % 1008,2 hPa 0,0 l/m 3,6 km/h (1 Bft) SW 228 1 min 0,000 mm 2,8 UV-I 513 W/m 11,3 C 17,3 C 4,8 km/h (1 Bft) 100,00 %
19.05.2016 13:13 17,3 C 66 % 1008,2 hPa 0,0 l/m 5,1 km/h (1 Bft) W-SW 252 1 min 0,000 mm 2,8 UV-I 526 W/m 10,9 C 17,3 C 6,4 km/h (2 Bft) 96,15 %
19.05.2016 13:14 17,4 C 68 % 1008,2 hPa 0,0 l/m 3,2 km/h (1 Bft) W-NW 303 1 min 0,000 mm 2,9 UV-I 544 W/m 11,4 C 17,4 C 6,4 km/h (2 Bft) 92,59 %
19.05.2016 13:15 17,4 C 65 % 1008,2 hPa 0,0 l/m 4,2 km/h (1 Bft) W-SW 248 1 min 0,000 mm 2,9 UV-I 547 W/m 10,8 C 17,4 C 6,4 km/h (2 Bft) 95,65 %
19.05.2016 13:16 17,3 C 65 % 1008,2 hPa 0,0 l/m 3,9 km/h (1 Bft) W 274 1 min 0,000 mm 3,0 UV-I 559 W/m 10,7 C 17,3 C 8,0 km/h (2 Bft) 100,00 %
19.05.2016 13:17 17,3 C 65 % 1008,2 hPa 0,0 l/m 6,5 km/h (2 Bft) W-SW 258 1 min 0,000 mm 3,1 UV-I 589 W/m 10,7 C 17,3 C 11,3 km/h (2 Bft) 92,86 %
19.05.2016 13:18 17,4 C 67 % 1008,1 hPa 0,0 l/m 4,8 km/h (1 Bft) W 273 1 min 0,000 mm 3,1 UV-I 598 W/m 11,2 C 17,4 C 11,3 km/h (2 Bft) 97,62 %
19.05.2016 13:19 17,5 C 65 % 1008,1 hPa 0,0 l/m 7,9 km/h (2 Bft) W 259 1 min 0,000 mm 3,1 UV-I 588 W/m 10,8 C 16,8 C 11,3 km/h (2 Bft) 95,65 %
19.05.2016 13:20 17,6 C 64 % 1008,1 hPa 0,0 l/m 4,8 km/h (1 Bft) W-SW 242 1 min 0,000 mm 3,1 UV-I 595 W/m 10,7 C 17,6 C 8,0 km/h (2 Bft) 95,83 %
19.05.2016 13:21 17,5 C 63 % 1008,2 hPa 0,0 l/m 3,6 km/h (1 Bft) W 272 1 min 0,000 mm 3,1 UV-I 614 W/m 10,4 C 17,5 C 6,4 km/h (2 Bft) 100,00 %
19.05.2016 13:22 17,5 C 64 % 1008,2 hPa 0,0 l/m 2,4 km/h (1 Bft) NW 319 1 min 0,000 mm 3,2 UV-I 633 W/m 10,6 C 17,5 C 4,8 km/h (1 Bft) 95,83 %
19.05.2016 13:23 17,4 C 64 % 1008,1 hPa 0,0 l/m 4,9 km/h (1 Bft) NW 313 1 min 0,000 mm 3,1 UV-I 610 W/m 10,5 C 17,4 C 9,7 km/h (2 Bft) 100,00 %
19.05.2016 13:24 17,4 C 64 % 1008,1 hPa 0,0 l/m 4,7 km/h (1 Bft) W 259 1 min 0,000 mm 3,1 UV-I 581 W/m 10,5 C 17,4 C 6,4 km/h (2 Bft) 96,67 %
19.05.2016 13:25 17,4 C 65 % 1008,1 hPa 0,0 l/m 4,9 km/h (1 Bft) W-NW 288 1 min 0,000 mm 3,1 UV-I 580 W/m 10,8 C 17,4 C 11,3 km/h (2 Bft) 96,15 %
19.05.2016 13:26 17,4 C 65 % 1008,1 hPa 0,0 l/m 7,5 km/h (2 Bft) W-NW 298 1 min 0,000 mm 3,0 UV-I 560 W/m 10,8 C 16,9 C 11,3 km/h (2 Bft) 100,00 %
19.05.2016 13:27 17,3 C 63 % 1008,1 hPa 0,0 l/m 4,6 km/h (1 Bft) N-NW 333 1 min 0,000 mm 3,0 UV-I 554 W/m 10,2 C 17,3 C 8,0 km/h (2 Bft) 95,65 %
19.05.2016 13:28 17,3 C 67 % 1008,1 hPa 0,0 l/m 5,6 km/h (1 Bft) W-NW 290 1 min 0,000 mm 2,9 UV-I 540 W/m 11,1 C 17,3 C 9,7 km/h (2 Bft) 100,00 %
19.05.2016 13:29 17,3 C 66 % 1008,1 hPa 0,0 l/m 1,9 km/h (1 Bft) N-NW 341 1 min 0,000 mm 2,9 UV-I 524 W/m 10,9 C 17,3 C 3,2 km/h (1 Bft) 92,86 %
19.05.2016 13:30 17,3 C 65 % 1008,1 hPa 0,0 l/m 3,4 km/h (1 Bft) W-NW 295 1 min 0,000 mm 2,8 UV-I 509 W/m 10,7 C 17,3 C 6,4 km/h (2 Bft) 100,00 %
19.05.2016 13:31 17,3 C 67 % 1008,1 hPa 0,0 l/m 2,2 km/h (1 Bft) NW 315 1 min 0,000 mm 2,7 UV-I 485 W/m 11,1 C 17,3 C 6,4 km/h (2 Bft) 96,15 %
19.05.2016 13:32 17,3 C 68 % 1008,1 hPa 0,0 l/m 3,4 km/h (1 Bft) W-NW 300 0 min 0,000 mm 2,7 UV-I 474 W/m 11,3 C 17,3 C 6,4 km/h (2 Bft) 96,30 %
19.05.2016 13:33 17,3 C 65 % 1008,1 hPa 0,0 l/m 3,2 km/h (1 Bft) N-NW 330 0 min 0,000 mm 2,6 UV-I 465 W/m 10,7 C 17,3 C 4,8 km/h (1 Bft) 100,00 %
19.05.2016 13:34 17,2 C 67 % 1008,2 hPa 0,0 l/m 3,9 km/h (1 Bft) NW 306 0 min 0,000 mm 2,6 UV-I 452 W/m 11,0 C 17,2 C 6,4 km/h (2 Bft) 95,83 %
19.05.2016 13:35 17,2 C 65 % 1008,2 hPa 0,0 l/m 3,4 km/h (1 Bft) NW 310 0 min 0,000 mm 2,5 UV-I 444 W/m 10,6 C 17,2 C 8,0 km/h (2 Bft) 100,00 %
19.05.2016 13:36 17,2 C 69 % 1008,2 hPa 0,0 l/m 2,2 km/h (1 Bft) NW 314 0 min 0,000 mm 2,5 UV-I 434 W/m 11,5 C 17,2 C 4,8 km/h (1 Bft) 100,00 %
19.05.2016 13:37 17,2 C 68 % 1008,2 hPa 0,0 l/m 3,9 km/h (1 Bft) N-NW 338 0 min 0,000 mm 2,4 UV-I 419 W/m 11,2 C 17,2 C 6,4 km/h (2 Bft) 100,00 %
19.05.2016 13:38 17,2 C 70 % 1008,2 hPa 0,0 l/m 2,0 km/h (1 Bft) N 355 0 min 0,000 mm 2,4 UV-I 408 W/m 11,7 C 17,2 C 3,2 km/h (1 Bft) 100,00 %
19.05.2016 13:39 17,2 C 71 % 1008,2 hPa 0,0 l/m 3,9 km/h (1 Bft) NW 309 0 min 0,000 mm 2,3 UV-I 397 W/m 11,9 C 17,2 C 12,9 km/h (3 Bft) 95,83 %
19.05.2016 13:40 17,2 C 67 % 1008,3 hPa 0,0 l/m 10,3 km/h (2 Bft) W-NW 302 0 min 0,000 mm 2,2 UV-I 388 W/m 11,0 C 15,4 C 14,5 km/h (3 Bft) 95,65 %
19.05.2016 13:41 17,1 C 66 % 1008,3 hPa 0,0 l/m 6,1 km/h (2 Bft) SW 226 0 min 0,000 mm 2,2 UV-I 380 W/m 10,7 C 17,1 C 9,7 km/h (2 Bft) 100,00 %
19.05.2016 13:42 17,1 C 66 % 1008,3 hPa 0,0 l/m 2,7 km/h (1 Bft) W-SW 239 0 min 0,000 mm 2,2 UV-I 380 W/m 10,7 C 17,1 C 4,8 km/h (1 Bft) 100,00 %
19.05.2016 13:43 16,9 C 66 % 1008,3 hPa 0,0 l/m 7,4 km/h (2 Bft) W 267 0 min 0,000 mm 2,1 UV-I 379 W/m 10,5 C 16,4 C 11,3 km/h (2 Bft) 100,00 %
19.05.2016 13:44 16,9 C 65 % 1008,3 hPa 0,0 l/m 4,2 km/h (1 Bft) W 267 0 min 0,000 mm 2,1 UV-I 374 W/m 10,3 C 16,9 C 6,4 km/h (2 Bft) 96,15 %
19.05.2016 13:45 16,8 C 67 % 1008,3 hPa 0,0 l/m 5,4 km/h (1 Bft) SW 225 0 min 0,000 mm 2,1 UV-I 370 W/m 10,6 C 16,8 C 9,7 km/h (2 Bft) 100,00 %
19.05.2016 13:46 16,8 C 67 % 1008,3 hPa 0,0 l/m 9,8 km/h (2 Bft) SW 232 0 min 0,000 mm 2,1 UV-I 373 W/m 10,6 C 15,2 C 17,7 km/h (3 Bft) 96,55 %
19.05.2016 13:47 16,8 C 68 % 1008,3 hPa 0,0 l/m 8,6 km/h (2 Bft) W-SW 250 0 min 0,000 mm 2,1 UV-I 375 W/m 10,9 C 15,7 C 14,5 km/h (3 Bft) 95,83 %
19.05.2016 13:48 16,8 C 65 % 1008,3 hPa 0,0 l/m 11,0 km/h (2 Bft) W-SW 256 0 min 0,000 mm 2,1 UV-I 381 W/m 10,2 C 14,7 C 16,1 km/h (3 Bft) 100,00 %
19.05.2016 13:49 16,8 C 66 % 1008,3 hPa 0,0 l/m 9,4 km/h (2 Bft) W-SW 257 0 min 0,000 mm 2,1 UV-I 380 W/m 10,4 C 15,4 C 12,9 km/h (3 Bft) 95,83 %
19.05.2016 13:50 16,9 C 66 % 1008,3 hPa 0,0 l/m 8,8 km/h (2 Bft) W 261 0 min 0,000 mm 2,1 UV-I 373 W/m 10,5 C 15,7 C 12,9 km/h (3 Bft) 100,00 %
19.05.2016 13:51 16,9 C 66 % 1008,3 hPa 0,0 l/m 5,6 km/h (1 Bft) W-SW 248 0 min 0,000 mm 2,1 UV-I 368 W/m 10,5 C 16,9 C 9,7 km/h (2 Bft) 100,00 %
19.05.2016 13:52 16,9 C 68 % 1008,3 hPa 0,0 l/m 4,6 km/h (1 Bft) SW 233 0 min 0,000 mm 2,1 UV-I 364 W/m 11,0 C 16,9 C 8,0 km/h (2 Bft) 100,00 %
19.05.2016 13:53 16,9 C 67 % 1008,3 hPa 0,0 l/m 10,5 km/h (2 Bft) SW 232 0 min 0,000 mm 2,0 UV-I 360 W/m 10,7 C 15,0 C 14,5 km/h (3 Bft) 100,00 %
19.05.2016 13:54 16,9 C 65 % 1008,3 hPa 0,0 l/m 6,7 km/h (2 Bft) NW 304 0 min 0,000 mm 2,0 UV-I 358 W/m 10,3 C 16,8 C 11,3 km/h (2 Bft) 100,00 %
19.05.2016 13:55 16,9 C 66 % 1008,3 hPa 0,0 l/m 3,2 km/h (1 Bft) W 281 0 min 0,000 mm 2,0 UV-I 355 W/m 10,5 C 16,9 C 4,8 km/h (1 Bft) 100,00 %
19.05.2016 13:56 16,9 C 68 % 1008,3 hPa 0,0 l/m 6,8 km/h (2 Bft) W 262 0 min 0,000 mm 2,0 UV-I 349 W/m 11,0 C 16,7 C 11,3 km/h (2 Bft) 100,00 %
19.05.2016 13:57 16,9 C 67 % 1008,3 hPa 0,0 l/m 7,1 km/h (2 Bft) W 272 0 min 0,000 mm 1,9 UV-I 344 W/m 10,7 C 16,5 C 9,7 km/h (2 Bft) 100,00 %
19.05.2016 13:58 16,9 C 68 % 1008,3 hPa 0,0 l/m 4,7 km/h (1 Bft) SW 236 0 min 0,000 mm 1,9 UV-I 339 W/m 11,0 C 16,9 C 8,0 km/h (2 Bft) 100,00 %
19.05.2016 13:59 16,9 C 67 % 1008,3 hPa 0,0 l/m 6,9 km/h (2 Bft) W 275 0 min 0,000 mm 1,9 UV-I 331 W/m 10,7 C 16,7 C 11,3 km/h (2 Bft) 100,00 %
19.05.2016 14:00 16,9 C 67 % 1008,3 hPa 0,0 l/m 3,5 km/h (1 Bft) SW 217 0 min 0,279 mm 1,8 UV-I 325 W/m 10,7 C 16,9 C 8,0 km/h (2 Bft) 100,00 %
19.05.2016 14:02 16,9 C 66 % 1008,3 hPa 0,0 l/m 7,1 km/h (2 Bft) W-SW 247 0 min 0,000 mm 1,8 UV-I 318 W/m 10,5 C 16,5 C 11,3 km/h (2 Bft) 97,87 %
19.05.2016 14:03 16,9 C 67 % 1008,3 hPa 0,0 l/m 7,9 km/h (2 Bft) W-SW 246 0 min 0,000 mm 1,8 UV-I 314 W/m 10,7 C 16,1 C 11,3 km/h (2 Bft) 95,65 %
19.05.2016 14:04 16,9 C 67 % 1008,3 hPa 0,0 l/m 9,2 km/h (2 Bft) W-SW 250 0 min 0,000 mm 1,7 UV-I 309 W/m 10,7 C 15,6 C 12,9 km/h (3 Bft) 100,00 %
19.05.2016 14:05 16,9 C 67 % 1008,3 hPa 0,0 l/m 7,0 km/h (2 Bft) W-SW 242 0 min 0,000 mm 1,7 UV-I 305 W/m 10,7 C 16,6 C 11,3 km/h (2 Bft) 100,00 %
19.05.2016 14:06 16,9 C 66 % 1008,3 hPa 0,0 l/m 11,2 km/h (2 Bft) W-SW 245 0 min 0,000 mm 1,7 UV-I 301 W/m 10,5 C 14,8 C 14,5 km/h (3 Bft) 100,00 %
19.05.2016 14:07 16,9 C 66 % 1008,3 hPa 0,0 l/m 11,2 km/h (2 Bft) W-SW 240 0 min 0,000 mm 1,7 UV-I 297 W/m 10,5 C 14,8 C 14,5 km/h (3 Bft) 100,00 %
19.05.2016 14:08 16,8 C 67 % 1008,4 hPa 0,0 l/m 8,6 km/h (2 Bft) W-NW 283 0 min 0,000 mm 1,6 UV-I 294 W/m 10,6 C 15,7 C 11,3 km/h (2 Bft) 100,00 %
19.05.2016 14:09 16,8 C 67 % 1008,3 hPa 0,0 l/m 4,7 km/h (1 Bft) W-SW 254 0 min 0,000 mm 1,6 UV-I 291 W/m 10,6 C 16,8 C 8,0 km/h (2 Bft) 100,00 %
19.05.2016 14:10 16,8 C 67 % 1008,3 hPa 0,0 l/m 5,2 km/h (1 Bft) SW 234 0 min 0,000 mm 1,6 UV-I 288 W/m 10,6 C 16,8 C 6,4 km/h (2 Bft) 100,00 %
19.05.2016 14:11 16,8 C 68 % 1008,4 hPa 0,0 l/m 5,3 km/h (1 Bft) W-SW 252 0 min 0,000 mm 1,6 UV-I 287 W/m 10,9 C 16,8 C 6,4 km/h (2 Bft) 100,00 %
19.05.2016 14:12 16,8 C 69 % 1008,4 hPa 0,0 l/m 5,8 km/h (2 Bft) W-NW 293 0 min 0,000 mm 1,5 UV-I 286 W/m 11,1 C 16,8 C 9,7 km/h (2 Bft) 93,33 %
19.05.2016 14:13 16,8 C 67 % 1008,4 hPa 0,0 l/m 10,5 km/h (2 Bft) W 263 0 min 0,000 mm 1,5 UV-I 284 W/m 10,6 C 14,9 C 14,5 km/h (3 Bft) 100,00 %
19.05.2016 14:14 16,8 C 69 % 1008,4 hPa 0,0 l/m 6,9 km/h (2 Bft) W 281 0 min 0,000 mm 1,5 UV-I 282 W/m 11,1 C 16,5 C 9,7 km/h (2 Bft) 96,55 %
19.05.2016 14:15 16,8 C 67 % 1008,4 hPa 0,0 l/m 6,4 km/h (2 Bft) W-SW 242 0 min 0,000 mm 1,5 UV-I 281 W/m 10,6 C 16,8 C 9,7 km/h (2 Bft) 100,00 %
19.05.2016 14:16 16,7 C 68 % 1008,4 hPa 0,0 l/m 4,8 km/h (1 Bft) W-NW 302 0 min 0,000 mm 1,5 UV-I 279 W/m 10,8 C 16,7 C 8,0 km/h (2 Bft) 100,00 %
19.05.2016 14:17 16,7 C 67 % 1008,4 hPa 0,0 l/m 6,0 km/h (2 Bft) W 269 0 min 0,000 mm 1,5 UV-I 279 W/m 10,5 C 16,7 C 11,3 km/h (2 Bft) 100,00 %
19.05.2016 14:18 16,7 C 68 % 1008,5 hPa 0,0 l/m 5,7 km/h (1 Bft) W-SW 248 0 min 0,000 mm 1,5 UV-I 279 W/m 10,8 C 16,7 C 11,3 km/h (2 Bft) 100,00 %
19.05.2016 14:19 16,7 C 68 % 1008,5 hPa 0,0 l/m 4,8 km/h (1 Bft) W 280 0 min 0,000 mm 1,5 UV-I 279 W/m 10,8 C 16,7 C 11,3 km/h (2 Bft) 100,00 %
19.05.2016 14:20 16,7 C 68 % 1008,4 hPa 0,0 l/m 4,2 km/h (1 Bft) SW 232 0 min 0,000 mm 1,4 UV-I 279 W/m 10,8 C 16,7 C 6,4 km/h (2 Bft) 100,00 %
19.05.2016 14:21 16,7 C 69 % 1008,5 hPa 0,0 l/m 3,4 km/h (1 Bft) W-NW 288 0 min 0,000 mm 1,4 UV-I 279 W/m 11,0 C 16,7 C 6,4 km/h (2 Bft) 100,00 %
19.05.2016 14:22 16,7 C 68 % 1008,5 hPa 0,0 l/m 4,5 km/h (1 Bft) W-SW 248 0 min 0,000 mm 1,5 UV-I 281 W/m 10,8 C 16,7 C 11,3 km/h (2 Bft) 100,00 %
19.05.2016 14:23 16,7 C 68 % 1008,5 hPa 0,0 l/m 7,7 km/h (2 Bft) W 280 0 min 0,000 mm 1,5 UV-I 284 W/m 10,8 C 16,0 C 12,9 km/h (3 Bft) 100,00 %
19.05.2016 14:24 16,7 C 68 % 1008,5 hPa 0,0 l/m 8,0 km/h (2 Bft) W 259 0 min 0,000 mm 1,5 UV-I 286 W/m 10,8 C 15,9 C 11,3 km/h (2 Bft) 100,00 %
19.05.2016 14:25 16,6 C 69 % 1008,5 hPa 0,0 l/m 8,5 km/h (2 Bft) SW 225 0 min 0,000 mm 1,5 UV-I 287 W/m 10,9 C 15,5 C 12,9 km/h (3 Bft) 100,00 %
19.05.2016 14:26 16,7 C 69 % 1008,5 hPa 0,0 l/m 4,3 km/h (1 Bft) SW 224 0 min 0,000 mm 1,5 UV-I 288 W/m 11,0 C 16,7 C 6,4 km/h (2 Bft) 96,15 %
19.05.2016 14:27 16,7 C 69 % 1008,6 hPa 0,0 l/m 4,5 km/h (1 Bft) W-SW 237 0 min 0,000 mm 1,5 UV-I 288 W/m 11,0 C 16,7 C 8,0 km/h (2 Bft) 100,00 %
19.05.2016 14:28 16,6 C 69 % 1008,6 hPa 0,0 l/m 6,4 km/h (2 Bft) W-NW 283 0 min 0,000 mm 1,5 UV-I 288 W/m 10,9 C 16,6 C 12,9 km/h (3 Bft) 100,00 %
19.05.2016 14:29 16,6 C 67 % 1008,6 hPa 0,0 l/m 6,8 km/h (2 Bft) W 261 0 min 0,000 mm 1,5 UV-I 288 W/m 10,4 C 16,4 C 12,9 km/h (3 Bft) 100,00 %
19.05.2016 14:30 16,6 C 68 % 1008,6 hPa 0,0 l/m 12,0 km/h (2 Bft) W-SW 248 0 min 0,000 mm 1,5 UV-I 287 W/m 10,7 C 14,1 C 17,7 km/h (3 Bft) 100,00 %
19.05.2016 14:31 16,6 C 67 % 1008,6 hPa 0,0 l/m 8,8 km/h (2 Bft) W 259 0 min 0,000 mm 1,5 UV-I 285 W/m 10,4 C 15,4 C 12,9 km/h (3 Bft) 100,00 %
19.05.2016 14:32 16,6 C 68 % 1008,6 hPa 0,0 l/m 6,8 km/h (2 Bft) SW 231 0 min 0,000 mm 1,5 UV-I 279 W/m 10,7 C 16,4 C 12,9 km/h (3 Bft) 100,00 %
19.05.2016 14:33 16,6 C 68 % 1008,7 hPa 0,0 l/m 9,8 km/h (2 Bft) W-SW 246 0 min 0,000 mm 1,4 UV-I 274 W/m 10,7 C 15,0 C 14,5 km/h (3 Bft) 95,65 %
19.05.2016 14:34 16,7 C 68 % 1008,7 hPa 0,0 l/m 8,0 km/h (2 Bft) W-SW 246 0 min 0,000 mm 1,4 UV-I 272 W/m 10,8 C 15,9 C 11,3 km/h (2 Bft) 100,00 %
19.05.2016 14:35 16,7 C 68 % 1008,7 hPa 0,0 l/m 5,8 km/h (2 Bft) W-SW 254 0 min 0,000 mm 1,4 UV-I 270 W/m 10,8 C 16,7 C 11,3 km/h (2 Bft) 100,00 %
19.05.2016 14:36 16,6 C 68 % 1008,7 hPa 0,0 l/m 4,8 km/h (1 Bft) W-SW 237 0 min 0,000 mm 1,4 UV-I 269 W/m 10,7 C 16,6 C 6,4 km/h (2 Bft) 100,00 %
19.05.2016 14:37 16,7 C 69 % 1008,6 hPa 0,0 l/m 5,3 km/h (1 Bft) W-SW 238 0 min 0,000 mm 1,4 UV-I 269 W/m 11,0 C 16,7 C 8,0 km/h (2 Bft) 100,00 %
19.05.2016 14:38 16,7 C 69 % 1008,7 hPa 0,0 l/m 7,2 km/h (2 Bft) W-SW 257 0 min 0,000 mm 1,4 UV-I 267 W/m 11,0 C 16,3 C 12,9 km/h (3 Bft) 100,00 %
19.05.2016 14:39 16,7 C 68 % 1008,7 hPa 0,0 l/m 9,8 km/h (2 Bft) SW 235 0 min 0,000 mm 1,4 UV-I 267 W/m 10,8 C 15,1 C 12,9 km/h (3 Bft) 95,65 %
19.05.2016 14:40 16,7 C 68 % 1008,7 hPa 0,0 l/m 6,8 km/h (2 Bft) SW 227 0 min 0,000 mm 1,4 UV-I 265 W/m 10,8 C 16,5 C 9,7 km/h (2 Bft) 100,00 %
19.05.2016 14:41 16,6 C 67 % 1008,7 hPa 0,0 l/m 6,9 km/h (2 Bft) S-SW 202 0 min 0,000 mm 1,4 UV-I 265 W/m 10,4 C 16,3 C 8,0 km/h (2 Bft) 100,00 %
19.05.2016 14:42 16,6 C 68 % 1008,7 hPa 0,0 l/m 8,6 km/h (2 Bft) SW 224 0 min 0,000 mm 1,4 UV-I 263 W/m 10,7 C 15,5 C 12,9 km/h (3 Bft) 93,33 %
19.05.2016 14:43 16,6 C 67 % 1008,7 hPa 0,0 l/m 4,7 km/h (1 Bft) W-SW 252 0 min 0,000 mm 1,4 UV-I 261 W/m 10,4 C 16,6 C 6,4 km/h (2 Bft) 100,00 %
19.05.2016 14:44 16,5 C 67 % 1008,7 hPa 0,0 l/m 3,1 km/h (1 Bft) W-SW 250 0 min 0,000 mm 1,3 UV-I 260 W/m 10,4 C 16,5 C 4,8 km/h (1 Bft) 100,00 %
19.05.2016 14:45 16,5 C 68 % 1008,7 hPa 0,0 l/m 5,6 km/h (1 Bft) W-SW 247 0 min 0,000 mm 1,3 UV-I 260 W/m 10,6 C 16,5 C 8,0 km/h (2 Bft) 100,00 %
19.05.2016 14:46 16,5 C 67 % 1008,7 hPa 0,0 l/m 7,5 km/h (2 Bft) W 273 0 min 0,000 mm 1,3 UV-I 260 W/m 10,4 C 15,9 C 11,3 km/h (2 Bft) 100,00 %
19.05.2016 14:47 16,4 C 68 % 1008,8 hPa 0,0 l/m 8,5 km/h (2 Bft) W-SW 252 0 min 0,000 mm 1,3 UV-I 263 W/m 10,5 C 15,3 C 12,9 km/h (3 Bft) 93,10 %
19.05.2016 14:48 16,4 C 68 % 1008,7 hPa 0,0 l/m 5,9 km/h (2 Bft) W-SW 245 0 min 0,000 mm 1,4 UV-I 265 W/m 10,5 C 16,4 C 8,0 km/h (2 Bft) 100,00 %
19.05.2016 14:49 16,4 C 67 % 1008,7 hPa 0,0 l/m 4,8 km/h (1 Bft) W 269 0 min 0,000 mm 1,4 UV-I 265 W/m 10,3 C 16,4 C 6,4 km/h (2 Bft) 91,67 %
19.05.2016 14:50 16,4 C 68 % 1008,7 hPa 0,0 l/m 2,8 km/h (1 Bft) W 277 0 min 0,000 mm 1,4 UV-I 265 W/m 10,5 C 16,4 C 6,4 km/h (2 Bft) 100,00 %
19.05.2016 14:51 16,4 C 69 % 1008,7 hPa 0,0 l/m 3,3 km/h (1 Bft) S-SW 204 0 min 0,000 mm 1,4 UV-I 265 W/m 10,7 C 16,4 C 4,8 km/h (1 Bft) 100,00 %
19.05.2016 14:52 16,4 C 67 % 1008,7 hPa 0,0 l/m 4,0 km/h (1 Bft) W 261 0 min 0,000 mm 1,3 UV-I 264 W/m 10,3 C 16,4 C 9,7 km/h (2 Bft) 100,00 %
19.05.2016 14:53 16,5 C 70 % 1008,6 hPa 0,0 l/m 5,4 km/h (1 Bft) W-NW 284 0 min 0,000 mm 1,3 UV-I 262 W/m 11,0 C 16,5 C 8,0 km/h (2 Bft) 100,00 %
19.05.2016 14:54 16,5 C 66 % 1008,7 hPa 0,0 l/m 3,8 km/h (1 Bft) W 267 0 min 0,000 mm 1,3 UV-I 261 W/m 10,1 C 16,5 C 11,3 km/h (2 Bft) 100,00 %
19.05.2016 14:55 16,5 C 66 % 1008,6 hPa 0,0 l/m 6,4 km/h (2 Bft) W 265 0 min 0,000 mm 1,3 UV-I 259 W/m 10,1 C 16,5 C 9,7 km/h (2 Bft) 100,00 %
19.05.2016 14:56 16,5 C 65 % 1008,7 hPa 0,0 l/m 7,2 km/h (2 Bft) W-SW 238 0 min 0,000 mm 1,3 UV-I 257 W/m 9,9 C 16,1 C 11,3 km/h (2 Bft) 100,00 %
19.05.2016 14:57 16,5 C 65 % 1008,7 hPa 0,0 l/m 6,4 km/h (2 Bft) W-SW 247 0 min 0,000 mm 1,3 UV-I 255 W/m 9,9 C 16,5 C 8,0 km/h (2 Bft) 98,79 %
19.05.2016 14:58 16,4 C 66 % 1008,7 hPa 0,0 l/m 2,4 km/h (1 Bft) W-SW 247 0 min 0,000 mm 1,3 UV-I 255 W/m 10,0 C 16,4 C 4,8 km/h (1 Bft) 100,00 %
19.05.2016 14:59 16,5 C 68 % 1008,7 hPa 0,0 l/m 3,6 km/h (1 Bft) SW 218 0 min 0,000 mm 1,3 UV-I 255 W/m 10,6 C 16,5 C 6,4 km/h (2 Bft) 96,30 %
19.05.2016 15:00 16,5 C 67 % 1008,7 hPa 0,0 l/m 5,8 km/h (2 Bft) W-SW 242 0 min 0,000 mm 1,3 UV-I 256 W/m 10,4 C 16,5 C 8,0 km/h (2 Bft) 96,55 %
19.05.2016 15:01 16,5 C 66 % 1008,6 hPa 0,0 l/m 4,7 km/h (1 Bft) W-SW 244 0 min 0,178 mm 1,3 UV-I 258 W/m 10,1 C 16,5 C 8,0 km/h (2 Bft) 100,00 %
19.05.2016 15:02 16,5 C 68 % 1008,7 hPa 0,0 l/m 6,4 km/h (2 Bft) SW 219 0 min 0,000 mm 1,3 UV-I 261 W/m 10,6 C 16,5 C 9,7 km/h (2 Bft) 96,15 %
19.05.2016 15:03 16,5 C 66 % 1008,7 hPa 0,0 l/m 6,4 km/h (2 Bft) W 263 0 min 0,000 mm 1,3 UV-I 266 W/m 10,1 C 16,5 C 9,7 km/h (2 Bft) 100,00 %
19.05.2016 15:04 16,5 C 66 % 1008,7 hPa 0,0 l/m 4,1 km/h (1 Bft) W-SW 254 0 min 0,000 mm 1,3 UV-I 270 W/m 10,1 C 16,5 C 4,8 km/h (1 Bft) 95,65 %
19.05.2016 15:05 16,5 C 66 % 1008,7 hPa 0,0 l/m 4,1 km/h (1 Bft) W-NW 283 0 min 0,000 mm 1,3 UV-I 276 W/m 10,1 C 16,5 C 6,4 km/h (2 Bft) 100,00 %
19.05.2016 15:06 16,6 C 65 % 1008,7 hPa 0,0 l/m 3,4 km/h (1 Bft) W-NW 283 0 min 0,000 mm 1,4 UV-I 282 W/m 10,0 C 16,6 C 4,8 km/h (1 Bft) 96,15 %
19.05.2016 15:07 16,5 C 65 % 1008,7 hPa 0,0 l/m 5,7 km/h (1 Bft) W-SW 256 0 min 0,000 mm 1,4 UV-I 285 W/m 9,9 C 16,5 C 6,4 km/h (2 Bft) 100,00 %
19.05.2016 15:08 16,5 C 65 % 1008,7 hPa 0,0 l/m 4,0 km/h (1 Bft) W 275 0 min 0,000 mm 1,4 UV-I 288 W/m 9,9 C 16,5 C 6,4 km/h (2 Bft) 96,15 %
19.05.2016 15:09 16,6 C 65 % 1008,7 hPa 0,0 l/m 5,5 km/h (1 Bft) W 273 0 min 0,000 mm 1,4 UV-I 290 W/m 10,0 C 16,6 C 6,4 km/h (2 Bft) 96,30 %
19.05.2016 15:10 16,6 C 65 % 1008,7 hPa 0,0 l/m 5,8 km/h (2 Bft) W-SW 255 0 min 0,000 mm 1,4 UV-I 293 W/m 10,0 C 16,6 C 9,7 km/h (2 Bft) 100,00 %
19.05.2016 15:11 16,6 C 65 % 1008,7 hPa 0,0 l/m 5,6 km/h (1 Bft) W-SW 247 0 min 0,000 mm 1,4 UV-I 296 W/m 10,0 C 16,6 C 8,0 km/h (2 Bft) 93,33 %
19.05.2016 15:12 16,6 C 65 % 1008,7 hPa 0,0 l/m 4,6 km/h (1 Bft) NW 307 0 min 0,000 mm 1,4 UV-I 300 W/m 10,0 C 16,6 C 6,4 km/h (2 Bft) 100,00 %
19.05.2016 15:13 16,6 C 66 % 1008,7 hPa 0,0 l/m 4,7 km/h (1 Bft) W 266 0 min 0,000 mm 1,4 UV-I 301 W/m 10,2 C 16,6 C 6,4 km/h (2 Bft) 96,15 %
19.05.2016 15:14 16,6 C 65 % 1008,7 hPa 0,0 l/m 6,1 km/h (2 Bft) W-SW 254 0 min 0,000 mm 1,5 UV-I 311 W/m 10,0 C 16,6 C 6,4 km/h (2 Bft) 100,00 %
19.05.2016 15:15 16,7 C 65 % 1008,7 hPa 0,0 l/m 6,3 km/h (2 Bft) W 261 0 min 0,000 mm 1,5 UV-I 317 W/m 10,1 C 16,7 C 9,7 km/h (2 Bft) 96,15 %
19.05.2016 15:16 16,7 C 68 % 1008,7 hPa 0,0 l/m 7,3 km/h (2 Bft) W 271 0 min 0,000 mm 1,5 UV-I 326 W/m 10,8 C 16,2 C 11,3 km/h (2 Bft) 100,00 %
19.05.2016 15:17 16,8 C 66 % 1008,7 hPa 0,0 l/m 5,5 km/h (1 Bft) W-SW 250 0 min 0,000 mm 1,5 UV-I 332 W/m 10,4 C 16,8 C 8,0 km/h (2 Bft) 96,55 %
19.05.2016 15:18 16,8 C 66 % 1008,7 hPa 0,0 l/m 4,0 km/h (1 Bft) SW 230 0 min 0,000 mm 1,5 UV-I 339 W/m 10,4 C 16,8 C 8,0 km/h (2 Bft) 100,00 %
19.05.2016 15:19 16,9 C 65 % 1008,7 hPa 0,0 l/m 6,0 km/h (2 Bft) W-SW 242 0 min 0,000 mm 1,6 UV-I 345 W/m 10,3 C 16,9 C 8,0 km/h (2 Bft) 95,65 %
19.05.2016 15:20 16,9 C 66 % 1008,7 hPa 0,0 l/m 4,0 km/h (1 Bft) W-NW 285 0 min 0,000 mm 1,6 UV-I 352 W/m 10,5 C 16,9 C 6,4 km/h (2 Bft) 95,83 %
19.05.2016 15:21 16,9 C 65 % 1008,7 hPa 0,0 l/m 4,3 km/h (1 Bft) W-NW 285 0 min 0,000 mm 1,6 UV-I 354 W/m 10,3 C 16,9 C 6,4 km/h (2 Bft) 100,00 %
19.05.2016 15:22 16,9 C 65 % 1008,7 hPa 0,0 l/m 3,7 km/h (1 Bft) W 267 0 min 0,000 mm 1,6 UV-I 359 W/m 10,3 C 16,9 C 6,4 km/h (2 Bft) 100,00 %
19.05.2016 15:23 16,9 C 66 % 1008,8 hPa 0,0 l/m 5,2 km/h (1 Bft) W 281 0 min 0,000 mm 1,6 UV-I 359 W/m 10,5 C 16,9 C 9,7 km/h (2 Bft) 97,56 %
19.05.2016 15:24 16,9 C 64 % 1008,7 hPa 0,0 l/m 4,7 km/h (1 Bft) W-NW 286 0 min 0,000 mm 1,6 UV-I 360 W/m 10,0 C 16,9 C 9,7 km/h (2 Bft) 91,67 %
19.05.2016 15:25 16,9 C 65 % 1008,8 hPa 0,0 l/m 1,3 km/h (1 Bft) W-NW 288 0 min 0,000 mm 1,6 UV-I 360 W/m 10,3 C 16,9 C 3,2 km/h (1 Bft) 96,15 %
19.05.2016 15:26 16,9 C 65 % 1008,8 hPa 0,0 l/m 2,2 km/h (1 Bft) W-NW 288 0 min 0,000 mm 1,6 UV-I 360 W/m 10,3 C 16,9 C 4,8 km/h (1 Bft) 96,30 %
19.05.2016 15:27 16,9 C 66 % 1008,8 hPa 0,0 l/m 2,0 km/h (1 Bft) W-SW 254 0 min 0,000 mm 1,6 UV-I 358 W/m 10,5 C 16,9 C 4,8 km/h (1 Bft) 96,15 %
19.05.2016 15:28 17,0 C 66 % 1008,8 hPa 0,0 l/m 3,1 km/h (1 Bft) W 272 0 min 0,000 mm 1,6 UV-I 358 W/m 10,6 C 17,0 C 6,4 km/h (2 Bft) 100,00 %
19.05.2016 15:29 17,1 C 66 % 1008,8 hPa 0,0 l/m 0,2 km/h (0 Bft) W 272 0 min 0,000 mm 1,6 UV-I 358 W/m 10,7 C 17,1 C 1,6 km/h (1 Bft) 92,86 %
19.05.2016 15:30 17,1 C 67 % 1008,8 hPa 0,0 l/m 1,5 km/h (1 Bft) W 280 0 min 0,000 mm 1,6 UV-I 352 W/m 10,9 C 17,1 C 3,2 km/h (1 Bft) 100,00 %
19.05.2016 15:31 17,2 C 67 % 1008,8 hPa 0,0 l/m 5,3 km/h (1 Bft) W-NW 286 0 min 0,000 mm 1,5 UV-I 350 W/m 11,0 C 17,2 C 6,4 km/h (2 Bft) 95,83 %
19.05.2016 15:32 17,2 C 67 % 1008,9 hPa 0,0 l/m 3,4 km/h (1 Bft) W 264 0 min 0,000 mm 1,5 UV-I 340 W/m 11,0 C 17,2 C 4,8 km/h (1 Bft) 96,15 %
19.05.2016 15:33 17,3 C 66 % 1008,9 hPa 0,0 l/m 3,1 km/h (1 Bft) W 259 0 min 0,000 mm 1,5 UV-I 334 W/m 10,9 C 17,3 C 6,4 km/h (2 Bft) 100,00 %
19.05.2016 15:34 17,3 C 64 % 1008,8 hPa 0,0 l/m 5,7 km/h (1 Bft) SW 234 0 min 0,000 mm 1,4 UV-I 319 W/m 10,4 C 17,3 C 11,3 km/h (2 Bft) 100,00 %
19.05.2016 15:35 17,3 C 66 % 1008,9 hPa 0,0 l/m 5,0 km/h (1 Bft) W-SW 256 0 min 0,000 mm 1,4 UV-I 302 W/m 10,9 C 17,3 C 8,0 km/h (2 Bft) 100,00 %
19.05.2016 15:36 17,3 C 65 % 1008,9 hPa 0,0 l/m 4,9 km/h (1 Bft) W-SW 257 0 min 0,000 mm 1,3 UV-I 287 W/m 10,7 C 17,3 C 9,7 km/h (2 Bft) 100,00 %
19.05.2016 15:37 17,3 C 64 % 1008,9 hPa 0,0 l/m 5,6 km/h (1 Bft) W 267 0 min 0,000 mm 1,3 UV-I 275 W/m 10,4 C 17,3 C 9,7 km/h (2 Bft) 100,00 %
19.05.2016 15:38 17,3 C 64 % 1008,9 hPa 0,0 l/m 4,4 km/h (1 Bft) W 271 0 min 0,000 mm 1,2 UV-I 269 W/m 10,4 C 17,3 C 6,4 km/h (2 Bft) 92,86 %
19.05.2016 15:39 17,2 C 63 % 1008,9 hPa 0,0 l/m 2,7 km/h (1 Bft) W 275 0 min 0,000 mm 1,2 UV-I 254 W/m 10,1 C 17,2 C 4,8 km/h (1 Bft) 100,00 %
19.05.2016 15:40 17,2 C 64 % 1008,9 hPa 0,0 l/m 2,8 km/h (1 Bft) NW 308 0 min 0,000 mm 1,2 UV-I 249 W/m 10,3 C 17,2 C 4,8 km/h (1 Bft) 95,65 %
19.05.2016 15:41 17,2 C 68 % 1008,9 hPa 0,0 l/m 1,8 km/h (1 Bft) NW 313 0 min 0,000 mm 1,2 UV-I 245 W/m 11,2 C 17,2 C 4,8 km/h (1 Bft) 100,00 %
19.05.2016 15:42 17,1 C 62 % 1008,9 hPa 0,0 l/m 1,2 km/h (1 Bft) NW 313 0 min 0,000 mm 1,1 UV-I 242 W/m 9,8 C 17,1 C 4,8 km/h (1 Bft) 100,00 %
19.05.2016 15:43 17,1 C 64 % 1008,9 hPa 0,0 l/m 2,7 km/h (1 Bft) W-NW 301 0 min 0,000 mm 1,1 UV-I 239 W/m 10,2 C 17,1 C 4,8 km/h (1 Bft) 100,00 %
19.05.2016 15:44 17,0 C 66 % 1008,9 hPa 0,0 l/m 2,5 km/h (1 Bft) W-NW 294 0 min 0,000 mm 1,1 UV-I 237 W/m 10,6 C 17,0 C 4,8 km/h (1 Bft) 95,65 %
19.05.2016 15:45 16,9 C 65 % 1008,9 hPa 0,0 l/m 5,0 km/h (1 Bft) W-NW 294 0 min 0,000 mm 1,1 UV-I 235 W/m 10,3 C 16,9 C 11,3 km/h (2 Bft) 100,00 %
19.05.2016 15:46 16,9 C 63 % 1008,9 hPa 0,0 l/m 2,9 km/h (1 Bft) W-NW 294 0 min 0,000 mm 1,1 UV-I 233 W/m 9,8 C 16,9 C 4,8 km/h (1 Bft) 100,00 %
19.05.2016 15:47 16,9 C 64 % 1008,8 hPa 0,0 l/m 1,9 km/h (1 Bft) W-NW 296 0 min 0,000 mm 1,1 UV-I 231 W/m 10,0 C 16,9 C 4,8 km/h (1 Bft) 100,00 %
19.05.2016 15:48 16,9 C 67 % 1008,9 hPa 0,0 l/m 2,7 km/h (1 Bft) NW 319 0 min 0,000 mm 1,1 UV-I 229 W/m 10,7 C 16,9 C 3,2 km/h (1 Bft) 100,00 %
19.05.2016 15:49 16,9 C 65 % 1008,9 hPa 0,0 l/m 2,3 km/h (1 Bft) W-NW 291 0 min 0,000 mm 1,0 UV-I 227 W/m 10,3 C 16,9 C 3,2 km/h (1 Bft) 100,00 %
19.05.2016 15:50 16,9 C 64 % 1008,9 hPa 0,0 l/m 3,3 km/h (1 Bft) SW 227 0 min 0,000 mm 1,0 UV-I 224 W/m 10,0 C 16,9 C 4,8 km/h (1 Bft) 100,00 %
19.05.2016 15:51 16,9 C 63 % 1008,9 hPa 0,0 l/m 6,4 km/h (2 Bft) W-SW 251 0 min 0,000 mm 1,0 UV-I 219 W/m 9,8 C 16,9 C 12,9 km/h (3 Bft) 100,00 %
19.05.2016 15:52 16,9 C 64 % 1008,9 hPa 0,0 l/m 7,2 km/h (2 Bft) W-SW 248 0 min 0,000 mm 1,0 UV-I 215 W/m 10,0 C 16,5 C 11,3 km/h (2 Bft) 100,00 %
19.05.2016 15:53 16,9 C 64 % 1008,9 hPa 0,0 l/m 8,7 km/h (2 Bft) W 269 0 min 0,000 mm 1,0 UV-I 210 W/m 10,0 C 15,8 C 14,5 km/h (3 Bft) 100,00 %
19.05.2016 15:54 16,9 C 63 % 1008,9 hPa 0,0 l/m 10,5 km/h (2 Bft) W-SW 241 0 min 0,000 mm 0,9 UV-I 204 W/m 9,8 C 15,0 C 14,5 km/h (3 Bft) 100,00 %
19.05.2016 15:55 16,8 C 64 % 1008,9 hPa 0,0 l/m 9,9 km/h (2 Bft) W 259 0 min 0,000 mm 0,9 UV-I 196 W/m 10,0 C 15,1 C 12,9 km/h (3 Bft) 100,00 %
19.05.2016 15:56 16,8 C 64 % 1008,9 hPa 0,0 l/m 6,6 km/h (2 Bft) W 275 0 min 0,000 mm 0,8 UV-I 184 W/m 10,0 C 16,7 C 11,3 km/h (2 Bft) 91,67 %
19.05.2016 15:57 16,8 C 63 % 1009,0 hPa 0,0 l/m 6,4 km/h (2 Bft) S-SW 199 0 min 0,000 mm 0,8 UV-I 172 W/m 9,7 C 16,8 C 8,0 km/h (2 Bft) 96,55 %
19.05.2016 15:58 16,8 C 63 % 1009,0 hPa 0,0 l/m 4,7 km/h (1 Bft) S-SW 213 0 min 0,000 mm 0,7 UV-I 160 W/m 9,7 C 16,8 C 8,0 km/h (2 Bft) 100,00 %
19.05.2016 15:59 16,8 C 64 % 1009,0 hPa 0,0 l/m 6,1 km/h (2 Bft) SW 217 0 min 0,000 mm 0,6 UV-I 141 W/m 10,0 C 16,8 C 9,7 km/h (2 Bft) 100,00 %
19.05.2016 16:00 16,8 C 65 % 1009,0 hPa 0,0 l/m 4,0 km/h (1 Bft) SW 236 0 min 0,000 mm 0,5 UV-I 128 W/m 10,2 C 16,8 C 6,4 km/h (2 Bft) 100,00 %
19.05.2016 16:02 16,7 C 64 % 1009,0 hPa 0,0 l/m 4,4 km/h (1 Bft) SW 227 0 min 0,178 mm 0,1 UV-I 105 W/m 9,9 C 16,7 C 6,4 km/h (2 Bft) 97,56 %
19.05.2016 16:03 16,7 C 64 % 1009,1 hPa 0,0 l/m 2,8 km/h (1 Bft) S-SW 211 0 min 0,000 mm 0,0 UV-I 89 W/m 9,9 C 16,7 C 4,8 km/h (1 Bft) 100,00 %
19.05.2016 16:04 16,7 C 64 % 1009,1 hPa 0,0 l/m 4,0 km/h (1 Bft) S-SW 197 0 min 0,000 mm 0,0 UV-I 82 W/m 9,9 C 16,7 C 8,0 km/h (2 Bft) 100,00 %
19.05.2016 16:05 16,7 C 65 % 1009,1 hPa 0,0 l/m 4,5 km/h (1 Bft) S-SW 193 0 min 0,000 mm 0,0 UV-I 78 W/m 10,1 C 16,7 C 8,0 km/h (2 Bft) 100,00 %
19.05.2016 16:06 16,6 C 65 % 1009,1 hPa 0,0 l/m 3,2 km/h (1 Bft) S 181 0 min 0,000 mm 0,0 UV-I 76 W/m 10,0 C 16,6 C 6,4 km/h (2 Bft) 100,00 %
19.05.2016 16:07 16,6 C 66 % 1009,1 hPa 0,0 l/m 4,5 km/h (1 Bft) S-SW 196 0 min 0,000 mm 0,0 UV-I 74 W/m 10,2 C 16,6 C 6,4 km/h (2 Bft) 100,00 %
19.05.2016 16:08 16,6 C 66 % 1009,2 hPa 0,0 l/m 5,0 km/h (1 Bft) S 190 0 min 0,000 mm 0,0 UV-I 70 W/m 10,2 C 16,6 C 6,4 km/h (2 Bft) 100,00 %
19.05.2016 16:09 16,5 C 68 % 1009,2 hPa 0,4 l/m 6,7 km/h (2 Bft) S 171 0 min 0,000 mm 0,0 UV-I 69 W/m 10,6 C 16,4 C 9,7 km/h (2 Bft) 100,00 %
19.05.2016 16:10 16,4 C 69 % 1009,2 hPa 0,2 l/m 5,3 km/h (1 Bft) S-SW 192 0 min 0,000 mm 0,0 UV-I 70 W/m 10,7 C 16,4 C 8,0 km/h (2 Bft) 96,30 %
19.05.2016 16:11 16,3 C 73 % 1009,2 hPa 0,4 l/m 5,5 km/h (1 Bft) S-SO 167 0 min 0,000 mm 0,0 UV-I 72 W/m 11,4 C 16,3 C 9,7 km/h (2 Bft) 100,00 %
19.05.2016 16:12 16,1 C 73 % 1009,3 hPa 0,2 l/m 7,2 km/h (2 Bft) S-SO 165 0 min 0,000 mm 0,0 UV-I 72 W/m 11,3 C 15,7 C 9,7 km/h (2 Bft) 100,00 %
19.05.2016 16:13 15,9 C 72 % 1009,3 hPa 0,0 l/m 9,0 km/h (2 Bft) S-SO 168 0 min 0,000 mm 0,0 UV-I 74 W/m 10,9 C 14,6 C 11,3 km/h (2 Bft) 100,00 %
19.05.2016 16:14 15,8 C 74 % 1009,3 hPa 0,2 l/m 7,2 km/h (2 Bft) S-SW 200 0 min 0,000 mm 0,0 UV-I 74 W/m 11,2 C 15,4 C 8,0 km/h (2 Bft) 93,33 %
19.05.2016 16:15 15,6 C 75 % 1009,3 hPa 0,0 l/m 4,3 km/h (1 Bft) S 173 0 min 0,000 mm 0,0 UV-I 74 W/m 11,2 C 15,6 C 6,4 km/h (2 Bft) 100,00 %
19.05.2016 16:16 15,4 C 76 % 1009,4 hPa 0,0 l/m 2,2 km/h (1 Bft) S 179 0 min 0,000 mm 0,0 UV-I 72 W/m 11,2 C 15,4 C 4,8 km/h (1 Bft) 100,00 %
19.05.2016 16:17 15,3 C 77 % 1009,4 hPa 0,2 l/m 7,3 km/h (2 Bft) S-SW 205 0 min 0,000 mm 0,0 UV-I 69 W/m 11,3 C 14,8 C 9,7 km/h (2 Bft) 100,00 %
19.05.2016 16:18 15,3 C 77 % 1009,5 hPa 0,0 l/m 13,2 km/h (3 Bft) S-SW 196 0 min 0,000 mm 0,0 UV-I 69 W/m 11,3 C 12,2 C 17,7 km/h (3 Bft) 100,00 %
19.05.2016 16:19 15,1 C 78 % 1009,6 hPa 0,0 l/m 19,5 km/h (3 Bft) SW 217 0 min 0,000 mm 0,0 UV-I 67 W/m 11,3 C 10,0 C 30,6 km/h (5 Bft) 100,00 %
19.05.2016 16:20 14,8 C 77 % 1009,7 hPa 0,0 l/m 21,5 km/h (4 Bft) SW 218 0 min 0,000 mm 0,0 UV-I 64 W/m 10,8 C 9,1 C 29,0 km/h (5 Bft) 100,00 %
19.05.2016 16:21 14,4 C 76 % 1009,7 hPa 0,0 l/m 26,5 km/h (4 Bft) S-SW 213 0 min 0,000 mm 0,0 UV-I 62 W/m 10,2 C 7,5 C 37,0 km/h (5 Bft) 100,00 %
19.05.2016 16:22 14,2 C 76 % 1009,7 hPa 0,0 l/m 21,8 km/h (4 Bft) S-SW 200 0 min 0,000 mm 0,0 UV-I 62 W/m 10,0 C 8,3 C 32,2 km/h (5 Bft) 100,00 %
19.05.2016 16:23 13,8 C 77 % 1009,8 hPa 0,0 l/m 21,9 km/h (4 Bft) S-SW 200 0 min 0,000 mm 0,0 UV-I 66 W/m 9,8 C 7,7 C 33,8 km/h (5 Bft) 100,00 %
19.05.2016 16:24 13,6 C 78 % 1009,8 hPa 0,0 l/m 23,2 km/h (4 Bft) S-SW 207 0 min 0,000 mm 0,0 UV-I 73 W/m 9,8 C 7,1 C 33,8 km/h (5 Bft) 98,77 %
19.05.2016 16:25 13,3 C 78 % 1009,8 hPa 0,0 l/m 18,5 km/h (3 Bft) S-SW 207 0 min 0,000 mm 0,0 UV-I 82 W/m 9,5 C 8,0 C 30,6 km/h (5 Bft) 100,00 %
19.05.2016 16:26 13,1 C 79 % 1009,9 hPa 0,0 l/m 16,0 km/h (3 Bft) SW 223 0 min 0,000 mm 0,0 UV-I 88 W/m 9,5 C 8,5 C 24,1 km/h (4 Bft) 100,00 %
19.05.2016 16:27 12,8 C 80 % 1009,9 hPa 0,0 l/m 19,4 km/h (3 Bft) W 261 0 min 0,000 mm 0,0 UV-I 95 W/m 9,4 C 7,1 C 33,8 km/h (5 Bft) 100,00 %
19.05.2016 16:28 12,7 C 81 % 1009,9 hPa 0,0 l/m 20,1 km/h (4 Bft) W-SW 250 0 min 0,000 mm 0,2 UV-I 103 W/m 9,5 C 6,7 C 25,7 km/h (4 Bft) 100,00 %
19.05.2016 16:29 12,6 C 81 % 1009,9 hPa 0,2 l/m 24,4 km/h (4 Bft) W-SW 237 0 min 0,000 mm 0,5 UV-I 110 W/m 9,4 C 5,5 C 33,8 km/h (5 Bft) 100,00 %
19.05.2016 16:30 12,4 C 81 % 1009,9 hPa 0,0 l/m 17,1 km/h (3 Bft) SW 221 0 min 0,000 mm 0,5 UV-I 114 W/m 9,2 C 7,3 C 22,5 km/h (4 Bft) 100,00 %
19.05.2016 16:31 12,3 C 83 % 1010,0 hPa 0,0 l/m 17,7 km/h (3 Bft) S-SW 192 0 min 0,000 mm 0,5 UV-I 117 W/m 9,5 C 7,0 C 30,6 km/h (5 Bft) 100,00 %
19.05.2016 16:32 12,2 C 83 % 1010,0 hPa 0,0 l/m 15,0 km/h (3 Bft) S-SW 209 0 min 0,000 mm 0,5 UV-I 121 W/m 9,4 C 7,8 C 24,1 km/h (4 Bft) 100,00 %
19.05.2016 16:33 12,1 C 84 % 1010,0 hPa 0,0 l/m 14,1 km/h (3 Bft) S-SW 207 0 min 0,000 mm 0,5 UV-I 125 W/m 9,5 C 8,0 C 20,9 km/h (4 Bft) 96,15 %
19.05.2016 16:34 12,0 C 85 % 1010,0 hPa 0,0 l/m 15,5 km/h (3 Bft) S-SW 212 0 min 0,000 mm 0,6 UV-I 131 W/m 9,6 C 7,4 C 22,5 km/h (4 Bft) 100,00 %
19.05.2016 16:35 11,9 C 86 % 1010,0 hPa 0,0 l/m 17,3 km/h (3 Bft) S-SW 211 0 min 0,000 mm 0,6 UV-I 138 W/m 9,6 C 6,6 C 33,8 km/h (5 Bft) 100,00 %
19.05.2016 16:36 11,9 C 87 % 1010,1 hPa 0,0 l/m 18,8 km/h (3 Bft) W-SW 250 0 min 0,000 mm 0,6 UV-I 142 W/m 9,8 C 6,1 C 32,2 km/h (5 Bft) 93,33 %
19.05.2016 16:37 11,9 C 86 % 1010,0 hPa 0,0 l/m 21,5 km/h (4 Bft) S-SW 209 0 min 0,000 mm 0,6 UV-I 142 W/m 9,6 C 5,3 C 29,0 km/h (5 Bft) 96,15 %
19.05.2016 16:38 11,8 C 86 % 1010,1 hPa 0,0 l/m 22,3 km/h (4 Bft) W-SW 250 0 min 0,000 mm 0,6 UV-I 140 W/m 9,5 C 5,0 C 32,2 km/h (5 Bft) 96,67 %
19.05.2016 16:39 11,8 C 85 % 1010,1 hPa 0,0 l/m 21,7 km/h (4 Bft) SW 229 0 min 0,000 mm 0,6 UV-I 132 W/m 9,4 C 5,1 C 29,0 km/h (5 Bft) 100,00 %
19.05.2016 16:40 11,7 C 86 % 1010,1 hPa 0,0 l/m 17,8 km/h (3 Bft) W-SW 244 0 min 0,000 mm 0,5 UV-I 120 W/m 9,4 C 6,2 C 27,4 km/h (4 Bft) 100,00 %
19.05.2016 16:41 11,7 C 87 % 1010,2 hPa 0,0 l/m 15,3 km/h (3 Bft) S 188 0 min 0,000 mm 0,1 UV-I 107 W/m 9,6 C 7,1 C 22,5 km/h (4 Bft) 100,00 %
19.05.2016 16:42 11,7 C 86 % 1010,2 hPa 0,0 l/m 17,5 km/h (3 Bft) SW 229 0 min 0,000 mm 0,0 UV-I 93 W/m 9,4 C 6,3 C 27,4 km/h (4 Bft) 100,00 %
19.05.2016 16:43 11,6 C 86 % 1010,3 hPa 0,0 l/m 22,0 km/h (4 Bft) S-SW 211 0 min 0,000 mm 0,0 UV-I 81 W/m 9,3 C 4,8 C 37,0 km/h (5 Bft) 100,00 %
19.05.2016 16:44 11,6 C 86 % 1010,3 hPa 0,2 l/m 23,6 km/h (4 Bft) S-SW 193 0 min 0,000 mm 0,0 UV-I 71 W/m 9,3 C 4,3 C 32,2 km/h (5 Bft) 95,83 %
19.05.2016 16:45 11,5 C 86 % 1010,3 hPa 0,0 l/m 21,3 km/h (4 Bft) SW 215 0 min 0,000 mm 0,0 UV-I 64 W/m 9,2 C 4,8 C 32,2 km/h (5 Bft) 100,00 %
19.05.2016 16:46 11,5 C 86 % 1010,4 hPa 0,0 l/m 19,2 km/h (3 Bft) W-SW 242 0 min 0,000 mm 0,0 UV-I 59 W/m 9,2 C 5,5 C 35,4 km/h (5 Bft) 100,00 %
19.05.2016 16:47 11,4 C 87 % 1010,4 hPa 0,0 l/m 25,3 km/h (4 Bft) SW 225 0 min 0,000 mm 0,0 UV-I 56 W/m 9,3 C 3,7 C 37,0 km/h (5 Bft) 100,00 %
19.05.2016 16:48 11,4 C 87 % 1010,5 hPa 0,0 l/m 22,9 km/h (4 Bft) S 191 0 min 0,000 mm 0,0 UV-I 56 W/m 9,3 C 4,3 C 40,2 km/h (6 Bft) 95,83 %
19.05.2016 16:49 11,4 C 87 % 1010,5 hPa 0,0 l/m 20,6 km/h (4 Bft) S-SW 200 0 min 0,000 mm 0,0 UV-I 56 W/m 9,3 C 4,9 C 29,0 km/h (5 Bft) 100,00 %
19.05.2016 16:50 11,3 C 87 % 1010,5 hPa 0,0 l/m 24,1 km/h (4 Bft) S-SW 203 0 min 0,000 mm 0,0 UV-I 58 W/m 9,2 C 3,8 C 37,0 km/h (5 Bft) 100,00 %
19.05.2016 16:51 11,3 C 87 % 1010,5 hPa 0,0 l/m 18,4 km/h (3 Bft) SW 227 0 min 0,000 mm 0,0 UV-I 58 W/m 9,2 C 5,5 C 27,4 km/h (4 Bft) 100,00 %
19.05.2016 16:52 11,3 C 88 % 1010,5 hPa 0,0 l/m 22,7 km/h (4 Bft) SW 234 0 min 0,000 mm 0,0 UV-I 58 W/m 9,4 C 4,2 C 32,2 km/h (5 Bft) 100,00 %
19.05.2016 16:53 11,2 C 88 % 1010,5 hPa 0,0 l/m 20,2 km/h (4 Bft) S 186 0 min 0,000 mm 0,0 UV-I 56 W/m 9,3 C 4,8 C 29,0 km/h (5 Bft) 100,00 %
19.05.2016 16:54 11,2 C 88 % 1010,6 hPa 0,0 l/m 20,3 km/h (4 Bft) S-SW 204 0 min 0,000 mm 0,0 UV-I 56 W/m 9,3 C 4,7 C 29,0 km/h (5 Bft) 100,00 %
19.05.2016 16:55 11,2 C 88 % 1010,6 hPa 0,0 l/m 14,5 km/h (3 Bft) S-SW 203 0 min 0,000 mm 0,0 UV-I 54 W/m 9,3 C 6,8 C 22,5 km/h (4 Bft) 100,00 %
19.05.2016 16:56 11,2 C 88 % 1010,6 hPa 0,0 l/m 15,0 km/h (3 Bft) SW 221 0 min 0,000 mm 0,0 UV-I 54 W/m 9,3 C 6,6 C 24,1 km/h (4 Bft) 100,00 %
19.05.2016 16:57 11,2 C 88 % 1010,6 hPa 0,0 l/m 21,6 km/h (4 Bft) W-SW 241 0 min 0,000 mm 0,0 UV-I 54 W/m 9,3 C 4,4 C 29,0 km/h (5 Bft) 100,00 %
19.05.2016 16:58 11,2 C 89 % 1010,7 hPa 0,0 l/m 21,6 km/h (4 Bft) W-SW 251 0 min 0,000 mm 0,0 UV-I 52 W/m 9,5 C 4,4 C 27,4 km/h (4 Bft) 95,65 %
19.05.2016 16:59 11,1 C 89 % 1010,7 hPa 0,0 l/m 25,5 km/h (4 Bft) SW 225 0 min 0,000 mm 0,0 UV-I 49 W/m 9,4 C 3,2 C 33,8 km/h (5 Bft) 95,83 %
19.05.2016 17:00 11,1 C 88 % 1010,6 hPa 0,0 l/m 23,2 km/h (4 Bft) SW 226 0 min 0,000 mm 0,0 UV-I 47 W/m 9,2 C 3,8 C 29,0 km/h (5 Bft) 100,00 %
19.05.2016 17:02 11,1 C 89 % 1010,7 hPa 0,0 l/m 24,1 km/h (4 Bft) W-SW 251 0 min 0,076 mm 0,0 UV-I 43 W/m 9,4 C 3,6 C 41,8 km/h (6 Bft) 96,43 %
19.05.2016 17:03 11,0 C 89 % 1010,7 hPa 0,0 l/m 21,5 km/h (4 Bft) W-SW 252 0 min 0,000 mm 0,0 UV-I 42 W/m 9,3 C 4,1 C 29,0 km/h (5 Bft) 100,00 %
19.05.2016 17:04 11,0 C 89 % 1010,7 hPa 0,0 l/m 24,1 km/h (4 Bft) W 262 0 min 0,000 mm 0,0 UV-I 42 W/m 9,3 C 3,4 C 37,0 km/h (5 Bft) 95,65 %
19.05.2016 17:05 10,9 C 89 % 1010,7 hPa 0,0 l/m 27,1 km/h (4 Bft) W-SW 249 0 min 0,000 mm 0,0 UV-I 42 W/m 9,2 C 2,5 C 35,4 km/h (5 Bft) 100,00 %
19.05.2016 17:06 10,9 C 89 % 1010,7 hPa 0,0 l/m 28,9 km/h (5 Bft) W 267 0 min 0,000 mm 0,0 UV-I 42 W/m 9,2 C 2,2 C 40,2 km/h (6 Bft) 96,15 %
19.05.2016 17:07 10,9 C 89 % 1010,7 hPa 0,0 l/m 26,2 km/h (4 Bft) W-SW 258 0 min 0,000 mm 0,0 UV-I 42 W/m 9,2 C 2,8 C 35,4 km/h (5 Bft) 100,00 %
19.05.2016 17:08 10,9 C 89 % 1010,8 hPa 0,0 l/m 23,8 km/h (4 Bft) SW 234 0 min 0,000 mm 0,0 UV-I 42 W/m 9,2 C 3,4 C 35,4 km/h (5 Bft) 96,15 %
19.05.2016 17:09 10,8 C 89 % 1010,8 hPa 0,0 l/m 22,8 km/h (4 Bft) W 269 0 min 0,000 mm 0,0 UV-I 42 W/m 9,1 C 3,5 C 27,4 km/h (4 Bft) 96,67 %
19.05.2016 17:10 10,8 C 90 % 1010,8 hPa 0,0 l/m 17,1 km/h (3 Bft) W-SW 244 0 min 0,000 mm 0,0 UV-I 42 W/m 9,2 C 5,3 C 24,1 km/h (4 Bft) 100,00 %
19.05.2016 17:11 10,8 C 90 % 1010,8 hPa 0,2 l/m 21,1 km/h (4 Bft) SW 224 0 min 0,000 mm 0,0 UV-I 42 W/m 9,2 C 4,0 C 27,4 km/h (4 Bft) 92,31 %
19.05.2016 17:12 10,7 C 90 % 1010,8 hPa 0,0 l/m 19,2 km/h (3 Bft) W 261 0 min 0,000 mm 0,0 UV-I 42 W/m 9,1 C 4,4 C 27,4 km/h (4 Bft) 100,00 %
19.05.2016 17:13 10,7 C 90 % 1010,8 hPa 0,0 l/m 15,7 km/h (3 Bft) SW 217 0 min 0,000 mm 0,0 UV-I 44 W/m 9,1 C 5,7 C 24,1 km/h (4 Bft) 95,83 %
19.05.2016 17:14 10,7 C 90 % 1010,8 hPa 0,2 l/m 19,3 km/h (3 Bft) W-SW 246 0 min 0,000 mm 0,0 UV-I 44 W/m 9,1 C 4,4 C 25,7 km/h (4 Bft) 100,00 %
19.05.2016 17:15 10,7 C 91 % 1010,9 hPa 0,0 l/m 17,5 km/h (3 Bft) W-SW 254 0 min 0,000 mm 0,0 UV-I 44 W/m 9,3 C 5,0 C 22,5 km/h (4 Bft) 95,65 %
19.05.2016 17:16 10,7 C 91 % 1010,9 hPa 0,2 l/m 23,2 km/h (4 Bft) W-SW 246 0 min 0,000 mm 0,0 UV-I 42 W/m 9,3 C 3,3 C 29,0 km/h (5 Bft) 100,00 %
19.05.2016 17:17 10,6 C 91 % 1011,0 hPa 0,2 l/m 28,0 km/h (4 Bft) W 260 0 min 0,000 mm 0,0 UV-I 42 W/m 9,2 C 1,9 C 40,2 km/h (6 Bft) 92,86 %
19.05.2016 17:18 10,6 C 91 % 1010,9 hPa 0,0 l/m 24,9 km/h (4 Bft) SW 219 0 min 0,000 mm 0,0 UV-I 43 W/m 9,2 C 2,7 C 35,4 km/h (5 Bft) 92,59 %
19.05.2016 17:19 10,5 C 90 % 1010,9 hPa 0,2 l/m 22,6 km/h (4 Bft) SW 221 0 min 0,000 mm 0,0 UV-I 46 W/m 8,9 C 3,2 C 30,6 km/h (5 Bft) 96,15 %
19.05.2016 17:20 10,4 C 91 % 1010,9 hPa 0,2 l/m 23,3 km/h (4 Bft) W-SW 245 0 min 0,000 mm 0,0 UV-I 49 W/m 9,0 C 2,8 C 40,2 km/h (6 Bft) 100,00 %
19.05.2016 17:21 10,4 C 91 % 1011,1 hPa 0,2 l/m 23,7 km/h (4 Bft) W-SW 246 0 min 0,000 mm 0,0 UV-I 54 W/m 9,0 C 2,7 C 38,6 km/h (5 Bft) 96,67 %
19.05.2016 17:22 10,3 C 91 % 1010,9 hPa 0,2 l/m 21,7 km/h (4 Bft) W-SW 246 0 min 0,000 mm 0,0 UV-I 60 W/m 8,9 C 3,1 C 32,2 km/h (5 Bft) 100,00 %
19.05.2016 17:23 10,3 C 91 % 1010,9 hPa 0,2 l/m 19,2 km/h (3 Bft) SW 236 0 min 0,000 mm 0,0 UV-I 63 W/m 8,9 C 3,9 C 30,6 km/h (5 Bft) 96,55 %
19.05.2016 17:24 10,3 C 91 % 1010,9 hPa 0,2 l/m 20,7 km/h (4 Bft) SW 234 0 min 0,000 mm 0,0 UV-I 65 W/m 8,9 C 3,5 C 33,8 km/h (5 Bft) 96,30 %
19.05.2016 17:25 10,3 C 92 % 1011,1 hPa 0,0 l/m 23,9 km/h (4 Bft) S-SW 207 0 min 0,000 mm 0,0 UV-I 65 W/m 9,1 C 2,5 C 33,8 km/h (5 Bft) 100,00 %
19.05.2016 17:26 10,2 C 92 % 1011,1 hPa 0,2 l/m 23,8 km/h (4 Bft) SW 231 0 min 0,000 mm 0,0 UV-I 64 W/m 9,0 C 2,4 C 35,4 km/h (5 Bft) 93,10 %
19.05.2016 17:27 10,2 C 92 % 1011,1 hPa 0,2 l/m 23,2 km/h (4 Bft) SW 236 0 min 0,000 mm 0,0 UV-I 63 W/m 9,0 C 2,6 C 33,8 km/h (5 Bft) 96,55 %
19.05.2016 17:28 10,1 C 92 % 1011,1 hPa 0,0 l/m 17,8 km/h (3 Bft) W-SW 242 0 min 0,000 mm 0,0 UV-I 63 W/m 8,9 C 4,2 C 24,1 km/h (4 Bft) 95,83 %
19.05.2016 17:29 10,1 C 92 % 1011,2 hPa 0,0 l/m 19,1 km/h (3 Bft) S-SW 208 0 min 0,000 mm 0,0 UV-I 63 W/m 8,9 C 3,7 C 27,4 km/h (4 Bft) 96,15 %
19.05.2016 17:30 10,1 C 92 % 1011,3 hPa 0,2 l/m 22,7 km/h (4 Bft) S-SW 194 0 min 0,000 mm 0,0 UV-I 64 W/m 8,9 C 2,6 C 33,8 km/h (5 Bft) 100,00 %
19.05.2016 17:31 10,1 C 92 % 1011,3 hPa 0,0 l/m 24,9 km/h (4 Bft) S-SW 211 0 min 0,000 mm 0,0 UV-I 66 W/m 8,9 C 2,0 C 32,2 km/h (5 Bft) 93,33 %
19.05.2016 17:32 10,1 C 92 % 1011,4 hPa 0,0 l/m 20,6 km/h (4 Bft) W-SW 254 0 min 0,000 mm 0,0 UV-I 67 W/m 8,9 C 3,2 C 32,2 km/h (5 Bft) 100,00 %
19.05.2016 17:33 10,1 C 92 % 1011,3 hPa 0,2 l/m 23,8 km/h (4 Bft) SW 228 0 min 0,000 mm 0,0 UV-I 66 W/m 8,9 C 2,3 C 35,4 km/h (5 Bft) 100,00 %
19.05.2016 17:34 10,1 C 92 % 1011,4 hPa 0,0 l/m 21,2 km/h (4 Bft) SW 217 0 min 0,000 mm 0,0 UV-I 63 W/m 8,9 C 3,0 C 27,4 km/h (4 Bft) 100,00 %
19.05.2016 17:35 10,0 C 92 % 1011,5 hPa 0,0 l/m 20,3 km/h (4 Bft) SW 235 0 min 0,000 mm 0,0 UV-I 58 W/m 8,8 C 3,2 C 30,6 km/h (5 Bft) 100,00 %
19.05.2016 17:36 9,9 C 92 % 1011,4 hPa 0,0 l/m 23,3 km/h (4 Bft) S-SW 211 0 min 0,000 mm 0,0 UV-I 53 W/m 8,7 C 2,2 C 30,6 km/h (5 Bft) 100,00 %
19.05.2016 17:37 9,9 C 92 % 1011,4 hPa 0,0 l/m 31,5 km/h (5 Bft) SW 215 0 min 0,000 mm 0,0 UV-I 48 W/m 8,7 C 0,2 C 46,7 km/h (6 Bft) 96,30 %
19.05.2016 17:38 9,9 C 92 % 1011,5 hPa 0,0 l/m 28,8 km/h (4 Bft) W-SW 237 0 min 0,000 mm 0,0 UV-I 41 W/m 8,7 C 0,8 C 38,6 km/h (5 Bft) 100,00 %
19.05.2016 17:39 9,9 C 92 % 1011,4 hPa 0,2 l/m 25,6 km/h (4 Bft) SW 228 0 min 0,000 mm 0,0 UV-I 35 W/m 8,7 C 1,5 C 33,8 km/h (5 Bft) 93,33 %
19.05.2016 17:40 9,8 C 92 % 1011,4 hPa 0,0 l/m 28,2 km/h (4 Bft) W 266 0 min 0,000 mm 0,0 UV-I 31 W/m 8,6 C 0,8 C 35,4 km/h (5 Bft) 100,00 %
19.05.2016 17:41 9,8 C 92 % 1011,5 hPa 0,0 l/m 26,3 km/h (4 Bft) W-SW 241 0 min 0,000 mm 0,0 UV-I 26 W/m 8,6 C 1,2 C 35,4 km/h (5 Bft) 100,00 %
19.05.2016 17:42 9,8 C 92 % 1011,6 hPa 0,0 l/m 22,8 km/h (4 Bft) W 263 0 min 0,000 mm 0,0 UV-I 23 W/m 8,6 C 2,2 C 35,4 km/h (5 Bft) 100,00 %
19.05.2016 17:43 9,7 C 92 % 1011,6 hPa 0,0 l/m 17,1 km/h (3 Bft) S-SW 206 0 min 0,000 mm 0,0 UV-I 20 W/m 8,5 C 3,9 C 27,4 km/h (4 Bft) 98,70 %
19.05.2016 17:44 9,7 C 92 % 1011,7 hPa 0,2 l/m 23,6 km/h (4 Bft) W-SW 237 0 min 0,000 mm 0,0 UV-I 18 W/m 8,5 C 1,8 C 35,4 km/h (5 Bft) 100,00 %
19.05.2016 17:45 9,7 C 92 % 1011,8 hPa 0,0 l/m 26,3 km/h (4 Bft) W 261 0 min 0,000 mm 0,0 UV-I 18 W/m 8,5 C 1,1 C 38,6 km/h (5 Bft) 100,00 %
19.05.2016 17:46 9,7 C 92 % 1011,8 hPa 0,0 l/m 15,0 km/h (3 Bft) W-SW 244 0 min 0,000 mm 0,0 UV-I 16 W/m 8,5 C 4,8 C 24,1 km/h (4 Bft) 92,31 %
19.05.2016 17:47 9,6 C 92 % 1011,9 hPa 0,0 l/m 14,5 km/h (3 Bft) W 277 0 min 0,000 mm 0,0 UV-I 16 W/m 8,4 C 4,9 C 17,7 km/h (3 Bft) 100,00 %
19.05.2016 17:48 9,6 C 92 % 1011,9 hPa 0,0 l/m 19,8 km/h (3 Bft) W 269 0 min 0,000 mm 0,0 UV-I 14 W/m 8,4 C 2,8 C 27,4 km/h (4 Bft) 100,00 %
19.05.2016 17:49 9,6 C 92 % 1011,9 hPa 0,0 l/m 18,5 km/h (3 Bft) W 259 0 min 0,000 mm 0,0 UV-I 14 W/m 8,4 C 3,3 C 22,5 km/h (4 Bft) 100,00 %
19.05.2016 17:50 9,6 C 92 % 1012,0 hPa 0,0 l/m 13,3 km/h (3 Bft) W-SW 250 0 min 0,000 mm 0,0 UV-I 13 W/m 8,4 C 5,4 C 19,3 km/h (3 Bft) 100,00 %
19.05.2016 17:51 9,6 C 92 % 1012,1 hPa 0,0 l/m 22,1 km/h (4 Bft) SW 233 0 min 0,000 mm 0,0 UV-I 12 W/m 8,4 C 2,1 C 29,0 km/h (5 Bft) 100,00 %
19.05.2016 17:52 9,5 C 92 % 1012,1 hPa 0,0 l/m 24,1 km/h (4 Bft) W-SW 245 0 min 0,000 mm 0,0 UV-I 12 W/m 8,3 C 1,4 C 32,2 km/h (5 Bft) 100,00 %
19.05.2016 17:53 9,5 C 92 % 1012,1 hPa 0,0 l/m 12,3 km/h (3 Bft) W-SW 250 0 min 0,000 mm 0,0 UV-I 12 W/m 8,3 C 5,8 C 20,9 km/h (4 Bft) 100,00 %
19.05.2016 17:54 9,4 C 92 % 1012,2 hPa 0,0 l/m 14,3 km/h (3 Bft) SW 222 0 min 0,000 mm 0,0 UV-I 12 W/m 8,2 C 4,7 C 22,5 km/h (4 Bft) 100,00 %
19.05.2016 17:55 9,4 C 92 % 1012,3 hPa 0,0 l/m 15,6 km/h (3 Bft) W-SW 250 0 min 0,000 mm 0,0 UV-I 13 W/m 8,2 C 4,2 C 20,9 km/h (4 Bft) 100,00 %
19.05.2016 17:56 9,4 C 92 % 1012,3 hPa 0,0 l/m 14,7 km/h (3 Bft) SW 236 0 min 0,000 mm 0,0 UV-I 14 W/m 8,2 C 4,5 C 22,5 km/h (4 Bft) 96,67 %
19.05.2016 17:57 9,4 C 92 % 1012,4 hPa 0,0 l/m 17,8 km/h (3 Bft) SW 232 0 min 0,000 mm 0,0 UV-I 14 W/m 8,2 C 3,3 C 25,7 km/h (4 Bft) 95,65 %
19.05.2016 17:58 9,4 C 92 % 1012,4 hPa 0,0 l/m 14,8 km/h (3 Bft) W-SW 240 0 min 0,000 mm 0,0 UV-I 14 W/m 8,2 C 4,5 C 24,1 km/h (4 Bft) 100,00 %
19.05.2016 17:59 9,4 C 92 % 1012,4 hPa 0,0 l/m 9,1 km/h (2 Bft) W-SW 240 0 min 0,000 mm 0,0 UV-I 14 W/m 8,2 C 7,5 C 17,7 km/h (3 Bft) 100,00 %
19.05.2016 18:00 9,4 C 92 % 1012,4 hPa 0,2 l/m 9,8 km/h (2 Bft) SW 216 0 min 0,000 mm 0,0 UV-I 14 W/m 8,2 C 7,1 C 14,5 km/h (3 Bft) 100,00 %
19.05.2016 18:01 9,4 C 93 % 1012,5 hPa 0,2 l/m 10,1 km/h (2 Bft) S-SW 204 0 min 0,026 mm 0,0 UV-I 14 W/m 8,3 C 6,9 C 14,5 km/h (3 Bft) 95,65 %
19.05.2016 18:02 9,4 C 92 % 1012,5 hPa 0,0 l/m 13,6 km/h (3 Bft) S-SO 153 0 min 0,000 mm 0,0 UV-I 15 W/m 8,2 C 5,0 C 16,1 km/h (3 Bft) 100,00 %
19.05.2016 18:03 9,3 C 93 % 1012,5 hPa 0,2 l/m 15,5 km/h (3 Bft) S 191 0 min 0,000 mm 0,0 UV-I 18 W/m 8,2 C 4,1 C 25,7 km/h (4 Bft) 100,00 %
19.05.2016 18:04 9,3 C 93 % 1012,4 hPa 0,2 l/m 15,1 km/h (3 Bft) S-SW 207 0 min 0,000 mm 0,0 UV-I 18 W/m 8,2 C 4,2 C 22,5 km/h (4 Bft) 100,00 %
19.05.2016 18:05 9,3 C 93 % 1012,4 hPa 0,0 l/m 14,4 km/h (3 Bft) S-SW 211 0 min 0,000 mm 0,0 UV-I 19 W/m 8,2 C 4,6 C 19,3 km/h (3 Bft) 100,00 %
19.05.2016 18:06 9,3 C 93 % 1012,3 hPa 0,2 l/m 15,3 km/h (3 Bft) O-SO 117 0 min 0,000 mm 0,0 UV-I 19 W/m 8,2 C 4,2 C 22,5 km/h (4 Bft) 100,00 %
19.05.2016 18:07 9,3 C 93 % 1012,3 hPa 0,2 l/m 10,2 km/h (2 Bft) S-SW 213 0 min 0,000 mm 0,0 UV-I 18 W/m 8,2 C 6,7 C 14,5 km/h (3 Bft) 100,00 %
19.05.2016 18:08 9,3 C 93 % 1012,3 hPa 0,0 l/m 15,5 km/h (3 Bft) S-SW 209 0 min 0,000 mm 0,0 UV-I 18 W/m 8,2 C 4,1 C 22,5 km/h (4 Bft) 100,00 %
19.05.2016 18:09 9,3 C 93 % 1012,3 hPa 0,2 l/m 16,2 km/h (3 Bft) SW 217 0 min 0,000 mm 0,0 UV-I 18 W/m 8,2 C 3,8 C 20,9 km/h (4 Bft) 100,00 %
19.05.2016 18:10 9,3 C 93 % 1012,3 hPa 0,0 l/m 11,0 km/h (2 Bft) S 181 0 min 0,000 mm 0,0 UV-I 18 W/m 8,2 C 6,2 C 14,5 km/h (3 Bft) 100,00 %
19.05.2016 18:11 9,3 C 93 % 1012,3 hPa 0,2 l/m 12,7 km/h (3 Bft) S-SW 202 0 min 0,000 mm 0,0 UV-I 18 W/m 8,2 C 5,4 C 20,9 km/h (4 Bft) 96,30 %
19.05.2016 18:12 9,2 C 93 % 1012,3 hPa 0,0 l/m 17,2 km/h (3 Bft) SW 225 0 min 0,000 mm 0,0 UV-I 16 W/m 8,1 C 3,3 C 22,5 km/h (4 Bft) 100,00 %
19.05.2016 18:13 9,2 C 93 % 1012,3 hPa 0,0 l/m 13,1 km/h (3 Bft) S-SO 168 0 min 0,000 mm 0,0 UV-I 16 W/m 8,1 C 5,0 C 19,3 km/h (3 Bft) 100,00 %
19.05.2016 18:14 9,2 C 93 % 1012,3 hPa 0,2 l/m 16,0 km/h (3 Bft) SW 232 0 min 0,000 mm 0,0 UV-I 16 W/m 8,1 C 3,7 C 20,9 km/h (4 Bft) 100,00 %
19.05.2016 18:15 9,2 C 93 % 1012,3 hPa 0,0 l/m 18,3 km/h (3 Bft) S 179 0 min 0,000 mm 0,0 UV-I 16 W/m 8,1 C 2,8 C 24,1 km/h (4 Bft) 100,00 %
19.05.2016 18:16 9,2 C 93 % 1012,3 hPa 0,0 l/m 15,0 km/h (3 Bft) SW 222 0 min 0,000 mm 0,0 UV-I 14 W/m 8,1 C 4,2 C 22,5 km/h (4 Bft) 100,00 %
19.05.2016 18:17 9,2 C 93 % 1012,3 hPa 0,0 l/m 14,6 km/h (3 Bft) SW 236 0 min 0,000 mm 0,0 UV-I 14 W/m 8,1 C 4,3 C 22,5 km/h (4 Bft) 100,00 %
19.05.2016 18:18 9,2 C 94 % 1012,3 hPa 0,2 l/m 13,4 km/h (3 Bft) S-SO 167 0 min 0,000 mm 0,0 UV-I 14 W/m 8,3 C 4,9 C 19,3 km/h (3 Bft) 100,00 %
19.05.2016 18:19 9,2 C 94 % 1012,3 hPa 0,0 l/m 16,3 km/h (3 Bft) W-SW 248 0 min 0,000 mm 0,0 UV-I 14 W/m 8,3 C 3,6 C 25,7 km/h (4 Bft) 100,00 %
19.05.2016 18:20 9,2 C 94 % 1012,4 hPa 0,0 l/m 13,3 km/h (3 Bft) S-SW 194 0 min 0,000 mm 0,0 UV-I 12 W/m 8,3 C 4,9 C 17,7 km/h (3 Bft) 100,00 %
19.05.2016 18:21 9,2 C 94 % 1012,4 hPa 0,0 l/m 13,6 km/h (3 Bft) SW 227 0 min 0,000 mm 0,0 UV-I 12 W/m 8,3 C 4,8 C 24,1 km/h (4 Bft) 100,00 %
19.05.2016 18:22 9,1 C 94 % 1012,4 hPa 0,0 l/m 14,8 km/h (3 Bft) W-SW 257 0 min 0,000 mm 0,0 UV-I 12 W/m 8,2 C 4,1 C 24,1 km/h (4 Bft) 96,15 %
19.05.2016 18:23 9,1 C 94 % 1012,4 hPa 0,0 l/m 18,9 km/h (3 Bft) S-SW 199 0 min 0,000 mm 0,0 UV-I 12 W/m 8,2 C 2,5 C 27,4 km/h (4 Bft) 100,00 %
19.05.2016 18:24 9,1 C 94 % 1012,4 hPa 0,2 l/m 16,7 km/h (3 Bft) S-SW 197 0 min 0,000 mm 0,0 UV-I 12 W/m 8,2 C 3,3 C 24,1 km/h (4 Bft) 100,00 %
19.05.2016 18:25 9,1 C 94 % 1012,4 hPa 0,0 l/m 12,7 km/h (3 Bft) S-SW 211 0 min 0,000 mm 0,0 UV-I 12 W/m 8,2 C 5,1 C 22,5 km/h (4 Bft) 100,00 %
19.05.2016 18:26 9,1 C 94 % 1012,3 hPa 0,0 l/m 12,8 km/h (3 Bft) W-SW 257 0 min 0,000 mm 0,0 UV-I 12 W/m 8,2 C 5,1 C 17,7 km/h (3 Bft) 100,00 %
19.05.2016 18:27 9,1 C 94 % 1012,4 hPa 0,2 l/m 14,5 km/h (3 Bft) W 263 0 min 0,000 mm 0,0 UV-I 12 W/m 8,2 C 4,3 C 24,1 km/h (4 Bft) 100,00 %
19.05.2016 18:28 9,1 C 94 % 1012,3 hPa 0,0 l/m 18,2 km/h (3 Bft) SW 221 0 min 0,000 mm 0,0 UV-I 12 W/m 8,2 C 2,8 C 24,1 km/h (4 Bft) 100,00 %
19.05.2016 18:29 9,1 C 94 % 1012,3 hPa 0,2 l/m 16,5 km/h (3 Bft) S-SW 205 0 min 0,000 mm 0,0 UV-I 12 W/m 8,2 C 3,4 C 25,7 km/h (4 Bft) 100,00 %
19.05.2016 18:30 9,1 C 94 % 1012,3 hPa 0,0 l/m 19,4 km/h (3 Bft) S-SW 194 0 min 0,000 mm 0,0 UV-I 13 W/m 8,2 C 2,3 C 30,6 km/h (5 Bft) 100,00 %
19.05.2016 18:31 9,1 C 94 % 1012,3 hPa 0,2 l/m 16,4 km/h (3 Bft) S 180 0 min 0,000 mm 0,0 UV-I 14 W/m 8,2 C 3,5 C 24,1 km/h (4 Bft) 100,00 %
19.05.2016 18:32 9,1 C 94 % 1012,4 hPa 0,2 l/m 17,5 km/h (3 Bft) W-SW 251 0 min 0,000 mm 0,0 UV-I 14 W/m 8,2 C 3,0 C 24,1 km/h (4 Bft) 100,00 %
19.05.2016 18:33 9,1 C 94 % 1012,3 hPa 0,0 l/m 13,9 km/h (3 Bft) SW 232 0 min 0,000 mm 0,0 UV-I 14 W/m 8,2 C 4,5 C 19,3 km/h (3 Bft) 100,00 %
19.05.2016 18:34 9,1 C 94 % 1012,4 hPa 0,2 l/m 13,8 km/h (3 Bft) S-SW 211 0 min 0,000 mm 0,0 UV-I 14 W/m 8,2 C 4,6 C 24,1 km/h (4 Bft) 100,00 %
19.05.2016 18:35 9,0 C 94 % 1012,4 hPa 0,0 l/m 20,7 km/h (4 Bft) SW 226 0 min 0,000 mm 0,0 UV-I 14 W/m 8,1 C 1,8 C 32,2 km/h (5 Bft) 100,00 %
19.05.2016 18:36 9,0 C 94 % 1012,4 hPa 0,0 l/m 15,7 km/h (3 Bft) W-SW 242 0 min 0,000 mm 0,0 UV-I 14 W/m 8,1 C 3,6 C 19,3 km/h (3 Bft) 100,00 %
19.05.2016 18:37 9,0 C 94 % 1012,3 hPa 0,2 l/m 17,1 km/h (3 Bft) S 187 0 min 0,000 mm 0,0 UV-I 15 W/m 8,1 C 3,1 C 22,5 km/h (4 Bft) 100,00 %
19.05.2016 18:38 9,0 C 94 % 1012,3 hPa 0,0 l/m 10,6 km/h (2 Bft) W-SW 246 0 min 0,000 mm 0,0 UV-I 16 W/m 8,1 C 6,1 C 17,7 km/h (3 Bft) 100,00 %
19.05.2016 18:39 9,0 C 94 % 1012,3 hPa 0,2 l/m 18,0 km/h (3 Bft) W-SW 245 0 min 0,000 mm 0,0 UV-I 16 W/m 8,1 C 2,7 C 25,7 km/h (4 Bft) 100,00 %
19.05.2016 18:40 9,0 C 94 % 1012,3 hPa 0,0 l/m 12,8 km/h (3 Bft) SW 225 0 min 0,000 mm 0,0 UV-I 16 W/m 8,1 C 5,0 C 20,9 km/h (4 Bft) 100,00 %
19.05.2016 18:41 9,0 C 94 % 1012,3 hPa 0,0 l/m 17,2 km/h (3 Bft) S-SW 203 0 min 0,000 mm 0,0 UV-I 16 W/m 8,1 C 3,0 C 25,7 km/h (4 Bft) 100,00 %
19.05.2016 18:42 9,0 C 94 % 1012,3 hPa 0,2 l/m 16,5 km/h (3 Bft) SW 221 0 min 0,000 mm 0,0 UV-I 16 W/m 8,1 C 3,3 C 24,1 km/h (4 Bft) 100,00 %
19.05.2016 18:43 9,0 C 94 % 1012,3 hPa 0,0 l/m 14,8 km/h (3 Bft) SW 225 0 min 0,000 mm 0,0 UV-I 17 W/m 8,1 C 4,0 C 22,5 km/h (4 Bft) 100,00 %
19.05.2016 18:44 9,0 C 94 % 1012,3 hPa 0,0 l/m 16,2 km/h (3 Bft) W-SW 238 0 min 0,000 mm 0,0 UV-I 18 W/m 8,1 C 3,4 C 22,5 km/h (4 Bft) 95,83 %
19.05.2016 18:45 9,0 C 94 % 1012,3 hPa 0,2 l/m 15,4 km/h (3 Bft) S-SW 200 0 min 0,000 mm 0,0 UV-I 18 W/m 8,1 C 3,7 C 22,5 km/h (4 Bft) 100,00 %
19.05.2016 18:46 8,9 C 94 % 1012,3 hPa 0,0 l/m 20,2 km/h (4 Bft) W-SW 244 0 min 0,000 mm 0,0 UV-I 18 W/m 8,0 C 1,8 C 32,2 km/h (5 Bft) 100,00 %
19.05.2016 18:47 8,9 C 94 % 1012,3 hPa 0,0 l/m 18,2 km/h (3 Bft) SW 232 0 min 0,000 mm 0,0 UV-I 18 W/m 8,0 C 2,5 C 24,1 km/h (4 Bft) 100,00 %
19.05.2016 18:48 8,9 C 94 % 1012,4 hPa 0,2 l/m 19,0 km/h (3 Bft) W-SW 242 0 min 0,000 mm 0,0 UV-I 18 W/m 8,0 C 2,2 C 29,0 km/h (5 Bft) 100,00 %
19.05.2016 18:49 8,9 C 94 % 1012,3 hPa 0,0 l/m 20,2 km/h (4 Bft) W-SW 258 0 min 0,000 mm 0,0 UV-I 19 W/m 8,0 C 1,8 C 29,0 km/h (5 Bft) 100,00 %
19.05.2016 18:50 8,9 C 94 % 1012,4 hPa 0,2 l/m 19,8 km/h (3 Bft) SW 233 0 min 0,000 mm 0,0 UV-I 19 W/m 8,0 C 1,9 C 32,2 km/h (5 Bft) 100,00 %
19.05.2016 18:51 8,9 C 94 % 1012,4 hPa 0,0 l/m 14,9 km/h (3 Bft) S-SW 204 0 min 0,000 mm 0,0 UV-I 19 W/m 8,0 C 3,8 C 20,9 km/h (4 Bft) 100,00 %
19.05.2016 18:52 8,9 C 94 % 1012,4 hPa 0,0 l/m 14,0 km/h (3 Bft) S-SW 211 0 min 0,000 mm 0,0 UV-I 19 W/m 8,0 C 4,3 C 17,7 km/h (3 Bft) 95,65 %
19.05.2016 18:53 8,9 C 94 % 1012,4 hPa 0,0 l/m 12,9 km/h (3 Bft) W-SW 244 0 min 0,000 mm 0,0 UV-I 19 W/m 8,0 C 4,8 C 16,1 km/h (3 Bft) 96,30 %
19.05.2016 18:54 8,9 C 94 % 1012,4 hPa 0,0 l/m 12,8 km/h (3 Bft) SW 221 0 min 0,000 mm 0,0 UV-I 18 W/m 8,0 C 4,8 C 19,3 km/h (3 Bft) 100,00 %
19.05.2016 18:55 8,9 C 94 % 1012,5 hPa 0,2 l/m 15,6 km/h (3 Bft) W-SW 248 0 min 0,000 mm 0,0 UV-I 18 W/m 8,0 C 3,5 C 22,5 km/h (4 Bft) 100,00 %
19.05.2016 18:56 8,9 C 94 % 1012,6 hPa 0,0 l/m 15,7 km/h (3 Bft) W 281 0 min 0,000 mm 0,0 UV-I 18 W/m 8,0 C 3,5 C 24,1 km/h (4 Bft) 100,00 %
19.05.2016 18:57 9,0 C 94 % 1012,6 hPa 0,0 l/m 13,0 km/h (3 Bft) SW 235 0 min 0,000 mm 0,0 UV-I 18 W/m 8,1 C 4,9 C 19,3 km/h (3 Bft) 100,00 %
19.05.2016 18:58 9,0 C 94 % 1012,7 hPa 0,0 l/m 13,9 km/h (3 Bft) W-SW 242 0 min 0,000 mm 0,0 UV-I 18 W/m 8,1 C 4,4 C 19,3 km/h (3 Bft) 100,00 %
19.05.2016 18:59 9,0 C 94 % 1012,7 hPa 0,2 l/m 13,6 km/h (3 Bft) SW 234 0 min 0,000 mm 0,0 UV-I 18 W/m 8,1 C 4,6 C 19,3 km/h (3 Bft) 100,00 %
19.05.2016 19:00 9,0 C 94 % 1012,7 hPa 0,0 l/m 15,8 km/h (3 Bft) W-SW 256 0 min 0,000 mm 0,0 UV-I 18 W/m 8,1 C 3,6 C 22,5 km/h (4 Bft) 100,00 %
19.05.2016 19:02 9,0 C 94 % 1012,7 hPa 0,2 l/m 12,2 km/h (2 Bft) SW 228 0 min 0,025 mm 0,0 UV-I 18 W/m 8,1 C 5,3 C 20,9 km/h (4 Bft) 92,59 %
19.05.2016 19:03 9,0 C 94 % 1012,6 hPa 0,0 l/m 8,8 km/h (2 Bft) SW 221 0 min 0,000 mm 0,0 UV-I 18 W/m 8,1 C 7,3 C 12,9 km/h (3 Bft) 97,56 %
19.05.2016 19:04 9,0 C 94 % 1012,7 hPa 0,2 l/m 13,8 km/h (3 Bft) S-SW 200 0 min 0,000 mm 0,0 UV-I 18 W/m 8,1 C 4,5 C 17,7 km/h (3 Bft) 96,15 %
19.05.2016 19:05 9,0 C 94 % 1012,6 hPa 0,0 l/m 16,9 km/h (3 Bft) SW 222 0 min 0,000 mm 0,0 UV-I 18 W/m 8,1 C 3,1 C 22,5 km/h (4 Bft) 98,76 %
19.05.2016 19:06 9,0 C 94 % 1012,6 hPa 0,2 l/m 16,3 km/h (3 Bft) W-SW 245 0 min 0,000 mm 0,0 UV-I 19 W/m 8,1 C 3,4 C 22,5 km/h (4 Bft) 97,56 %
19.05.2016 19:07 9,0 C 94 % 1012,6 hPa 0,0 l/m 19,8 km/h (3 Bft) S-SW 212 0 min 0,000 mm 0,0 UV-I 19 W/m 8,1 C 2,1 C 25,7 km/h (4 Bft) 100,00 %
19.05.2016 19:08 9,0 C 94 % 1012,6 hPa 0,2 l/m 16,8 km/h (3 Bft) SW 227 0 min 0,000 mm 0,0 UV-I 19 W/m 8,1 C 3,2 C 22,5 km/h (4 Bft) 93,10 %
19.05.2016 19:09 9,0 C 94 % 1012,5 hPa 0,0 l/m 19,2 km/h (3 Bft) W-SW 245 0 min 0,000 mm 0,0 UV-I 19 W/m 8,1 C 2,3 C 25,7 km/h (4 Bft) 100,00 %
19.05.2016 19:10 9,0 C 94 % 1012,5 hPa 0,0 l/m 18,9 km/h (3 Bft) SW 229 0 min 0,000 mm 0,0 UV-I 19 W/m 8,1 C 2,4 C 25,7 km/h (4 Bft) 95,83 %
19.05.2016 19:11 9,0 C 94 % 1012,4 hPa 0,2 l/m 23,4 km/h (4 Bft) W 259 0 min 0,000 mm 0,0 UV-I 19 W/m 8,1 C 0,9 C 30,6 km/h (5 Bft) 96,15 %
19.05.2016 19:12 9,0 C 94 % 1012,3 hPa 0,0 l/m 19,2 km/h (3 Bft) W-SW 252 0 min 0,000 mm 0,0 UV-I 19 W/m 8,1 C 2,3 C 24,1 km/h (4 Bft) 91,67 %
19.05.2016 19:13 9,0 C 94 % 1012,3 hPa 0,0 l/m 15,4 km/h (3 Bft) W-SW 255 0 min 0,000 mm 0,0 UV-I 19 W/m 8,1 C 3,7 C 19,3 km/h (3 Bft) 96,88 %
19.05.2016 19:14 9,0 C 94 % 1012,3 hPa 0,0 l/m 19,3 km/h (3 Bft) S-SW 204 0 min 0,000 mm 0,0 UV-I 21 W/m 8,1 C 2,2 C 25,7 km/h (4 Bft) 100,00 %
19.05.2016 19:15 8,9 C 94 % 1012,3 hPa 0,2 l/m 15,0 km/h (3 Bft) W-SW 250 0 min 0,000 mm 0,0 UV-I 21 W/m 8,0 C 3,8 C 20,9 km/h (4 Bft) 96,15 %
19.05.2016 19:16 8,9 C 94 % 1012,3 hPa 0,0 l/m 16,8 km/h (3 Bft) W 281 0 min 0,000 mm 0,0 UV-I 21 W/m 8,0 C 3,0 C 22,5 km/h (4 Bft) 100,00 %
19.05.2016 19:17 8,9 C 94 % 1012,3 hPa 0,0 l/m 13,3 km/h (3 Bft) SW 227 0 min 0,000 mm 0,0 UV-I 21 W/m 8,0 C 4,6 C 22,5 km/h (4 Bft) 95,65 %
19.05.2016 19:18 9,0 C 94 % 1012,3 hPa 0,0 l/m 15,9 km/h (3 Bft) W-SW 249 0 min 0,000 mm 0,0 UV-I 21 W/m 8,1 C 3,5 C 20,9 km/h (4 Bft) 100,00 %
19.05.2016 19:19 8,9 C 94 % 1012,4 hPa 0,0 l/m 15,4 km/h (3 Bft) W-SW 246 0 min 0,000 mm 0,0 UV-I 21 W/m 8,0 C 3,6 C 22,5 km/h (4 Bft) 96,15 %
19.05.2016 19:20 8,9 C 94 % 1012,3 hPa 0,0 l/m 19,8 km/h (3 Bft) W-SW 248 0 min 0,000 mm 0,0 UV-I 21 W/m 8,0 C 1,9 C 27,4 km/h (4 Bft) 96,30 %
19.05.2016 19:21 8,9 C 94 % 1012,4 hPa 0,0 l/m 19,2 km/h (3 Bft) SW 228 0 min 0,000 mm 0,0 UV-I 23 W/m 8,0 C 2,1 C 27,4 km/h (4 Bft) 100,00 %
19.05.2016 19:22 8,9 C 94 % 1012,4 hPa 0,2 l/m 16,6 km/h (3 Bft) W-SW 250 0 min 0,000 mm 0,0 UV-I 23 W/m 8,0 C 3,1 C 22,5 km/h (4 Bft) 93,33 %
19.05.2016 19:23 8,9 C 94 % 1012,5 hPa 0,0 l/m 14,7 km/h (3 Bft) W-SW 238 0 min 0,000 mm 0,0 UV-I 23 W/m 8,0 C 3,9 C 22,5 km/h (4 Bft) 100,00 %
19.05.2016 19:24 8,9 C 94 % 1012,5 hPa 0,0 l/m 14,4 km/h (3 Bft) SW 232 0 min 0,000 mm 0,0 UV-I 23 W/m 8,0 C 4,1 C 17,7 km/h (3 Bft) 96,30 %
19.05.2016 19:25 8,9 C 94 % 1012,5 hPa 0,0 l/m 17,1 km/h (3 Bft) W 264 0 min 0,000 mm 0,0 UV-I 23 W/m 8,0 C 2,9 C 22,5 km/h (4 Bft) 100,00 %
19.05.2016 19:26 8,9 C 94 % 1012,5 hPa 0,0 l/m 16,1 km/h (3 Bft) W-NW 282 0 min 0,000 mm 0,0 UV-I 23 W/m 8,0 C 3,3 C 29,0 km/h (5 Bft) 83,33 %
19.05.2016 19:27 8,9 C 94 % 1012,5 hPa 0,0 l/m 15,5 km/h (3 Bft) SW 221 0 min 0,000 mm 0,0 UV-I 23 W/m 8,0 C 3,6 C 25,7 km/h (4 Bft) 100,00 %
19.05.2016 19:28 8,9 C 94 % 1012,5 hPa 0,0 l/m 21,6 km/h (4 Bft) W 269 0 min 0,000 mm 0,0 UV-I 23 W/m 8,0 C 1,3 C 30,6 km/h (5 Bft) 95,65 %
19.05.2016 19:29 8,9 C 94 % 1012,5 hPa 0,0 l/m 17,7 km/h (3 Bft) SW 215 0 min 0,000 mm 0,0 UV-I 23 W/m 8,0 C 2,7 C 25,7 km/h (4 Bft) 100,00 %
19.05.2016 19:30 9,0 C 94 % 1012,6 hPa 0,0 l/m 14,2 km/h (3 Bft) W-SW 254 0 min 0,000 mm 0,0 UV-I 23 W/m 8,1 C 4,3 C 20,9 km/h (4 Bft) 97,56 %
19.05.2016 19:31 9,0 C 94 % 1012,6 hPa 0,0 l/m 21,0 km/h (4 Bft) W-SW 246 0 min 0,000 mm 0,0 UV-I 23 W/m 8,1 C 1,7 C 27,4 km/h (4 Bft) 91,67 %
19.05.2016 19:32 9,0 C 94 % 1012,7 hPa 0,0 l/m 14,4 km/h (3 Bft) W-SW 239 0 min 0,000 mm 0,0 UV-I 23 W/m 8,1 C 4,2 C 19,3 km/h (3 Bft) 100,00 %
19.05.2016 19:33 9,0 C 94 % 1012,6 hPa 0,0 l/m 18,0 km/h (3 Bft) W-SW 244 0 min 0,000 mm 0,0 UV-I 21 W/m 8,1 C 2,7 C 22,5 km/h (4 Bft) 100,00 %
19.05.2016 19:34 9,0 C 94 % 1012,7 hPa 0,0 l/m 16,9 km/h (3 Bft) W-SW 242 0 min 0,000 mm 0,0 UV-I 21 W/m 8,1 C 3,1 C 22,5 km/h (4 Bft) 97,56 %
19.05.2016 19:35 9,0 C 94 % 1012,7 hPa 0,0 l/m 16,8 km/h (3 Bft) W-SW 254 0 min 0,000 mm 0,0 UV-I 21 W/m 8,1 C 3,2 C 20,9 km/h (4 Bft) 96,30 %
19.05.2016 19:36 9,0 C 94 % 1012,7 hPa 0,0 l/m 13,3 km/h (3 Bft) W-SW 247 0 min 0,000 mm 0,0 UV-I 21 W/m 8,1 C 4,7 C 17,7 km/h (3 Bft) 98,71 %
19.05.2016 19:37 9,0 C 94 % 1012,7 hPa 0,0 l/m 15,1 km/h (3 Bft) W-SW 244 0 min 0,000 mm 0,0 UV-I 21 W/m 8,1 C 3,9 C 22,5 km/h (4 Bft) 97,56 %
19.05.2016 19:38 9,0 C 94 % 1012,7 hPa 0,0 l/m 15,9 km/h (3 Bft) SW 221 0 min 0,000 mm 0,0 UV-I 21 W/m 8,1 C 3,5 C 24,1 km/h (4 Bft) 100,00 %
19.05.2016 19:39 9,0 C 94 % 1012,8 hPa 0,0 l/m 16,1 km/h (3 Bft) W-SW 240 0 min 0,000 mm 0,0 UV-I 21 W/m 8,1 C 3,5 C 24,1 km/h (4 Bft) 98,71 %
19.05.2016 19:40 9,0 C 94 % 1012,8 hPa 0,0 l/m 15,9 km/h (3 Bft) SW 225 0 min 0,000 mm 0,0 UV-I 20 W/m 8,1 C 3,5 C 24,1 km/h (4 Bft) 100,00 %
19.05.2016 19:41 9,0 C 94 % 1012,8 hPa 0,0 l/m 15,7 km/h (3 Bft) W-SW 242 0 min 0,000 mm 0,0 UV-I 19 W/m 8,1 C 3,6 C 20,9 km/h (4 Bft) 100,00 %
19.05.2016 19:42 9,0 C 94 % 1012,8 hPa 0,0 l/m 13,1 km/h (3 Bft) W-SW 248 0 min 0,000 mm 0,0 UV-I 19 W/m 8,1 C 4,8 C 17,7 km/h (3 Bft) 91,30 %
19.05.2016 19:43 9,0 C 94 % 1012,8 hPa 0,0 l/m 14,3 km/h (3 Bft) W 273 0 min 0,000 mm 0,0 UV-I 19 W/m 8,1 C 4,2 C 19,3 km/h (3 Bft) 100,00 %
19.05.2016 19:44 9,0 C 94 % 1012,8 hPa 0,0 l/m 15,5 km/h (3 Bft) SW 229 0 min 0,000 mm 0,0 UV-I 19 W/m 8,1 C 3,7 C 22,5 km/h (4 Bft) 95,65 %
19.05.2016 19:45 9,0 C 94 % 1012,9 hPa 0,0 l/m 15,2 km/h (3 Bft) W-SW 240 0 min 0,000 mm 0,0 UV-I 19 W/m 8,1 C 3,8 C 19,3 km/h (3 Bft) 100,00 %
19.05.2016 19:46 9,0 C 94 % 1012,8 hPa 0,0 l/m 15,7 km/h (3 Bft) SW 222 0 min 0,000 mm 0,0 UV-I 19 W/m 8,1 C 3,6 C 22,5 km/h (4 Bft) 100,00 %
19.05.2016 19:47 9,0 C 94 % 1012,9 hPa 0,2 l/m 18,3 km/h (3 Bft) W-SW 238 0 min 0,000 mm 0,0 UV-I 18 W/m 8,1 C 2,6 C 25,7 km/h (4 Bft) 100,00 %
19.05.2016 19:48 9,0 C 94 % 1012,9 hPa 0,0 l/m 21,3 km/h (4 Bft) SW 234 0 min 0,000 mm 0,0 UV-I 18 W/m 8,1 C 1,6 C 29,0 km/h (5 Bft) 100,00 %
19.05.2016 19:49 9,0 C 94 % 1012,9 hPa 0,0 l/m 18,6 km/h (3 Bft) SW 229 0 min 0,000 mm 0,0 UV-I 18 W/m 8,1 C 2,5 C 25,7 km/h (4 Bft) 100,00 %
19.05.2016 19:50 9,0 C 94 % 1012,9 hPa 0,0 l/m 21,5 km/h (4 Bft) W-SW 256 0 min 0,000 mm 0,0 UV-I 16 W/m 8,1 C 1,5 C 32,2 km/h (5 Bft) 100,00 %
19.05.2016 19:51 9,1 C 94 % 1013,0 hPa 0,0 l/m 16,3 km/h (3 Bft) S-SW 210 0 min 0,000 mm 0,0 UV-I 16 W/m 8,2 C 3,5 C 22,5 km/h (4 Bft) 91,30 %
19.05.2016 19:52 9,1 C 94 % 1013,0 hPa 0,0 l/m 14,0 km/h (3 Bft) SW 225 0 min 0,000 mm 0,0 UV-I 16 W/m 8,2 C 4,5 C 20,9 km/h (4 Bft) 100,00 %
19.05.2016 19:53 9,1 C 94 % 1013,0 hPa 0,0 l/m 14,9 km/h (3 Bft) SW 228 0 min 0,000 mm 0,0 UV-I 16 W/m 8,2 C 4,1 C 20,9 km/h (4 Bft) 100,00 %
19.05.2016 19:54 9,1 C 94 % 1013,0 hPa 0,0 l/m 14,3 km/h (3 Bft) W-SW 238 0 min 0,000 mm 0,0 UV-I 14 W/m 8,2 C 4,4 C 24,1 km/h (4 Bft) 100,00 %
19.05.2016 19:55 9,1 C 94 % 1013,1 hPa 0,0 l/m 11,9 km/h (2 Bft) SW 232 0 min 0,000 mm 0,0 UV-I 14 W/m 8,2 C 5,5 C 17,7 km/h (3 Bft) 100,00 %
19.05.2016 19:56 9,1 C 94 % 1013,1 hPa 0,0 l/m 11,5 km/h (2 Bft) SW 221 0 min 0,000 mm 0,0 UV-I 14 W/m 8,2 C 5,7 C 17,7 km/h (3 Bft) 100,00 %
19.05.2016 19:57 9,1 C 94 % 1013,1 hPa 0,0 l/m 15,4 km/h (3 Bft) W-SW 241 0 min 0,000 mm 0,0 UV-I 14 W/m 8,2 C 3,9 C 20,9 km/h (4 Bft) 95,65 %
19.05.2016 19:58 9,1 C 94 % 1013,1 hPa 0,0 l/m 15,8 km/h (3 Bft) S 188 0 min 0,000 mm 0,0 UV-I 13 W/m 8,2 C 3,7 C 20,9 km/h (4 Bft) 100,00 %
19.05.2016 19:59 9,1 C 94 % 1013,2 hPa 0,0 l/m 14,7 km/h (3 Bft) SO 140 0 min 0,000 mm 0,0 UV-I 12 W/m 8,2 C 4,2 C 19,3 km/h (3 Bft) 100,00 %
19.05.2016 20:00 9,1 C 94 % 1013,2 hPa 0,0 l/m 12,0 km/h (2 Bft) SW 218 0 min 0,000 mm 0,0 UV-I 12 W/m 8,2 C 5,5 C 14,5 km/h (3 Bft) 100,00 %
19.05.2016 20:02 9,1 C 94 % 1013,2 hPa 0,0 l/m 12,8 km/h (3 Bft) SW 236 0 min 0,025 mm 0,0 UV-I 12 W/m 8,2 C 5,1 C 24,1 km/h (4 Bft) 100,00 %
19.05.2016 20:03 9,1 C 94 % 1013,3 hPa 0,0 l/m 16,2 km/h (3 Bft) S-SW 207 0 min 0,000 mm 0,0 UV-I 12 W/m 8,2 C 3,5 C 22,5 km/h (4 Bft) 100,00 %
19.05.2016 20:04 9,1 C 94 % 1013,3 hPa 0,0 l/m 12,5 km/h (3 Bft) S-SW 199 0 min 0,000 mm 0,0 UV-I 12 W/m 8,2 C 5,2 C 16,1 km/h (3 Bft) 100,00 %
19.05.2016 20:05 9,1 C 94 % 1013,3 hPa 0,0 l/m 13,6 km/h (3 Bft) W-SW 243 0 min 0,000 mm 0,0 UV-I 11 W/m 8,2 C 4,7 C 24,1 km/h (4 Bft) 95,65 %
19.05.2016 20:06 9,1 C 94 % 1013,3 hPa 0,0 l/m 17,9 km/h (3 Bft) SW 233 0 min 0,000 mm 0,0 UV-I 11 W/m 8,2 C 2,9 C 22,5 km/h (4 Bft) 100,00 %
19.05.2016 20:07 9,1 C 94 % 1013,3 hPa 0,0 l/m 14,6 km/h (3 Bft) SW 233 0 min 0,000 mm 0,0 UV-I 11 W/m 8,2 C 4,2 C 19,3 km/h (3 Bft) 100,00 %
19.05.2016 20:08 9,1 C 94 % 1013,4 hPa 0,0 l/m 10,7 km/h (2 Bft) SW 234 0 min 0,000 mm 0,0 UV-I 11 W/m 8,2 C 6,2 C 14,5 km/h (3 Bft) 100,00 %
19.05.2016 20:09 9,1 C 94 % 1013,5 hPa 0,0 l/m 9,9 km/h (2 Bft) W-SW 244 0 min 0,000 mm 0,0 UV-I 11 W/m 8,2 C 6,7 C 12,9 km/h (3 Bft) 100,00 %
19.05.2016 20:10 9,1 C 94 % 1013,5 hPa 0,0 l/m 10,5 km/h (2 Bft) W-SW 244 0 min 0,000 mm 0,0 UV-I 11 W/m 8,2 C 6,3 C 14,5 km/h (3 Bft) 100,00 %
19.05.2016 20:11 9,1 C 94 % 1013,5 hPa 0,0 l/m 13,8 km/h (3 Bft) W-SW 253 0 min 0,000 mm 0,0 UV-I 11 W/m 8,2 C 4,6 C 19,3 km/h (3 Bft) 100,00 %
19.05.2016 20:12 9,1 C 94 % 1013,5 hPa 0,0 l/m 18,3 km/h (3 Bft) W-SW 253 0 min 0,000 mm 0,0 UV-I 11 W/m 8,2 C 2,7 C 24,1 km/h (4 Bft) 100,00 %
19.05.2016 20:13 9,1 C 94 % 1013,5 hPa 0,0 l/m 12,1 km/h (2 Bft) W-SW 240 0 min 0,000 mm 0,0 UV-I 11 W/m 8,2 C 5,4 C 14,5 km/h (3 Bft) 100,00 %
19.05.2016 20:14 9,1 C 94 % 1013,6 hPa 0,0 l/m 12,6 km/h (3 Bft) W 268 0 min 0,000 mm 0,0 UV-I 11 W/m 8,2 C 5,2 C 19,3 km/h (3 Bft) 100,00 %
19.05.2016 20:15 9,1 C 94 % 1013,6 hPa 0,0 l/m 11,7 km/h (2 Bft) W-SW 238 0 min 0,000 mm 0,0 UV-I 11 W/m 8,2 C 5,6 C 17,7 km/h (3 Bft) 100,00 %
19.05.2016 20:16 9,1 C 94 % 1013,6 hPa 0,2 l/m 15,2 km/h (3 Bft) W-SW 237 0 min 0,000 mm 0,0 UV-I 11 W/m 8,2 C 4,0 C 19,3 km/h (3 Bft) 100,00 %
19.05.2016 20:17 9,1 C 94 % 1013,6 hPa 0,0 l/m 14,2 km/h (3 Bft) SW 220 0 min 0,000 mm 0,0 UV-I 11 W/m 8,2 C 4,4 C 19,3 km/h (3 Bft) 100,00 %
19.05.2016 20:18 9,1 C 94 % 1013,7 hPa 0,0 l/m 8,2 km/h (2 Bft) SW 228 0 min 0,000 mm 0,0 UV-I 11 W/m 8,2 C 7,8 C 11,3 km/h (2 Bft) 100,00 %
19.05.2016 20:19 9,1 C 94 % 1013,7 hPa 0,0 l/m 14,4 km/h (3 Bft) W-SW 253 0 min 0,000 mm 0,0 UV-I 9 W/m 8,2 C 4,3 C 17,7 km/h (3 Bft) 100,00 %
19.05.2016 20:20 9,1 C 94 % 1013,7 hPa 0,0 l/m 14,6 km/h (3 Bft) S-SW 203 0 min 0,000 mm 0,0 UV-I 9 W/m 8,2 C 4,2 C 17,7 km/h (3 Bft) 100,00 %
19.05.2016 20:21 9,1 C 94 % 1013,7 hPa 0,0 l/m 15,0 km/h (3 Bft) SW 226 0 min 0,000 mm 0,0 UV-I 9 W/m 8,2 C 4,0 C 25,7 km/h (4 Bft) 100,00 %
19.05.2016 20:22 9,1 C 94 % 1013,7 hPa 0,0 l/m 15,0 km/h (3 Bft) SW 225 0 min 0,000 mm 0,0 UV-I 9 W/m 8,2 C 4,0 C 22,5 km/h (4 Bft) 100,00 %
19.05.2016 20:23 9,1 C 94 % 1013,9 hPa 0,0 l/m 17,1 km/h (3 Bft) W-SW 250 0 min 0,000 mm 0,0 UV-I 9 W/m 8,2 C 3,2 C 24,1 km/h (4 Bft) 100,00 %
19.05.2016 20:24 9,1 C 94 % 1013,9 hPa 0,0 l/m 13,8 km/h (3 Bft) W-SW 246 0 min 0,000 mm 0,0 UV-I 7 W/m 8,2 C 4,6 C 19,3 km/h (3 Bft) 100,00 %
19.05.2016 20:25 9,1 C 94 % 1013,9 hPa 0,0 l/m 11,4 km/h (2 Bft) W-SW 238 0 min 0,000 mm 0,0 UV-I 7 W/m 8,2 C 5,8 C 14,5 km/h (3 Bft) 100,00 %
19.05.2016 20:26 9,2 C 94 % 1013,9 hPa 0,0 l/m 12,2 km/h (2 Bft) W-SW 253 0 min 0,000 mm 0,0 UV-I 7 W/m 8,3 C 5,5 C 16,1 km/h (3 Bft) 100,00 %
19.05.2016 20:27 9,2 C 94 % 1013,9 hPa 0,0 l/m 14,8 km/h (3 Bft) W-SW 252 0 min 0,000 mm 0,0 UV-I 7 W/m 8,3 C 4,3 C 19,3 km/h (3 Bft) 100,00 %
19.05.2016 20:28 9,2 C 94 % 1013,9 hPa 0,0 l/m 13,9 km/h (3 Bft) W 275 0 min 0,000 mm 0,0 UV-I 7 W/m 8,3 C 4,7 C 24,1 km/h (4 Bft) 100,00 %
19.05.2016 20:29 9,1 C 94 % 1013,9 hPa 0,0 l/m 12,6 km/h (3 Bft) SW 232 0 min 0,000 mm 0,0 UV-I 7 W/m 8,2 C 5,2 C 19,3 km/h (3 Bft) 100,00 %
19.05.2016 20:30 9,1 C 94 % 1014,0 hPa 0,0 l/m 16,0 km/h (3 Bft) SW 227 0 min 0,000 mm 0,0 UV-I 5 W/m 8,2 C 3,6 C 20,9 km/h (4 Bft) 100,00 %
19.05.2016 20:31 9,1 C 94 % 1014,0 hPa 0,0 l/m 16,3 km/h (3 Bft) SW 234 0 min 0,000 mm 0,0 UV-I 5 W/m 8,2 C 3,5 C 22,5 km/h (4 Bft) 100,00 %
19.05.2016 20:32 9,1 C 94 % 1014,0 hPa 0,0 l/m 13,4 km/h (3 Bft) SW 229 0 min 0,000 mm 0,0 UV-I 5 W/m 8,2 C 4,8 C 17,7 km/h (3 Bft) 100,00 %
19.05.2016 20:33 9,1 C 94 % 1014,0 hPa 0,0 l/m 14,6 km/h (3 Bft) SW 227 0 min 0,000 mm 0,0 UV-I 4 W/m 8,2 C 4,2 C 17,7 km/h (3 Bft) 100,00 %
19.05.2016 20:34 9,1 C 94 % 1014,0 hPa 0,0 l/m 13,7 km/h (3 Bft) W-SW 247 0 min 0,000 mm 0,0 UV-I 0 W/m 8,2 C 4,6 C 19,3 km/h (3 Bft) 100,00 %
19.05.2016 20:35 9,1 C 94 % 1014,0 hPa 0,0 l/m 9,3 km/h (2 Bft) S-SW 211 0 min 0,000 mm 0,0 UV-I 0 W/m 8,2 C 7,0 C 12,9 km/h (3 Bft) 100,00 %
19.05.2016 20:36 9,1 C 94 % 1014,2 hPa 0,0 l/m 8,4 km/h (2 Bft) W-SW 250 0 min 0,000 mm 0,0 UV-I 0 W/m 8,2 C 7,6 C 12,9 km/h (3 Bft) 100,00 %
19.05.2016 20:37 9,1 C 94 % 1014,2 hPa 0,0 l/m 10,3 km/h (2 Bft) W 269 0 min 0,000 mm 0,0 UV-I 0 W/m 8,2 C 6,4 C 20,9 km/h (4 Bft) 100,00 %
19.05.2016 20:38 9,1 C 94 % 1014,2 hPa 0,0 l/m 12,9 km/h (3 Bft) W-SW 249 0 min 0,000 mm 0,0 UV-I 0 W/m 8,2 C 5,0 C 16,1 km/h (3 Bft) 100,00 %
19.05.2016 20:39 9,1 C 94 % 1014,2 hPa 0,0 l/m 12,9 km/h (3 Bft) SW 229 0 min 0,000 mm 0,0 UV-I 0 W/m 8,2 C 5,0 C 17,7 km/h (3 Bft) 100,00 %
19.05.2016 20:40 9,1 C 94 % 1014,2 hPa 0,0 l/m 15,6 km/h (3 Bft) W-SW 249 0 min 0,000 mm 0,0 UV-I 0 W/m 8,2 C 3,8 C 19,3 km/h (3 Bft) 95,83 %
19.05.2016 20:41 9,1 C 94 % 1014,3 hPa 0,0 l/m 14,1 km/h (3 Bft) SW 234 0 min 0,000 mm 0,0 UV-I 0 W/m 8,2 C 4,4 C 17,7 km/h (3 Bft) 100,00 %
19.05.2016 20:42 9,1 C 94 % 1014,3 hPa 0,0 l/m 12,3 km/h (3 Bft) SW 225 0 min 0,000 mm 0,0 UV-I 0 W/m 8,2 C 5,3 C 17,7 km/h (3 Bft) 93,33 %
19.05.2016 20:43 9,1 C 94 % 1014,3 hPa 0,0 l/m 13,1 km/h (3 Bft) W-SW 250 0 min 0,000 mm 0,0 UV-I 0 W/m 8,2 C 4,9 C 19,3 km/h (3 Bft) 100,00 %
19.05.2016 20:44 9,1 C 94 % 1014,3 hPa 0,0 l/m 12,0 km/h (2 Bft) W-SW 248 0 min 0,000 mm 0,0 UV-I 0 W/m 8,2 C 5,5 C 14,5 km/h (3 Bft) 96,30 %
19.05.2016 20:45 9,1 C 94 % 1014,4 hPa 0,2 l/m 14,5 km/h (3 Bft) W-SW 252 0 min 0,000 mm 0,0 UV-I 0 W/m 8,2 C 4,3 C 19,3 km/h (3 Bft) 100,00 %
19.05.2016 20:46 9,1 C 94 % 1014,4 hPa 0,0 l/m 14,4 km/h (3 Bft) W-SW 247 0 min 0,000 mm 0,0 UV-I 0 W/m 8,2 C 4,3 C 19,3 km/h (3 Bft) 100,00 %
19.05.2016 20:47 9,1 C 94 % 1014,4 hPa 0,0 l/m 9,7 km/h (2 Bft) W 260 0 min 0,000 mm 0,0 UV-I 0 W/m 8,2 C 6,8 C 16,1 km/h (3 Bft) 96,15 %
19.05.2016 20:48 9,1 C 94 % 1014,5 hPa 0,0 l/m 10,5 km/h (2 Bft) W-SW 246 0 min 0,000 mm 0,0 UV-I 0 W/m 8,2 C 6,3 C 14,5 km/h (3 Bft) 100,00 %
19.05.2016 20:49 9,1 C 94 % 1014,5 hPa 0,0 l/m 7,5 km/h (2 Bft) W 266 0 min 0,000 mm 0,0 UV-I 0 W/m 8,2 C 8,3 C 11,3 km/h (2 Bft) 100,00 %
19.05.2016 20:50 9,1 C 94 % 1014,6 hPa 0,0 l/m 5,6 km/h (1 Bft) W-SW 245 0 min 0,000 mm 0,0 UV-I 0 W/m 8,2 C 9,1 C 9,7 km/h (2 Bft) 100,00 %
19.05.2016 20:51 9,1 C 94 % 1014,6 hPa 0,0 l/m 12,1 km/h (2 Bft) W-SW 237 0 min 0,000 mm 0,0 UV-I 0 W/m 8,2 C 5,4 C 20,9 km/h (4 Bft) 100,00 %
19.05.2016 20:52 9,1 C 94 % 1014,6 hPa 0,0 l/m 11,1 km/h (2 Bft) S-SW 192 0 min 0,000 mm 0,0 UV-I 0 W/m 8,2 C 6,0 C 14,5 km/h (3 Bft) 100,00 %
19.05.2016 20:53 9,1 C 94 % 1014,6 hPa 0,0 l/m 7,6 km/h (2 Bft) W-SW 248 0 min 0,000 mm 0,0 UV-I 0 W/m 8,2 C 8,2 C 12,9 km/h (3 Bft) 100,00 %
19.05.2016 20:54 9,1 C 94 % 1014,6 hPa 0,0 l/m 8,2 km/h (2 Bft) W 278 0 min 0,000 mm 0,0 UV-I 0 W/m 8,2 C 7,8 C 12,9 km/h (3 Bft) 100,00 %
19.05.2016 20:55 9,1 C 94 % 1014,6 hPa 0,0 l/m 7,1 km/h (2 Bft) W-SW 248 0 min 0,000 mm 0,0 UV-I 0 W/m 8,2 C 8,6 C 9,7 km/h (2 Bft) 100,00 %
19.05.2016 20:56 9,1 C 94 % 1014,6 hPa 0,0 l/m 6,1 km/h (2 Bft) SW 232 0 min 0,000 mm 0,0 UV-I 0 W/m 8,2 C 9,1 C 8,0 km/h (2 Bft) 100,00 %
19.05.2016 20:57 9,1 C 94 % 1014,7 hPa 0,0 l/m 10,7 km/h (2 Bft) W-SW 254 0 min 0,000 mm 0,0 UV-I 0 W/m 8,2 C 6,2 C 14,5 km/h (3 Bft) 100,00 %
19.05.2016 20:58 9,1 C 94 % 1014,7 hPa 0,0 l/m 10,7 km/h (2 Bft) W-SW 252 0 min 0,000 mm 0,0 UV-I 0 W/m 8,2 C 6,2 C 14,5 km/h (3 Bft) 100,00 %
19.05.2016 20:59 9,1 C 94 % 1014,7 hPa 0,0 l/m 7,5 km/h (2 Bft) SW 236 0 min 0,000 mm 0,0 UV-I 0 W/m 8,2 C 8,3 C 11,3 km/h (2 Bft) 96,67 %
19.05.2016 21:00 9,1 C 94 % 1014,7 hPa 0,0 l/m 7,4 km/h (2 Bft) W-SW 248 0 min 0,000 mm 0,0 UV-I 0 W/m 8,2 C 8,3 C 12,9 km/h (3 Bft) 100,00 %
19.05.2016 21:02 9,1 C 94 % 1014,7 hPa 0,0 l/m 10,1 km/h (2 Bft) SW 236 0 min 0,000 mm 0,0 UV-I 0 W/m 8,2 C 6,5 C 19,3 km/h (3 Bft) 100,00 %
19.05.2016 21:03 9,1 C 94 % 1014,7 hPa 0,0 l/m 11,7 km/h (2 Bft) SW 229 0 min 0,000 mm 0,0 UV-I 0 W/m 8,2 C 5,6 C 16,1 km/h (3 Bft) 91,67 %
19.05.2016 21:04 9,1 C 94 % 1014,8 hPa 0,0 l/m 12,4 km/h (3 Bft) W-SW 257 0 min 0,000 mm 0,0 UV-I 0 W/m 8,2 C 5,3 C 16,1 km/h (3 Bft) 100,00 %
19.05.2016 21:05 9,1 C 94 % 1014,8 hPa 0,0 l/m 9,7 km/h (2 Bft) W-NW 300 0 min 0,000 mm 0,0 UV-I 0 W/m 8,2 C 6,8 C 14,5 km/h (3 Bft) 96,55 %
19.05.2016 21:06 9,1 C 94 % 1014,9 hPa 0,0 l/m 10,9 km/h (2 Bft) SW 227 0 min 0,000 mm 0,0 UV-I 0 W/m 8,2 C 6,1 C 16,1 km/h (3 Bft) 96,15 %
19.05.2016 21:07 9,1 C 94 % 1014,8 hPa 0,0 l/m 13,2 km/h (3 Bft) W 259 0 min 0,000 mm 0,0 UV-I 0 W/m 8,2 C 4,9 C 17,7 km/h (3 Bft) 100,00 %
19.05.2016 21:08 9,1 C 94 % 1014,9 hPa 0,0 l/m 11,0 km/h (2 Bft) SW 223 0 min 0,000 mm 0,0 UV-I 0 W/m 8,2 C 6,0 C 16,1 km/h (3 Bft) 96,30 %
19.05.2016 21:09 9,1 C 94 % 1014,9 hPa 0,0 l/m 15,8 km/h (3 Bft) W-SW 251 0 min 0,000 mm 0,0 UV-I 0 W/m 8,2 C 3,7 C 19,3 km/h (3 Bft) 100,00 %
19.05.2016 21:10 9,0 C 94 % 1014,9 hPa 0,0 l/m 14,4 km/h (3 Bft) W-SW 250 0 min 0,000 mm 0,0 UV-I 0 W/m 8,1 C 4,2 C 16,1 km/h (3 Bft) 96,30 %
19.05.2016 21:11 9,0 C 94 % 1015,0 hPa 0,0 l/m 11,1 km/h (2 Bft) W 265 0 min 0,000 mm 0,0 UV-I 0 W/m 8,1 C 5,9 C 16,1 km/h (3 Bft) 100,00 %
19.05.2016 21:12 9,0 C 94 % 1015,0 hPa 0,0 l/m 13,7 km/h (3 Bft) W 278 0 min 0,000 mm 0,0 UV-I 0 W/m 8,1 C 4,5 C 20,9 km/h (4 Bft) 91,67 %
19.05.2016 21:13 9,0 C 94 % 1015,0 hPa 0,0 l/m 10,5 km/h (2 Bft) SW 228 0 min 0,000 mm 0,0 UV-I 0 W/m 8,1 C 6,2 C 14,5 km/h (3 Bft) 95,65 %
19.05.2016 21:14 9,0 C 94 % 1015,0 hPa 0,0 l/m 9,8 km/h (2 Bft) W-SW 237 0 min 0,000 mm 0,0 UV-I 0 W/m 8,1 C 6,6 C 14,5 km/h (3 Bft) 100,00 %
19.05.2016 21:15 9,0 C 94 % 1015,0 hPa 0,0 l/m 9,6 km/h (2 Bft) W-SW 246 0 min 0,000 mm 0,0 UV-I 0 W/m 8,1 C 6,7 C 12,9 km/h (3 Bft) 96,15 %
19.05.2016 21:16 9,0 C 94 % 1015,0 hPa 0,0 l/m 12,6 km/h (3 Bft) SW 227 0 min 0,000 mm 0,0 UV-I 0 W/m 8,1 C 5,1 C 17,7 km/h (3 Bft) 100,00 %
19.05.2016 21:17 9,0 C 94 % 1015,0 hPa 0,0 l/m 12,3 km/h (3 Bft) W-SW 239 0 min 0,000 mm 0,0 UV-I 0 W/m 8,1 C 5,2 C 16,1 km/h (3 Bft) 95,65 %
19.05.2016 21:18 9,0 C 94 % 1015,0 hPa 0,0 l/m 16,7 km/h (3 Bft) W 264 0 min 0,000 mm 0,0 UV-I 0 W/m 8,1 C 3,2 C 22,5 km/h (4 Bft) 100,00 %
19.05.2016 21:19 9,0 C 94 % 1015,0 hPa 0,0 l/m 13,0 km/h (3 Bft) SW 236 0 min 0,000 mm 0,0 UV-I 0 W/m 8,1 C 4,9 C 17,7 km/h (3 Bft) 96,15 %
19.05.2016 21:20 9,0 C 94 % 1015,1 hPa 0,0 l/m 12,5 km/h (3 Bft) W-SW 258 0 min 0,000 mm 0,0 UV-I 0 W/m 8,1 C 5,1 C 16,1 km/h (3 Bft) 95,83 %
19.05.2016 21:21 9,0 C 94 % 1015,1 hPa 0,0 l/m 14,9 km/h (3 Bft) SW 236 0 min 0,000 mm 0,0 UV-I 0 W/m 8,1 C 4,0 C 20,9 km/h (4 Bft) 100,00 %
19.05.2016 21:22 9,0 C 94 % 1015,1 hPa 0,0 l/m 15,1 km/h (3 Bft) W-SW 242 0 min 0,000 mm 0,0 UV-I 0 W/m 8,1 C 3,9 C 22,5 km/h (4 Bft) 95,83 %
19.05.2016 21:23 9,0 C 94 % 1015,1 hPa 0,0 l/m 14,7 km/h (3 Bft) W 266 0 min 0,000 mm 0,0 UV-I 0 W/m 8,1 C 4,1 C 19,3 km/h (3 Bft) 100,00 %
19.05.2016 21:24 9,0 C 94 % 1015,1 hPa 0,0 l/m 14,3 km/h (3 Bft) SW 225 0 min 0,000 mm 0,0 UV-I 0 W/m 8,1 C 4,2 C 19,3 km/h (3 Bft) 95,83 %
19.05.2016 21:25 9,0 C 94 % 1015,1 hPa 0,0 l/m 13,8 km/h (3 Bft) SW 217 0 min 0,000 mm 0,0 UV-I 0 W/m 8,1 C 4,5 C 19,3 km/h (3 Bft) 100,00 %
19.05.2016 21:26 8,9 C 94 % 1015,1 hPa 0,0 l/m 13,2 km/h (3 Bft) W-SW 248 0 min 0,000 mm 0,0 UV-I 0 W/m 8,0 C 4,6 C 20,9 km/h (4 Bft) 95,83 %
19.05.2016 21:27 8,9 C 94 % 1015,2 hPa 0,0 l/m 11,9 km/h (2 Bft) W 261 0 min 0,000 mm 0,0 UV-I 0 W/m 8,0 C 5,3 C 16,1 km/h (3 Bft) 100,00 %
19.05.2016 21:28 8,9 C 93 % 1015,1 hPa 0,0 l/m 14,9 km/h (3 Bft) W-SW 256 0 min 0,000 mm 0,0 UV-I 0 W/m 7,8 C 3,8 C 19,3 km/h (3 Bft) 95,83 %
19.05.2016 21:29 8,9 C 93 % 1015,2 hPa 0,0 l/m 16,0 km/h (3 Bft) W-SW 246 0 min 0,000 mm 0,0 UV-I 0 W/m 7,8 C 3,4 C 19,3 km/h (3 Bft) 100,00 %
19.05.2016 21:30 8,9 C 93 % 1015,2 hPa 0,0 l/m 12,2 km/h (2 Bft) SW 227 0 min 0,000 mm 0,0 UV-I 0 W/m 7,8 C 5,1 C 16,1 km/h (3 Bft) 92,31 %
19.05.2016 21:31 8,9 C 94 % 1015,2 hPa 0,0 l/m 15,0 km/h (3 Bft) W 259 0 min 0,000 mm 0,0 UV-I 0 W/m 8,0 C 3,8 C 17,7 km/h (3 Bft) 96,30 %
19.05.2016 21:32 8,9 C 93 % 1015,2 hPa 0,0 l/m 12,0 km/h (2 Bft) W-SW 245 0 min 0,000 mm 0,0 UV-I 0 W/m 7,8 C 5,2 C 17,7 km/h (3 Bft) 100,00 %
19.05.2016 21:33 8,9 C 93 % 1015,2 hPa 0,0 l/m 13,8 km/h (3 Bft) SW 233 0 min 0,000 mm 0,0 UV-I 0 W/m 7,8 C 4,3 C 19,3 km/h (3 Bft) 83,33 %
19.05.2016 21:34 8,9 C 93 % 1015,2 hPa 0,0 l/m 9,6 km/h (2 Bft) W-SW 238 0 min 0,000 mm 0,0 UV-I 0 W/m 7,8 C 6,6 C 12,9 km/h (3 Bft) 96,15 %
19.05.2016 21:35 8,9 C 93 % 1015,2 hPa 0,0 l/m 12,4 km/h (3 Bft) W-SW 253 0 min 0,000 mm 0,0 UV-I 0 W/m 7,8 C 5,0 C 16,1 km/h (3 Bft) 96,67 %
19.05.2016 21:36 8,9 C 93 % 1015,3 hPa 0,0 l/m 12,7 km/h (3 Bft) W-SW 249 0 min 0,000 mm 0,0 UV-I 0 W/m 7,8 C 4,9 C 16,1 km/h (3 Bft) 100,00 %
19.05.2016 21:37 8,9 C 93 % 1015,3 hPa 0,0 l/m 13,0 km/h (3 Bft) W-SW 245 0 min 0,000 mm 0,0 UV-I 0 W/m 7,8 C 4,7 C 19,3 km/h (3 Bft) 95,83 %
19.05.2016 21:38 8,9 C 93 % 1015,3 hPa 0,0 l/m 13,0 km/h (3 Bft) SW 227 0 min 0,000 mm 0,0 UV-I 0 W/m 7,8 C 4,7 C 20,9 km/h (4 Bft) 91,30 %
19.05.2016 21:39 8,9 C 93 % 1015,3 hPa 0,0 l/m 10,0 km/h (2 Bft) W 277 0 min 0,000 mm 0,0 UV-I 0 W/m 7,8 C 6,4 C 16,1 km/h (3 Bft) 95,83 %
19.05.2016 21:40 8,9 C 93 % 1015,3 hPa 0,0 l/m 10,6 km/h (2 Bft) W-SW 254 0 min 0,000 mm 0,0 UV-I 0 W/m 7,8 C 6,0 C 16,1 km/h (3 Bft) 100,00 %
19.05.2016 21:41 8,9 C 94 % 1015,3 hPa 0,0 l/m 13,7 km/h (3 Bft) W-SW 255 0 min 0,000 mm 0,0 UV-I 0 W/m 8,0 C 4,4 C 19,3 km/h (3 Bft) 100,00 %
19.05.2016 21:44 8,9 C 93 % 1015,3 hPa 0,0 l/m 10,2 km/h (2 Bft) SW 227 0 min 0,000 mm 0,0 UV-I 0 W/m 7,8 C 6,3 C 14,5 km/h (3 Bft) 100,00 %
19.05.2016 21:45 8,9 C 93 % 1015,3 hPa 0,0 l/m 12,0 km/h (2 Bft) W-NW 290 0 min 0,000 mm 0,0 UV-I 0 W/m 7,8 C 5,2 C 19,3 km/h (3 Bft) 100,00 %
19.05.2016 21:46 8,9 C 94 % 1015,3 hPa 0,0 l/m 14,9 km/h (3 Bft) W-SW 248 0 min 0,000 mm 0,0 UV-I 0 W/m 8,0 C 3,8 C 22,5 km/h (4 Bft) 100,00 %
19.05.2016 21:47 8,9 C 94 % 1015,3 hPa 0,0 l/m 9,9 km/h (2 Bft) W-SW 238 0 min 0,000 mm 0,0 UV-I 0 W/m 8,0 C 6,4 C 14,5 km/h (3 Bft) 100,00 %
19.05.2016 21:48 8,9 C 94 % 1015,3 hPa 0,0 l/m 12,0 km/h (2 Bft) SW 233 0 min 0,000 mm 0,0 UV-I 0 W/m 8,0 C 5,2 C 17,7 km/h (3 Bft) 94,12 %
19.05.2016 21:49 8,9 C 94 % 1015,4 hPa 0,0 l/m 10,1 km/h (2 Bft) SW 227 0 min 0,000 mm 0,0 UV-I 0 W/m 8,0 C 6,3 C 14,5 km/h (3 Bft) 100,00 %
19.05.2016 21:50 8,9 C 94 % 1015,4 hPa 0,0 l/m 9,2 km/h (2 Bft) W-SW 240 0 min 0,000 mm 0,0 UV-I 0 W/m 8,0 C 6,9 C 14,5 km/h (3 Bft) 100,00 %
19.05.2016 21:51 8,9 C 94 % 1015,3 hPa 0,0 l/m 13,0 km/h (3 Bft) SW 236 0 min 0,000 mm 0,0 UV-I 0 W/m 8,0 C 4,7 C 17,7 km/h (3 Bft) 100,00 %
19.05.2016 21:52 8,9 C 94 % 1015,3 hPa 0,0 l/m 12,4 km/h (3 Bft) W-SW 247 0 min 0,000 mm 0,0 UV-I 0 W/m 8,0 C 5,0 C 19,3 km/h (3 Bft) 100,00 %
19.05.2016 21:53 8,9 C 94 % 1015,4 hPa 0,0 l/m 14,7 km/h (3 Bft) W-SW 248 0 min 0,000 mm 0,0 UV-I 0 W/m 8,0 C 3,9 C 19,3 km/h (3 Bft) 100,00 %
19.05.2016 21:54 8,9 C 94 % 1015,3 hPa 0,0 l/m 14,0 km/h (3 Bft) SW 226 0 min 0,000 mm 0,0 UV-I 0 W/m 8,0 C 4,3 C 19,3 km/h (3 Bft) 100,00 %
19.05.2016 21:55 8,8 C 94 % 1015,3 hPa 0,0 l/m 15,2 km/h (3 Bft) SW 225 0 min 0,000 mm 0,0 UV-I 0 W/m 7,9 C 3,6 C 22,5 km/h (4 Bft) 100,00 %
19.05.2016 21:56 8,8 C 94 % 1015,3 hPa 0,0 l/m 18,7 km/h (3 Bft) S-SW 205 0 min 0,000 mm 0,0 UV-I 0 W/m 7,9 C 2,2 C 22,5 km/h (4 Bft) 100,00 %
19.05.2016 21:57 8,8 C 93 % 1015,3 hPa 0,0 l/m 16,9 km/h (3 Bft) S-SW 209 0 min 0,000 mm 0,0 UV-I 0 W/m 7,7 C 2,9 C 22,5 km/h (4 Bft) 100,00 %
19.05.2016 21:58 8,8 C 93 % 1015,3 hPa 0,0 l/m 16,8 km/h (3 Bft) SW 233 0 min 0,000 mm 0,0 UV-I 0 W/m 7,7 C 2,9 C 25,7 km/h (4 Bft) 100,00 %
19.05.2016 21:59 8,8 C 93 % 1015,2 hPa 0,0 l/m 17,8 km/h (3 Bft) SW 220 0 min 0,000 mm 0,0 UV-I 0 W/m 7,7 C 2,5 C 25,7 km/h (4 Bft) 100,00 %
19.05.2016 22:00 8,8 C 93 % 1015,3 hPa 0,0 l/m 14,3 km/h (3 Bft) W-SW 254 0 min 0,000 mm 0,0 UV-I 0 W/m 7,7 C 4,0 C 19,3 km/h (3 Bft) 100,00 %
19.05.2016 22:01 8,8 C 93 % 1015,2 hPa 0,0 l/m 18,3 km/h (3 Bft) SW 232 0 min 0,000 mm 0,0 UV-I 0 W/m 7,7 C 2,3 C 24,1 km/h (4 Bft) 100,00 %
19.05.2016 22:03 8,8 C 93 % 1015,2 hPa 0,0 l/m 16,4 km/h (3 Bft) SW 220 0 min 0,000 mm 0,0 UV-I 0 W/m 7,7 C 3,1 C 22,5 km/h (4 Bft) 100,00 %
19.05.2016 22:04 8,8 C 93 % 1015,2 hPa 0,0 l/m 14,2 km/h (3 Bft) SW 225 0 min 0,000 mm 0,0 UV-I 0 W/m 7,7 C 4,0 C 22,5 km/h (4 Bft) 96,30 %
19.05.2016 22:05 8,8 C 93 % 1015,2 hPa 0,0 l/m 14,1 km/h (3 Bft) W-SW 257 0 min 0,000 mm 0,0 UV-I 0 W/m 7,7 C 4,1 C 20,9 km/h (4 Bft) 100,00 %
19.05.2016 22:06 8,8 C 93 % 1015,3 hPa 0,0 l/m 14,1 km/h (3 Bft) W 265 0 min 0,000 mm 0,0 UV-I 0 W/m 7,7 C 4,1 C 20,9 km/h (4 Bft) 100,00 %
19.05.2016 22:07 8,8 C 93 % 1015,3 hPa 0,0 l/m 14,2 km/h (3 Bft) W-SW 246 0 min 0,000 mm 0,0 UV-I 0 W/m 7,7 C 4,0 C 20,9 km/h (4 Bft) 100,00 %
19.05.2016 22:08 8,8 C 93 % 1015,3 hPa 0,0 l/m 13,0 km/h (3 Bft) S-SW 211 0 min 0,000 mm 0,0 UV-I 0 W/m 7,7 C 4,6 C 22,5 km/h (4 Bft) 100,00 %
19.05.2016 22:09 8,8 C 93 % 1015,3 hPa 0,0 l/m 13,2 km/h (3 Bft) W 263 0 min 0,000 mm 0,0 UV-I 0 W/m 7,7 C 4,5 C 17,7 km/h (3 Bft) 100,00 %
19.05.2016 22:10 8,8 C 93 % 1015,3 hPa 0,0 l/m 10,1 km/h (2 Bft) S-SW 205 0 min 0,000 mm 0,0 UV-I 0 W/m 7,7 C 6,2 C 16,1 km/h (3 Bft) 100,00 %
19.05.2016 22:11 8,8 C 93 % 1015,3 hPa 0,0 l/m 12,2 km/h (2 Bft) SW 235 0 min 0,000 mm 0,0 UV-I 0 W/m 7,7 C 5,0 C 17,7 km/h (3 Bft) 100,00 %
19.05.2016 22:12 8,8 C 93 % 1015,3 hPa 0,0 l/m 17,6 km/h (3 Bft) W-SW 244 0 min 0,000 mm 0,0 UV-I 0 W/m 7,7 C 2,6 C 22,5 km/h (4 Bft) 100,00 %
19.05.2016 22:13 8,8 C 93 % 1015,4 hPa 0,0 l/m 12,5 km/h (3 Bft) SW 219 0 min 0,000 mm 0,0 UV-I 0 W/m 7,7 C 4,9 C 19,3 km/h (3 Bft) 100,00 %
19.05.2016 22:14 8,8 C 93 % 1015,4 hPa 0,0 l/m 16,1 km/h (3 Bft) W 259 0 min 0,000 mm 0,0 UV-I 0 W/m 7,7 C 3,2 C 22,5 km/h (4 Bft) 100,00 %
19.05.2016 22:15 8,8 C 93 % 1015,3 hPa 0,0 l/m 16,5 km/h (3 Bft) W-SW 240 0 min 0,000 mm 0,0 UV-I 0 W/m 7,7 C 3,0 C 22,5 km/h (4 Bft) 100,00 %
19.05.2016 22:16 8,8 C 93 % 1015,4 hPa 0,0 l/m 14,1 km/h (3 Bft) W-SW 242 0 min 0,000 mm 0,0 UV-I 0 W/m 7,7 C 4,1 C 17,7 km/h (3 Bft) 100,00 %
19.05.2016 22:17 8,8 C 93 % 1015,4 hPa 0,0 l/m 15,6 km/h (3 Bft) SW 231 0 min 0,000 mm 0,0 UV-I 0 W/m 7,7 C 3,4 C 20,9 km/h (4 Bft) 93,33 %
19.05.2016 22:18 8,8 C 93 % 1015,4 hPa 0,0 l/m 15,9 km/h (3 Bft) SW 234 0 min 0,000 mm 0,0 UV-I 0 W/m 7,7 C 3,3 C 24,1 km/h (4 Bft) 100,00 %
19.05.2016 22:19 8,8 C 93 % 1015,4 hPa 0,0 l/m 14,2 km/h (3 Bft) SW 228 0 min 0,000 mm 0,0 UV-I 0 W/m 7,7 C 4,0 C 24,1 km/h (4 Bft) 100,00 %
19.05.2016 22:20 8,8 C 93 % 1015,4 hPa 0,0 l/m 20,9 km/h (4 Bft) SW 232 0 min 0,000 mm 0,0 UV-I 0 W/m 7,7 C 1,4 C 32,2 km/h (5 Bft) 100,00 %
19.05.2016 22:21 8,8 C 93 % 1015,4 hPa 0,0 l/m 17,1 km/h (3 Bft) SW 225 0 min 0,000 mm 0,0 UV-I 0 W/m 7,7 C 2,8 C 22,5 km/h (4 Bft) 100,00 %
19.05.2016 22:22 8,8 C 93 % 1015,5 hPa 0,0 l/m 13,6 km/h (3 Bft) SW 222 0 min 0,000 mm 0,0 UV-I 0 W/m 7,7 C 4,3 C 22,5 km/h (4 Bft) 91,30 %
19.05.2016 22:23 8,8 C 93 % 1015,5 hPa 0,0 l/m 19,0 km/h (3 Bft) W-SW 242 0 min 0,000 mm 0,0 UV-I 0 W/m 7,7 C 2,1 C 25,7 km/h (4 Bft) 100,00 %
19.05.2016 22:24 8,8 C 93 % 1015,5 hPa 0,0 l/m 15,3 km/h (3 Bft) W-SW 246 0 min 0,000 mm 0,0 UV-I 0 W/m 7,7 C 3,5 C 22,5 km/h (4 Bft) 100,00 %
19.05.2016 22:25 8,8 C 93 % 1015,5 hPa 0,0 l/m 19,8 km/h (3 Bft) SW 225 0 min 0,000 mm 0,0 UV-I 0 W/m 7,7 C 1,8 C 25,7 km/h (4 Bft) 100,00 %
19.05.2016 22:26 8,8 C 93 % 1015,5 hPa 0,0 l/m 17,9 km/h (3 Bft) SW 227 0 min 0,000 mm 0,0 UV-I 0 W/m 7,7 C 2,5 C 25,7 km/h (4 Bft) 100,00 %
19.05.2016 22:27 8,8 C 93 % 1015,5 hPa 0,0 l/m 20,0 km/h (4 Bft) W-SW 241 0 min 0,000 mm 0,0 UV-I 0 W/m 7,7 C 1,7 C 25,7 km/h (4 Bft) 92,59 %
19.05.2016 22:28 8,8 C 93 % 1015,5 hPa 0,0 l/m 19,1 km/h (3 Bft) SW 215 0 min 0,000 mm 0,0 UV-I 0 W/m 7,7 C 2,1 C 25,7 km/h (4 Bft) 94,12 %
19.05.2016 22:29 8,8 C 93 % 1015,5 hPa 0,0 l/m 19,7 km/h (3 Bft) S-SW 211 0 min 0,000 mm 0,0 UV-I 0 W/m 7,7 C 1,8 C 25,7 km/h (4 Bft) 100,00 %
19.05.2016 22:30 8,8 C 93 % 1015,5 hPa 0,0 l/m 14,5 km/h (3 Bft) SW 221 0 min 0,000 mm 0,0 UV-I 0 W/m 7,7 C 3,9 C 22,5 km/h (4 Bft) 96,15 %
19.05.2016 22:31 8,8 C 93 % 1015,5 hPa 0,0 l/m 16,2 km/h (3 Bft) S-SW 192 0 min 0,000 mm 0,0 UV-I 0 W/m 7,7 C 3,2 C 22,5 km/h (4 Bft) 100,00 %
19.05.2016 22:32 8,8 C 93 % 1015,5 hPa 0,0 l/m 18,7 km/h (3 Bft) SW 229 0 min 0,000 mm 0,0 UV-I 0 W/m 7,7 C 2,2 C 24,1 km/h (4 Bft) 96,15 %
19.05.2016 22:33 8,8 C 93 % 1015,5 hPa 0,0 l/m 17,7 km/h (3 Bft) W-SW 238 0 min 0,000 mm 0,0 UV-I 0 W/m 7,7 C 2,6 C 24,1 km/h (4 Bft) 100,00 %
19.05.2016 22:34 8,8 C 93 % 1015,5 hPa 0,0 l/m 20,7 km/h (4 Bft) W-SW 243 0 min 0,000 mm 0,0 UV-I 0 W/m 7,7 C 1,5 C 27,4 km/h (4 Bft) 100,00 %
19.05.2016 22:35 8,8 C 93 % 1015,5 hPa 0,0 l/m 17,8 km/h (3 Bft) SW 223 0 min 0,000 mm 0,0 UV-I 0 W/m 7,7 C 2,5 C 25,7 km/h (4 Bft) 100,00 %
19.05.2016 22:36 8,8 C 93 % 1015,4 hPa 0,0 l/m 23,0 km/h (4 Bft) W-SW 248 0 min 0,000 mm 0,0 UV-I 0 W/m 7,7 C 0,8 C 32,2 km/h (5 Bft) 100,00 %
19.05.2016 22:37 8,8 C 92 % 1015,5 hPa 0,0 l/m 19,0 km/h (3 Bft) SW 232 0 min 0,000 mm 0,0 UV-I 0 W/m 7,6 C 2,1 C 30,6 km/h (5 Bft) 100,00 %
19.05.2016 22:38 8,8 C 92 % 1015,5 hPa 0,0 l/m 18,3 km/h (3 Bft) SW 227 0 min 0,000 mm 0,0 UV-I 0 W/m 7,6 C 2,3 C 29,0 km/h (5 Bft) 96,15 %
19.05.2016 22:39 8,8 C 92 % 1015,5 hPa 0,0 l/m 19,7 km/h (3 Bft) W-SW 242 0 min 0,000 mm 0,0 UV-I 0 W/m 7,6 C 1,8 C 25,7 km/h (4 Bft) 93,33 %
19.05.2016 22:40 8,8 C 92 % 1015,4 hPa 0,0 l/m 14,6 km/h (3 Bft) SW 229 0 min 0,000 mm 0,0 UV-I 0 W/m 7,6 C 3,9 C 24,1 km/h (4 Bft) 100,00 %
19.05.2016 22:41 8,8 C 92 % 1015,5 hPa 0,0 l/m 13,2 km/h (3 Bft) W-SW 240 0 min 0,000 mm 0,0 UV-I 0 W/m 7,6 C 4,5 C 17,7 km/h (3 Bft) 100,00 %
19.05.2016 22:42 8,8 C 92 % 1015,5 hPa 0,0 l/m 16,2 km/h (3 Bft) SW 230 0 min 0,000 mm 0,0 UV-I 0 W/m 7,6 C 3,2 C 25,7 km/h (4 Bft) 100,00 %
19.05.2016 22:43 8,8 C 92 % 1015,5 hPa 0,0 l/m 17,3 km/h (3 Bft) SW 225 0 min 0,000 mm 0,0 UV-I 0 W/m 7,6 C 2,7 C 24,1 km/h (4 Bft) 100,00 %
19.05.2016 22:44 8,8 C 92 % 1015,5 hPa 0,0 l/m 17,0 km/h (3 Bft) W-SW 237 0 min 0,000 mm 0,0 UV-I 0 W/m 7,6 C 2,8 C 22,5 km/h (4 Bft) 100,00 %
19.05.2016 22:45 8,8 C 92 % 1015,5 hPa 0,0 l/m 13,2 km/h (3 Bft) W-SW 256 0 min 0,000 mm 0,0 UV-I 0 W/m 7,6 C 4,5 C 19,3 km/h (3 Bft) 96,15 %
19.05.2016 22:46 8,8 C 92 % 1015,5 hPa 0,0 l/m 15,6 km/h (3 Bft) SW 229 0 min 0,000 mm 0,0 UV-I 0 W/m 7,6 C 3,4 C 22,5 km/h (4 Bft) 100,00 %
19.05.2016 22:47 8,8 C 92 % 1015,5 hPa 0,0 l/m 18,9 km/h (3 Bft) SW 215 0 min 0,000 mm 0,0 UV-I 0 W/m 7,6 C 2,1 C 27,4 km/h (4 Bft) 100,00 %
19.05.2016 22:48 8,8 C 92 % 1015,5 hPa 0,0 l/m 19,0 km/h (3 Bft) S 180 0 min 0,000 mm 0,0 UV-I 0 W/m 7,6 C 2,1 C 25,7 km/h (4 Bft) 100,00 %
19.05.2016 22:49 8,8 C 92 % 1015,5 hPa 0,0 l/m 16,0 km/h (3 Bft) S-SW 213 0 min 0,000 mm 0,0 UV-I 0 W/m 7,6 C 3,3 C 22,5 km/h (4 Bft) 100,00 %
19.05.2016 22:50 8,8 C 92 % 1015,5 hPa 0,0 l/m 16,5 km/h (3 Bft) SW 222 0 min 0,000 mm 0,0 UV-I 0 W/m 7,6 C 3,0 C 22,5 km/h (4 Bft) 100,00 %
19.05.2016 22:51 8,8 C 92 % 1015,5 hPa 0,0 l/m 23,0 km/h (4 Bft) W 264 0 min 0,000 mm 0,0 UV-I 0 W/m 7,6 C 0,8 C 29,0 km/h (5 Bft) 100,00 %
19.05.2016 22:52 8,8 C 92 % 1015,5 hPa 0,0 l/m 19,1 km/h (3 Bft) W-SW 255 0 min 0,000 mm 0,0 UV-I 0 W/m 7,6 C 2,1 C 25,7 km/h (4 Bft) 100,00 %
19.05.2016 22:53 8,8 C 92 % 1015,5 hPa 0,0 l/m 15,9 km/h (3 Bft) SW 223 0 min 0,000 mm 0,0 UV-I 0 W/m 7,6 C 3,3 C 20,9 km/h (4 Bft) 100,00 %
19.05.2016 22:54 8,8 C 92 % 1015,5 hPa 0,0 l/m 14,9 km/h (3 Bft) SW 234 0 min 0,000 mm 0,0 UV-I 0 W/m 7,6 C 3,7 C 19,3 km/h (3 Bft) 100,00 %
19.05.2016 22:55 8,8 C 92 % 1015,6 hPa 0,0 l/m 13,2 km/h (3 Bft) SW 219 0 min 0,000 mm 0,0 UV-I 0 W/m 7,6 C 4,5 C 17,7 km/h (3 Bft) 98,73 %
19.05.2016 22:56 8,8 C 92 % 1015,5 hPa 0,0 l/m 17,7 km/h (3 Bft) SW 234 0 min 0,000 mm 0,0 UV-I 0 W/m 7,6 C 2,6 C 24,1 km/h (4 Bft) 100,00 %
19.05.2016 22:57 8,8 C 92 % 1015,5 hPa 0,0 l/m 17,0 km/h (3 Bft) SW 230 0 min 0,000 mm 0,0 UV-I 0 W/m 7,6 C 2,8 C 24,1 km/h (4 Bft) 100,00 %
19.05.2016 22:58 8,8 C 92 % 1015,5 hPa 0,0 l/m 19,0 km/h (3 Bft) SW 215 0 min 0,000 mm 0,0 UV-I 0 W/m 7,6 C 2,1 C 27,4 km/h (4 Bft) 100,00 %
19.05.2016 22:59 8,8 C 92 % 1015,5 hPa 0,0 l/m 16,2 km/h (3 Bft) W-SW 241 0 min 0,000 mm 0,0 UV-I 0 W/m 7,6 C 3,2 C 20,9 km/h (4 Bft) 100,00 %
19.05.2016 23:00 8,8 C 92 % 1015,5 hPa 0,0 l/m 17,7 km/h (3 Bft) W-SW 248 0 min 0,000 mm 0,0 UV-I 0 W/m 7,6 C 2,6 C 22,5 km/h (4 Bft) 100,00 %
19.05.2016 23:02 8,8 C 92 % 1015,5 hPa 0,0 l/m 15,0 km/h (3 Bft) W-SW 244 0 min 0,026 mm 0,0 UV-I 0 W/m 7,6 C 3,7 C 22,5 km/h (4 Bft) 100,00 %
19.05.2016 23:03 8,8 C 92 % 1015,5 hPa 0,0 l/m 18,5 km/h (3 Bft) SW 227 0 min 0,000 mm 0,0 UV-I 0 W/m 7,6 C 2,3 C 27,4 km/h (4 Bft) 100,00 %
19.05.2016 23:04 8,8 C 92 % 1015,5 hPa 0,0 l/m 14,6 km/h (3 Bft) W-SW 237 0 min 0,000 mm 0,0 UV-I 0 W/m 7,6 C 3,9 C 17,7 km/h (3 Bft) 100,00 %
19.05.2016 23:05 8,8 C 92 % 1015,5 hPa 0,0 l/m 16,6 km/h (3 Bft) W-SW 255 0 min 0,000 mm 0,0 UV-I 0 W/m 7,6 C 3,0 C 25,7 km/h (4 Bft) 100,00 %
19.05.2016 23:06 8,8 C 92 % 1015,4 hPa 0,0 l/m 14,5 km/h (3 Bft) SW 234 0 min 0,000 mm 0,0 UV-I 0 W/m 7,6 C 3,9 C 20,9 km/h (4 Bft) 100,00 %
19.05.2016 23:07 8,8 C 92 % 1015,5 hPa 0,0 l/m 17,4 km/h (3 Bft) W-SW 251 0 min 0,000 mm 0,0 UV-I 0 W/m 7,6 C 2,7 C 22,5 km/h (4 Bft) 100,00 %
19.05.2016 23:08 8,8 C 92 % 1015,5 hPa 0,0 l/m 17,5 km/h (3 Bft) SW 228 0 min 0,000 mm 0,0 UV-I 0 W/m 7,6 C 2,6 C 24,1 km/h (4 Bft) 96,15 %
19.05.2016 23:09 8,8 C 92 % 1015,5 hPa 0,0 l/m 13,6 km/h (3 Bft) W-SW 246 0 min 0,000 mm 0,0 UV-I 0 W/m 7,6 C 4,3 C 17,7 km/h (3 Bft) 100,00 %
19.05.2016 23:10 8,8 C 92 % 1015,5 hPa 0,0 l/m 15,3 km/h (3 Bft) W 259 0 min 0,000 mm 0,0 UV-I 0 W/m 7,6 C 3,5 C 25,7 km/h (4 Bft) 95,65 %
19.05.2016 23:11 8,8 C 92 % 1015,6 hPa 0,0 l/m 13,4 km/h (3 Bft) W-SW 254 0 min 0,000 mm 0,0 UV-I 0 W/m 7,6 C 4,4 C 17,7 km/h (3 Bft) 100,00 %
19.05.2016 23:12 8,8 C 92 % 1015,6 hPa 0,0 l/m 14,4 km/h (3 Bft) SW 222 0 min 0,000 mm 0,0 UV-I 0 W/m 7,6 C 4,0 C 25,7 km/h (4 Bft) 97,56 %
19.05.2016 23:13 8,8 C 92 % 1015,7 hPa 0,0 l/m 10,5 km/h (2 Bft) W-SW 243 0 min 0,000 mm 0,0 UV-I 0 W/m 7,6 C 6,0 C 20,9 km/h (4 Bft) 91,67 %
19.05.2016 23:14 8,8 C 92 % 1015,7 hPa 0,0 l/m 13,1 km/h (3 Bft) W 259 0 min 0,000 mm 0,0 UV-I 0 W/m 7,6 C 4,6 C 19,3 km/h (3 Bft) 100,00 %
19.05.2016 23:15 8,8 C 92 % 1015,7 hPa 0,0 l/m 10,4 km/h (2 Bft) S-SW 211 0 min 0,000 mm 0,0 UV-I 0 W/m 7,6 C 6,0 C 16,1 km/h (3 Bft) 95,83 %
19.05.2016 23:16 8,8 C 92 % 1015,7 hPa 0,0 l/m 13,8 km/h (3 Bft) W-SW 250 0 min 0,000 mm 0,0 UV-I 0 W/m 7,6 C 4,2 C 20,9 km/h (4 Bft) 100,00 %
19.05.2016 23:17 8,8 C 92 % 1015,7 hPa 0,0 l/m 16,4 km/h (3 Bft) W-SW 240 0 min 0,000 mm 0,0 UV-I 0 W/m 7,6 C 3,1 C 24,1 km/h (4 Bft) 91,67 %
19.05.2016 23:18 8,8 C 92 % 1015,7 hPa 0,0 l/m 19,3 km/h (3 Bft) SW 227 0 min 0,000 mm 0,0 UV-I 0 W/m 7,6 C 2,0 C 27,4 km/h (4 Bft) 100,00 %
19.05.2016 23:19 8,9 C 92 % 1015,7 hPa 0,0 l/m 16,3 km/h (3 Bft) SW 225 0 min 0,000 mm 0,0 UV-I 0 W/m 7,7 C 3,2 C 24,1 km/h (4 Bft) 96,15 %
19.05.2016 23:20 8,8 C 91 % 1015,6 hPa 0,0 l/m 17,6 km/h (3 Bft) W-SW 242 0 min 0,000 mm 0,0 UV-I 0 W/m 7,4 C 2,6 C 24,1 km/h (4 Bft) 100,00 %
19.05.2016 23:21 8,9 C 91 % 1015,7 hPa 0,0 l/m 17,8 km/h (3 Bft) SW 231 0 min 0,000 mm 0,0 UV-I 0 W/m 7,5 C 2,7 C 27,4 km/h (4 Bft) 91,67 %
19.05.2016 23:22 8,9 C 91 % 1015,7 hPa 0,0 l/m 13,5 km/h (3 Bft) W 259 0 min 0,000 mm 0,0 UV-I 0 W/m 7,5 C 4,5 C 17,7 km/h (3 Bft) 100,00 %
19.05.2016 23:23 8,9 C 91 % 1015,7 hPa 0,0 l/m 13,6 km/h (3 Bft) W 259 0 min 0,000 mm 0,0 UV-I 0 W/m 7,5 C 4,4 C 20,9 km/h (4 Bft) 95,65 %
19.05.2016 23:24 8,8 C 92 % 1015,8 hPa 0,0 l/m 12,2 km/h (2 Bft) W-SW 249 0 min 0,000 mm 0,0 UV-I 0 W/m 7,6 C 5,0 C 14,5 km/h (3 Bft) 96,97 %
19.05.2016 23:25 8,9 C 92 % 1015,8 hPa 0,0 l/m 18,5 km/h (3 Bft) SW 225 0 min 0,000 mm 0,0 UV-I 0 W/m 7,7 C 2,4 C 27,4 km/h (4 Bft) 100,00 %
19.05.2016 23:26 8,9 C 91 % 1015,8 hPa 0,0 l/m 19,2 km/h (3 Bft) SW 234 0 min 0,000 mm 0,0 UV-I 0 W/m 7,5 C 2,1 C 25,7 km/h (4 Bft) 95,83 %
19.05.2016 23:27 8,9 C 91 % 1015,8 hPa 0,0 l/m 15,2 km/h (3 Bft) W-SW 252 0 min 0,000 mm 0,0 UV-I 0 W/m 7,5 C 3,7 C 20,9 km/h (4 Bft) 100,00 %
19.05.2016 23:30 8,9 C 91 % 1015,9 hPa 0,0 l/m 14,5 km/h (3 Bft) W-SW 247 0 min 0,000 mm 0,0 UV-I 0 W/m 7,5 C 4,0 C 25,7 km/h (4 Bft) 100,00 %
19.05.2016 23:34 8,9 C 91 % 1016,0 hPa 0,0 l/m 18,5 km/h (3 Bft) W-SW 246 0 min 0,000 mm 0,0 UV-I 0 W/m 7,5 C 2,4 C 19,3 km/h (3 Bft) 97,63 %
19.05.2016 23:35 8,9 C 92 % 1016,0 hPa 0,0 l/m 16,7 km/h (3 Bft) S-SW 205 0 min 0,000 mm 0,0 UV-I 0 W/m 7,7 C 3,1 C 24,1 km/h (4 Bft) 94,44 %
19.05.2016 23:36 8,9 C 92 % 1016,0 hPa 0,0 l/m 11,9 km/h (2 Bft) W 263 0 min 0,000 mm 0,0 UV-I 0 W/m 7,7 C 5,3 C 16,1 km/h (3 Bft) 100,00 %
19.05.2016 23:37 8,9 C 92 % 1016,1 hPa 0,0 l/m 11,5 km/h (2 Bft) W 261 0 min 0,000 mm 0,0 UV-I 0 W/m 7,7 C 5,5 C 17,7 km/h (3 Bft) 96,15 %
19.05.2016 23:38 8,9 C 92 % 1016,1 hPa 0,0 l/m 11,6 km/h (2 Bft) W 260 0 min 0,000 mm 0,0 UV-I 0 W/m 7,7 C 5,5 C 19,3 km/h (3 Bft) 100,00 %
19.05.2016 23:39 8,9 C 92 % 1016,1 hPa 0,0 l/m 16,1 km/h (3 Bft) SW 234 0 min 0,000 mm 0,0 UV-I 0 W/m 7,7 C 3,3 C 20,9 km/h (4 Bft) 95,65 %
19.05.2016 23:40 8,9 C 92 % 1016,1 hPa 0,0 l/m 15,7 km/h (3 Bft) W-SW 237 0 min 0,000 mm 0,0 UV-I 0 W/m 7,7 C 3,5 C 22,5 km/h (4 Bft) 95,83 %
19.05.2016 23:41 8,9 C 92 % 1016,1 hPa 0,0 l/m 10,4 km/h (2 Bft) S-SW 200 0 min 0,000 mm 0,0 UV-I 0 W/m 7,7 C 6,1 C 14,5 km/h (3 Bft) 100,00 %
19.05.2016 23:42 8,9 C 92 % 1016,0 hPa 0,0 l/m 18,7 km/h (3 Bft) SW 229 0 min 0,000 mm 0,0 UV-I 0 W/m 7,7 C 2,3 C 24,1 km/h (4 Bft) 96,30 %
19.05.2016 23:43 8,9 C 92 % 1016,0 hPa 0,0 l/m 13,8 km/h (3 Bft) W-SW 244 0 min 0,000 mm 0,0 UV-I 0 W/m 7,7 C 4,3 C 17,7 km/h (3 Bft) 100,00 %
19.05.2016 23:44 8,9 C 92 % 1016,1 hPa 0,0 l/m 15,1 km/h (3 Bft) W-SW 254 0 min 0,000 mm 0,0 UV-I 0 W/m 7,7 C 3,8 C 19,3 km/h (3 Bft) 92,59 %
19.05.2016 23:45 8,9 C 92 % 1016,1 hPa 0,0 l/m 15,0 km/h (3 Bft) W 267 0 min 0,000 mm 0,0 UV-I 0 W/m 7,7 C 3,8 C 20,9 km/h (4 Bft) 100,00 %
19.05.2016 23:46 8,9 C 92 % 1016,1 hPa 0,0 l/m 13,0 km/h (3 Bft) W 261 0 min 0,000 mm 0,0 UV-I 0 W/m 7,7 C 4,7 C 19,3 km/h (3 Bft) 100,00 %
19.05.2016 23:47 8,9 C 92 % 1016,1 hPa 0,0 l/m 13,4 km/h (3 Bft) SW 235 0 min 0,000 mm 0,0 UV-I 0 W/m 7,7 C 4,5 C 20,9 km/h (4 Bft) 100,00 %
19.05.2016 23:48 8,9 C 92 % 1016,1 hPa 0,0 l/m 10,4 km/h (2 Bft) W-SW 252 0 min 0,000 mm 0,0 UV-I 0 W/m 7,7 C 6,1 C 12,9 km/h (3 Bft) 100,00 %
19.05.2016 23:49 8,9 C 92 % 1016,1 hPa 0,0 l/m 12,2 km/h (2 Bft) W-SW 258 0 min 0,000 mm 0,0 UV-I 0 W/m 7,7 C 5,1 C 19,3 km/h (3 Bft) 96,55 %
19.05.2016 23:50 8,9 C 92 % 1016,2 hPa 0,0 l/m 12,3 km/h (3 Bft) SW 221 0 min 0,000 mm 0,0 UV-I 0 W/m 7,7 C 5,1 C 16,1 km/h (3 Bft) 100,00 %
19.05.2016 23:51 8,9 C 92 % 1016,2 hPa 0,0 l/m 10,2 km/h (2 Bft) W-SW 241 0 min 0,000 mm 0,0 UV-I 0 W/m 7,7 C 6,3 C 16,1 km/h (3 Bft) 100,00 %
19.05.2016 23:52 8,9 C 92 % 1016,2 hPa 0,0 l/m 9,3 km/h (2 Bft) SW 220 0 min 0,000 mm 0,0 UV-I 0 W/m 7,7 C 6,8 C 14,5 km/h (3 Bft) 100,00 %
19.05.2016 23:53 8,9 C 92 % 1016,2 hPa 0,0 l/m 11,1 km/h (2 Bft) S-SW 209 0 min 0,000 mm 0,0 UV-I 0 W/m 7,7 C 5,7 C 16,1 km/h (3 Bft) 92,59 %
19.05.2016 23:54 8,9 C 92 % 1016,2 hPa 0,0 l/m 11,2 km/h (2 Bft) W-SW 256 0 min 0,000 mm 0,0 UV-I 0 W/m 7,7 C 5,7 C 19,3 km/h (3 Bft) 100,00 %
19.05.2016 23:55 8,9 C 92 % 1016,2 hPa 0,0 l/m 10,7 km/h (2 Bft) SW 222 0 min 0,000 mm 0,0 UV-I 0 W/m 7,7 C 6,0 C 17,7 km/h (3 Bft) 100,00 %
19.05.2016 23:56 8,9 C 92 % 1016,2 hPa 0,0 l/m 10,6 km/h (2 Bft) W-SW 254 0 min 0,000 mm 0,0 UV-I 0 W/m 7,7 C 6,0 C 17,7 km/h (3 Bft) 100,00 %
19.05.2016 23:57 8,9 C 92 % 1016,3 hPa 0,0 l/m 15,2 km/h (3 Bft) W-SW 245 0 min 0,000 mm 0,0 UV-I 0 W/m 7,7 C 3,7 C 22,5 km/h (4 Bft) 100,00 %
19.05.2016 23:58 8,9 C 92 % 1016,3 hPa 0,0 l/m 13,6 km/h (3 Bft) W-SW 249 0 min 0,000 mm 0,0 UV-I 0 W/m 7,7 C 4,4 C 17,7 km/h (3 Bft) 100,00 %
_ Min-Zeit 05:12 15:42 05:10 - 00:00 - - - - - - 05:12 17:37 00:00 02:34
Minimum _ 7,0 C 62 % 1006,7 hPa - 0,0 km/h (0 Bft) - - - - - - 5,6 C 0,2 C 0,0 km/h (0 Bft) 83,33 %
_ Max-Zeit 13:20 18:18 23:57 16:09 17:37 - - 08:02 13:02 12:27 13:22 12:11 13:20 17:37 00:00
Maximum _ 17,6 C 94 % 1016,3 hPa 0,4 l/m 31,5 km/h
SW (5 Bft)
- - 2 min 0,305 mm 3,3 UV-I 633 W/m 12,0 C 17,6 C 46,7 km/h
SW (6 Bft)
100,00 %
Durchschnitt _ 11,2 C 83 % 1009,7 hPa #12,0 l/m 7,2 km/h (2 Bft) W-SW - #6:31 h #2,210 mm 1,9 UV-I 247 W/m 8,3 C 9,5 C 10,8 km/h (2 Bft) 98,66 %